ftp/pub/palmer/observations_modified/2019/May/original_files/AR190531_BASE.txt

Download

Sample DateTime	Unit Id	WS Avg 2min	WD Avg 2min	WGS 10min	WGD 10min	Air Temp	Rel Humidity	Dew Point	Pyranometer	Quantum	Air Pressure	Snow Level	Rainfall	PW Current	Visibility	CBase 1	CBase 2	CBase 3	Vert Vis
2019/05/31 00:00:00	BASE	5.99	22	7.61	19	-6.5	53	-14.6	0	0	1017.7	NA	0.0000		9999	0	0	0	0
2019/05/31 00:01:00	BASE	6.27	23	7.61	19	-6.5	53	-14.5	0	0	1017.7	NA	0.0000		9999	0	0	0	0
2019/05/31 00:02:00	BASE	6.00	27	7.46	17	-6.5	54	-14.3	0	0	1017.8	NA	0.0000		9999	0	0	0	0
2019/05/31 00:03:00	BASE	5.78	29	7.41	16	-6.4	54	-14.2	0	0	1017.8	NA	0.0000		9999	0	0	0	0
2019/05/31 00:04:00	BASE	5.78	29	7.41	16	-6.4	55	-14.1	0	0	1017.8	NA	0.0000		9999	0	0	0	0
2019/05/31 00:05:00	BASE	5.64	28	7.31	21	-6.4	55	-13.9	0	0	1017.8	NA	0.0000		9999	0	0	0	0
2019/05/31 00:06:00	BASE	5.88	27	7.31	21	-6.4	56	-13.7	0	0	1017.8	NA	0.0000		9999	0	0	0	0
2019/05/31 00:07:00	BASE	5.84	28	7.31	21	-6.5	57	-13.6	0	0	1017.8	NA	0.0000		9999	0	0	0	0
2019/05/31 00:08:00	BASE	5.67	26	7.25	23	-6.5	58	-13.5	0	0	1017.8	NA	0.0000		9999	0	0	0	0
2019/05/31 00:09:00	BASE	5.77	26	7.25	23	-6.5	58	-13.4	0	0	1017.8	NA	0.0000		9999	0	0	0	0
2019/05/31 00:10:00	BASE	5.72	26	6.79	27	-6.5	58	-13.4	0	0	1017.8	NA	0.0000		9999	0	0	0	0
2019/05/31 00:11:00	BASE	5.62	24	6.79	27	-6.5	58	-13.3	0	0	1017.8	NA	0.0000		9999	0	0	0	0
2019/05/31 00:12:00	BASE	5.72	24	6.89	19	-6.5	59	-13.3	0	0	1017.8	NA	0.0000		9999	0	0	0	0
2019/05/31 00:13:00	BASE	5.67	25	6.89	19	-6.5	59	-13.1	0	0	1017.8	NA	0.0000		9999	0	0	0	0
2019/05/31 00:14:00	BASE	5.71	25	6.89	19	-6.5	60	-13.1	0	0	1017.8	NA	0.0000		9999	0	0	0	0
2019/05/31 00:15:00	BASE	5.91	27	6.89	19	-6.5	60	-13.0	0	0	1017.8	NA	0.0000		9999	0	0	0	0
2019/05/31 00:16:00	BASE	5.86	28	6.89	19	-6.5	60	-12.9	0	0	1017.8	NA	0.0000		9999	0	0	0	0
2019/05/31 00:17:00	BASE	5.75	26	6.89	25	-6.5	60	-12.9	0	0	1017.8	NA	0.0000		9999	0	0	0	0
2019/05/31 00:18:00	BASE	5.67	25	6.89	25	-6.5	61	-12.8	0	0	1017.9	NA	0.0000		9999	0	0	0	0
2019/05/31 00:19:00	BASE	5.74	25	6.89	25	-6.5	61	-12.7	0	0	1017.9	NA	0.0000		9999	0	0	0	0
2019/05/31 00:20:00	BASE	5.57	25	6.89	25	-6.5	62	-12.6	0	0	1017.9	NA	0.0000		9999	0	0	0	0
2019/05/31 00:21:00	BASE	5.62	25	6.89	25	-6.4	62	-12.6	0	0	1017.9	NA	0.0000		9999	0	0	0	0
2019/05/31 00:22:00	BASE	5.91	25	6.89	25	-6.4	62	-12.5	0	0	1017.9	NA	0.0000		9999	0	0	0	0
2019/05/31 00:23:00	BASE	5.83	24	6.89	25	-6.4	62	-12.5	0	0	1018.0	NA	0.0000		9999	0	0	0	0
2019/05/31 00:24:00	BASE	5.58	22	6.89	25	-6.4	62	-12.5	0	0	1018.0	NA	0.0000		9999	0	0	0	0
2019/05/31 00:25:00	BASE	5.84	22	6.89	25	-6.4	62	-12.5	0	0	1018.1	NA	0.0000		9999	0	0	0	0
2019/05/31 00:26:00	BASE	6.39	21	7.20	12	-6.4	62	-12.4	0	0	1018.1	NA	0.0000		9999	0	0	0	0
2019/05/31 00:27:00	BASE	6.61	21	7.31	28	-6.4	63	-12.3	0	0	1018.1	NA	0.0000		9999	0	0	0	0
2019/05/31 00:28:00	BASE	6.92	20	7.82	24	-6.4	64	-12.2	0	0	1018.1	NA	0.0000		9999	0	0	0	0
2019/05/31 00:29:00	BASE	6.87	20	7.82	24	-6.4	64	-12.1	0	0	1018.1	NA	0.0000		9999	0	0	0	0
2019/05/31 00:30:00	BASE	6.21	23	7.82	24	-6.4	65	-12.0	0	0	1018.1	NA	0.0000		9999	0	0	0	0
2019/05/31 00:31:00	BASE	5.89	25	7.82	24	-6.4	65	-11.9	0	0	1018.2	NA	0.0000		9999	0	0	0	0
2019/05/31 00:32:00	BASE	6.13	23	7.82	24	-6.3	65	-11.8	0	0	1018.2	NA	0.0000		9999	0	0	0	0
2019/05/31 00:33:00	BASE	6.01	21	7.82	24	-6.3	66	-11.7	0	0	1018.2	NA	0.0000		9999	0	0	0	0
2019/05/31 00:34:00	BASE	5.93	21	7.82	24	-6.3	66	-11.6	0	0	1018.2	NA	0.0000		9999	0	0	0	0
2019/05/31 00:35:00	BASE	5.81	20	7.82	24	-6.3	67	-11.5	0	0	1018.2	NA	0.0000		9999	0	0	0	0
2019/05/31 00:36:00	BASE	5.31	21	7.82	24	-6.4	67	-11.5	0	0	1018.2	NA	0.0000		9999	0	0	0	0
2019/05/31 00:37:00	BASE	5.01	23	7.82	24	-6.4	67	-11.4	0	0	1018.3	NA	0.0000		9999	0	0	0	0
2019/05/31 00:38:00	BASE	4.94	23	7.25	22	-6.4	68	-11.4	0	0	1018.3	NA	0.0000		9999	0	0	0	0
2019/05/31 00:39:00	BASE	4.84	25	6.94	23	-6.4	68	-11.3	0	0	1018.3	NA	0.0000		9999	0	0	0	0
2019/05/31 00:40:00	BASE	4.98	27	6.94	23	-6.3	68	-11.2	0	0	1018.3	NA	0.0000		9999	0	0	0	0
2019/05/31 00:41:00	BASE	5.04	26	6.94	23	-6.3	69	-11.2	0	0	1018.3	NA	0.0000		9999	0	0	0	0
2019/05/31 00:42:00	BASE	4.41	27	6.94	23	-6.3	69	-11.1	0	0	1018.3	NA	0.0000		9999	0	0	0	0
2019/05/31 00:43:00	BASE	3.96	22	6.94	23	-6.3	69	-11.0	0	0	1018.3	NA	0.0000		9999	0	0	0	0
2019/05/31 00:44:00	BASE	4.06	19	6.43	23	-6.3	69	-11.0	0	0	1018.3	NA	0.0000		9999	0	0	0	0
2019/05/31 00:45:00	BASE	4.15	22	5.86	11	-6.3	69	-11.0	0	0	1018.4	NA	0.0000		9999	0	0	0	0
2019/05/31 00:46:00	BASE	4.31	26	5.86	11	-6.3	70	-10.9	0	0	1018.4	NA	0.0000		9999	0	0	0	0
2019/05/31 00:47:00	BASE	4.34	28	5.86	11	-6.3	70	-10.8	0	0	1018.4	NA	0.0000		9999	0	0	0	0
2019/05/31 00:48:00	BASE	4.15	25	5.86	11	-6.2	71	-10.6	0	0	1018.4	NA	0.0000		9999	0	0	0	0
2019/05/31 00:49:00	BASE	4.58	33	5.86	11	-6.2	71	-10.5	0	0	1018.4	NA	0.0000		9999	0	0	0	0
2019/05/31 00:50:00	BASE	4.87	36	5.71	48	-6.2	72	-10.5	0	0	1018.4	NA	0.0000		9999	0	0	0	0
2019/05/31 00:51:00	BASE	4.84	30	5.71	33	-6.2	72	-10.4	0	0	1018.4	NA	0.0000		9999	0	0	0	0
2019/05/31 00:52:00	BASE	4.73	29	5.71	33	-6.2	72	-10.3	0	0	1018.4	NA	0.0000		9999	0	0	0	0
2019/05/31 00:53:00	BASE	4.79	31	5.71	33	-6.2	73	-10.3	0	0	1018.4	NA	0.0000		9999	0	0	0	0
2019/05/31 00:54:00	BASE	5.21	31	6.38	40	-6.1	73	-10.2	0	0	1018.4	NA	0.0000		9999	0	0	0	0
2019/05/31 00:55:00	BASE	5.42	31	6.38	40	-6.0	73	-10.1	0	0	1018.4	NA	0.0000		9999	0	0	0	0
2019/05/31 00:56:00	BASE	5.36	32	6.38	40	-6.0	72	-10.1	0	0	1018.4	NA	0.0000		9999	0	0	0	0
2019/05/31 00:57:00	BASE	5.23	36	6.38	40	-5.9	72	-10.1	0	0	1018.4	NA	0.0000		9999	0	0	0	0
2019/05/31 00:58:00	BASE	4.92	37	6.38	40	-6.0	72	-10.2	0	0	1018.4	NA	0.0000		9999	0	0	0	0
2019/05/31 00:59:00	BASE	4.56	47	6.38	40	-6.1	72	-10.3	0	0	1018.5	NA	0.0000		9999	0	0	0	0
2019/05/31 01:00:00	BASE	4.42	64	6.38	40	-6.2	72	-10.4	0	0	1018.5	NA	0.0000		9999	0	0	0	0
2019/05/31 01:01:00	BASE	4.44	63	6.38	40	-6.4	72	-10.5	0	0	1018.6	NA	0.0000		9999	0	0	0	0
2019/05/31 01:02:00	BASE	4.59	54	6.38	40	-6.5	73	-10.6	0	0	1018.6	NA	0.0000		9999	0	0	0	0
2019/05/31 01:03:00	BASE	4.60	50	6.38	40	-6.6	73	-10.7	0	0	1018.6	NA	0.0000		9999	0	0	0	0
2019/05/31 01:04:00	BASE	4.52	56	6.12	45	-6.7	73	-10.7	0	0	1018.6	NA	0.0000		9999	0	0	0	0
2019/05/31 01:05:00	BASE	4.26	67	6.12	45	-6.7	73	-10.7	0	0	1018.6	NA	0.0000		9999	0	0	0	0
2019/05/31 01:06:00	BASE	4.40	73	6.12	45	-6.8	74	-10.7	0	0	1018.6	NA	0.0000		9999	0	0	0	0
2019/05/31 01:07:00	BASE	4.86	70	6.12	45	-6.8	74	-10.7	0	0	1018.6	NA	0.0000		9999	0	0	0	0
2019/05/31 01:08:00	BASE	5.05	70	6.12	45	-6.7	74	-10.6	0	0	1018.6	NA	0.0000		9999	0	0	0	0
2019/05/31 01:09:00	BASE	4.92	71	6.12	45	-6.6	74	-10.5	0	0	1018.6	NA	0.0000		9999	0	0	0	0
2019/05/31 01:10:00	BASE	5.18	66	6.12	57	-6.6	74	-10.5	0	0	1018.6	NA	0.0000		9999	0	0	0	0
2019/05/31 01:11:00	BASE	5.58	63	6.38	57	-6.5	73	-10.5	0	0	1018.6	NA	0.0000		9999	0	0	0	0
2019/05/31 01:12:00	BASE	5.27	67	6.38	57	-6.5	73	-10.5	0	0	1018.7	NA	0.0000		9999	0	0	0	0
2019/05/31 01:13:00	BASE	4.76	69	6.38	57	-6.5	73	-10.6	0	0	1018.7	NA	0.0000		9999	0	0	0	0
2019/05/31 01:14:00	BASE	4.67	66	6.38	57	-6.5	73	-10.6	0	0	1018.7	NA	0.0000		9999	0	0	0	0
2019/05/31 01:15:00	BASE	5.05	66	6.38	57	-6.5	73	-10.6	0	0	1018.7	NA	0.0000		9999	0	0	0	0
2019/05/31 01:16:00	BASE	5.38	67	6.38	57	-6.5	73	-10.6	0	0	1018.7	NA	0.0000		9999	0	0	0	0
2019/05/31 01:17:00	BASE	5.26	65	6.38	57	-6.5	73	-10.6	0	0	1018.7	NA	0.0000		9999	0	0	0	0
2019/05/31 01:18:00	BASE	5.03	65	6.38	57	-6.5	72	-10.6	0	0	1018.8	NA	0.0000		9999	0	0	0	0
2019/05/31 01:19:00	BASE	5.15	67	6.38	57	-6.5	72	-10.7	0	0	1018.8	NA	0.0000		9999	0	0	0	0
2019/05/31 01:20:00	BASE	5.32	65	6.38	57	-6.5	72	-10.7	0	0	1018.8	NA	0.0000		9999	0	0	0	0
2019/05/31 01:21:00	BASE	5.76	58	6.79	55	-6.5	72	-10.7	0	0	1018.8	NA	0.0000		9999	0	0	0	0
2019/05/31 01:22:00	BASE	6.03	55	6.79	55	-6.5	72	-10.8	0	0	1018.8	NA	0.0000		9999	0	0	0	0
2019/05/31 01:23:00	BASE	6.12	52	7.15	43	-6.6	72	-10.8	0	0	1018.8	NA	0.0000		9999	0	0	0	0
2019/05/31 01:24:00	BASE	6.71	51	7.51	51	-6.6	72	-10.8	0	0	1018.8	NA	0.0000		9999	0	0	0	0
2019/05/31 01:25:00	BASE	6.71	53	7.51	51	-6.7	72	-10.8	0	0	1018.8	NA	0.0000		9999	0	0	0	0
2019/05/31 01:26:00	BASE	6.16	50	7.51	51	-6.7	73	-10.8	0	0	1018.8	NA	0.0000		9999	0	0	0	0
2019/05/31 01:27:00	BASE	6.30	47	7.51	51	-6.7	73	-10.8	0	0	1018.8	NA	0.0000		9999	0	0	0	0
2019/05/31 01:28:00	BASE	6.29	44	7.51	51	-6.8	73	-10.8	0	0	1018.9	NA	0.0000		9999	0	0	0	0
2019/05/31 01:29:00	BASE	5.86	45	7.51	51	-6.7	73	-10.7	0	0	1018.9	NA	0.0000		9999	0	0	0	0
2019/05/31 01:30:00	BASE	5.55	51	7.51	51	-6.7	74	-10.6	0	0	1018.9	NA	0.0000		9999	0	0	0	0
2019/05/31 01:31:00	BASE	5.42	52	7.51	51	-6.7	74	-10.6	0	0	1018.9	NA	0.0000		9999	0	0	0	0
2019/05/31 01:32:00	BASE	5.54	57	7.51	51	-6.7	74	-10.6	0	0	1018.9	NA	0.0000		9999	0	0	0	0
2019/05/31 01:33:00	BASE	5.29	65	7.51	51	-6.7	74	-10.5	0	0	1018.9	NA	0.0000		9999	0	0	0	0
2019/05/31 01:34:00	BASE	5.39	64	7.00	51	-6.7	74	-10.5	0	0	1018.9	NA	0.0000		9999	0	0	0	0
2019/05/31 01:35:00	BASE	5.72	60	6.79	52	-6.7	74	-10.5	0	0	1018.9	NA	0.0000		9999	0	0	0	0
2019/05/31 01:36:00	BASE	5.94	59	7.10	65	-6.7	74	-10.6	0	0	1018.9	NA	0.0000		9999	0	0	0	0
2019/05/31 01:37:00	BASE	5.84	60	7.10	65	-6.7	74	-10.6	0	0	1018.9	NA	0.0000		9999	0	0	0	0
2019/05/31 01:38:00	BASE	5.15	62	7.10	65	-6.7	74	-10.6	0	0	1019.0	NA	0.0000		9999	0	0	0	0
2019/05/31 01:39:00	BASE	5.27	62	7.10	65	-6.7	74	-10.5	0	0	1019.0	NA	0.0000		9999	0	0	0	0
2019/05/31 01:40:00	BASE	5.48	65	7.10	65	-6.6	74	-10.5	0	0	1019.0	NA	0.0000		9999	0	0	0	0
2019/05/31 01:41:00	BASE	5.15	66	7.10	65	-6.6	74	-10.5	0	0	1019.0	NA	0.0000		9999	0	0	0	0
2019/05/31 01:42:00	BASE	5.26	67	7.10	65	-6.6	73	-10.5	0	0	1019.0	NA	0.0000		9999	0	0	0	0
2019/05/31 01:43:00	BASE	5.48	67	7.10	65	-6.6	73	-10.6	0	0	1019.0	NA	0.0000		9999	0	0	0	0
2019/05/31 01:44:00	BASE	5.75	62	7.10	65	-6.6	73	-10.6	0	0	1019.0	NA	0.0000		9999	0	0	0	0
2019/05/31 01:45:00	BASE	6.08	63	7.10	65	-6.6	73	-10.6	0	0	1019.0	NA	0.0000		9999	0	0	0	0
2019/05/31 01:46:00	BASE	5.68	69	6.79	66	-6.6	73	-10.6	0	0	1019.0	NA	0.0000		9999	0	0	0	0
2019/05/31 01:47:00	BASE	5.24	71	6.79	66	-6.5	73	-10.6	0	0	1019.1	NA	0.0000		9999	0	0	0	0
2019/05/31 01:48:00	BASE	5.55	69	6.79	66	-6.5	72	-10.7	0	0	1019.1	NA	0.0000		9999	0	0	0	0
2019/05/31 01:49:00	BASE	5.78	70	6.79	66	-6.5	72	-10.7	0	0	1019.1	NA	0.0000		9999	0	0	0	0
2019/05/31 01:50:00	BASE	5.57	73	6.79	66	-6.5	72	-10.8	0	0	1019.1	NA	0.0000		9999	0	0	0	0
2019/05/31 01:51:00	BASE	5.49	73	6.79	66	-6.5	71	-10.8	0	0	1019.1	NA	0.0000		9999	0	0	0	0
2019/05/31 01:52:00	BASE	5.75	70	6.79	66	-6.5	71	-10.9	0	0	1019.1	NA	0.0000		9999	0	0	0	0
2019/05/31 01:53:00	BASE	5.61	76	6.79	66	-6.5	71	-10.8	0	0	1019.1	NA	0.0000		9999	0	0	0	0
2019/05/31 01:54:00	BASE	5.33	77	6.79	66	-6.5	71	-10.9	0	0	1019.1	NA	0.0000		9999	0	0	0	0
2019/05/31 01:55:00	BASE	5.67	70	6.64	67	-6.5	71	-10.9	0	0	1019.2	NA	0.0000		9999	0	0	0	0
2019/05/31 01:56:00	BASE	6.09	67	6.84	65	-6.5	70	-11.0	0	0	1019.2	NA	0.0000		9999	0	0	0	0
2019/05/31 01:57:00	BASE	5.98	68	6.84	65	-6.5	70	-11.0	0	0	1019.2	NA	0.0000		9999	0	0	0	0
2019/05/31 01:58:00	BASE	5.83	65	6.84	65	-6.5	70	-11.1	0	0	1019.2	NA	0.0000		9999	0	0	0	0
2019/05/31 01:59:00	BASE	6.06	64	6.84	65	-6.5	70	-11.0	0	0	1019.2	NA	0.0000		9999	0	0	0	0
2019/05/31 02:00:00	BASE	5.93	66	6.84	65	-6.5	70	-11.0	0	0	1019.2	NA	0.0000		9999	0	0	0	0
2019/05/31 02:01:00	BASE	5.63	67	6.84	65	-6.4	70	-11.0	0	0	1019.2	NA	0.0000		9999	0	0	0	0
2019/05/31 02:02:00	BASE	5.33	67	6.84	65	-6.4	70	-11.0	0	0	1019.2	NA	0.0000		9999	0	0	0	0
2019/05/31 02:03:00	BASE	5.17	66	6.84	65	-6.4	70	-11.0	0	0	1019.2	NA	0.0000		9999	0	0	0	0
2019/05/31 02:04:00	BASE	5.43	67	6.84	65	-6.4	69	-11.0	0	0	1019.2	NA	0.0000		9999	0	0	0	0
2019/05/31 02:05:00	BASE	5.20	65	6.84	65	-6.3	69	-11.1	0	0	1019.2	NA	0.0000		9999	0	0	0	0
2019/05/31 02:06:00	BASE	4.76	61	6.53	55	-6.3	69	-11.1	0	0	1019.2	NA	0.0000		9999	0	0	0	0
2019/05/31 02:07:00	BASE	4.65	64	6.53	55	-6.3	69	-11.1	0	0	1019.2	NA	0.0000		9999	0	0	0	0
2019/05/31 02:08:00	BASE	4.78	67	6.43	65	-6.3	69	-11.0	0	0	1019.2	NA	0.0000		9999	0	0	0	0
2019/05/31 02:09:00	BASE	4.88	63	6.28	62	-6.2	69	-11.0	0	0	1019.2	NA	0.0000		9999	0	0	0	0
2019/05/31 02:10:00	BASE	4.69	66	6.28	62	-6.2	69	-11.0	0	0	1019.2	NA	0.0000		9999	0	0	0	0
2019/05/31 02:11:00	BASE	4.55	72	6.28	62	-6.2	68	-11.1	0	0	1019.3	NA	0.0000		9999	0	0	0	0
2019/05/31 02:12:00	BASE	4.47	67	6.28	62	-6.2	68	-11.1	0	0	1019.4	NA	0.0000		9999	0	0	0	0
2019/05/31 02:13:00	BASE	4.75	66	6.28	62	-6.2	68	-11.2	0	0	1019.4	NA	0.0000		9999	0	0	0	0
2019/05/31 02:14:00	BASE	4.73	68	5.81	68	-6.2	68	-11.2	0	0	1019.4	NA	0.0000		9999	0	0	0	0
2019/05/31 02:15:00	BASE	4.37	66	5.81	68	-6.2	68	-11.1	0	0	1019.4	NA	0.0000		9999	0	0	0	0
2019/05/31 02:16:00	BASE	4.72	68	6.12	75	-6.2	68	-11.1	0	0	1019.4	NA	0.0000		9999	0	0	0	0
2019/05/31 02:17:00	BASE	5.04	67	6.12	68	-6.2	68	-11.1	0	0	1019.4	NA	0.0000		9999	0	0	0	0
2019/05/31 02:18:00	BASE	4.83	60	6.12	68	-6.2	68	-11.1	0	0	1019.4	NA	0.0000		9999	0	0	0	0
2019/05/31 02:19:00	BASE	4.47	61	6.12	68	-6.2	68	-11.1	0	0	1019.4	NA	0.0000		9999	0	0	0	0
2019/05/31 02:20:00	BASE	4.61	70	6.12	68	-6.2	69	-11.1	0	0	1019.4	NA	0.0000		9999	0	0	0	0
2019/05/31 02:21:00	BASE	5.02	77	6.12	68	-6.3	69	-11.0	0	0	1019.4	NA	0.0000		9999	0	0	0	0
2019/05/31 02:22:00	BASE	4.78	76	6.12	68	-6.3	69	-11.0	0	0	1019.5	NA	0.0000		9999	0	0	0	0
2019/05/31 02:23:00	BASE	4.31	70	6.12	68	-6.3	70	-10.9	0	0	1019.5	NA	0.0000		9999	0	0	0	0
2019/05/31 02:24:00	BASE	4.16	68	6.12	68	-6.3	70	-10.9	0	0	1019.5	NA	0.0000		9999	0	0	0	0
2019/05/31 02:25:00	BASE	4.64	72	6.12	68	-6.3	70	-10.9	0	0	1019.5	NA	0.0000		9999	0	0	0	0
2019/05/31 02:26:00	BASE	4.89	67	6.12	68	-6.3	70	-10.9	0	0	1019.5	NA	0.0000		9999	0	0	0	0
2019/05/31 02:27:00	BASE	4.70	64	5.81	67	-6.3	70	-10.9	0	0	1019.5	NA	0.0000		9999	0	0	0	0
2019/05/31 02:28:00	BASE	4.64	71	5.81	67	-6.4	70	-10.9	0	0	1019.5	NA	0.0000		9999	0	0	0	0
2019/05/31 02:29:00	BASE	4.75	71	5.81	67	-6.4	70	-10.9	0	0	1019.6	NA	0.0000		9999	0	0	0	0
2019/05/31 02:30:00	BASE	4.98	68	5.92	67	-6.4	71	-10.9	0	0	1019.6	NA	0.0000		9999	0	0	0	0
2019/05/31 02:31:00	BASE	5.11	72	6.33	78	-6.5	71	-10.9	0	0	1019.6	NA	0.0000		9999	0	0	0	0
2019/05/31 02:32:00	BASE	4.92	76	6.33	78	-6.6	71	-10.9	0	0	1019.6	NA	0.0000		9999	0	0	0	0
2019/05/31 02:33:00	BASE	4.87	73	6.33	78	-6.6	71	-10.9	0	0	1019.6	NA	0.0000		9999	0	0	0	0
2019/05/31 02:34:00	BASE	5.25	68	6.33	78	-6.6	72	-10.9	0	0	1019.6	NA	0.0000		9999	0	0	0	0
2019/05/31 02:35:00	BASE	5.12	69	6.33	78	-6.6	72	-10.8	0	0	1019.6	NA	0.0000		9999	0	0	0	0
2019/05/31 02:36:00	BASE	4.86	66	6.33	78	-6.6	72	-10.8	0	0	1019.6	NA	0.0000		9999	0	0	0	0
2019/05/31 02:37:00	BASE	5.29	62	6.74	52	-6.6	72	-10.8	0	0	1019.6	NA	0.0000		9999	0	0	0	0
2019/05/31 02:38:00	BASE	5.73	60	6.74	52	-6.7	73	-10.8	0	0	1019.6	NA	0.0000		9999	0	0	0	0
2019/05/31 02:39:00	BASE	5.61	56	7.15	49	-6.7	73	-10.8	0	0	1019.7	NA	0.0000		9999	0	0	0	0
2019/05/31 02:40:00	BASE	5.92	55	7.25	54	-6.8	73	-10.8	0	0	1019.7	NA	0.0000		9999	0	0	0	0
2019/05/31 02:41:00	BASE	7.08	51	8.49	50	-6.8	73	-10.8	0	0	1019.7	NA	0.0000		9999	0	0	0	0
2019/05/31 02:42:00	BASE	7.71	48	8.49	50	-6.8	73	-10.8	0	0	1019.7	NA	0.0000		9999	0	0	0	0
2019/05/31 02:43:00	BASE	7.82	46	8.49	50	-6.9	74	-10.8	0	0	1019.7	NA	0.0000		9999	0	0	0	0
2019/05/31 02:44:00	BASE	8.06	45	8.59	45	-6.9	74	-10.7	0	0	1019.7	NA	0.0000		9999	0	0	0	0
2019/05/31 02:45:00	BASE	8.26	44	8.85	47	-6.9	75	-10.6	0	0	1019.7	NA	0.0000		9999	0	0	0	0
2019/05/31 02:46:00	BASE	8.36	42	9.11	41	-6.9	75	-10.5	0	0	1019.7	NA	0.0000		9999	0	0	0	0
2019/05/31 02:47:00	BASE	8.53	40	9.11	41	-6.8	75	-10.5	0	0	1019.7	NA	0.0000		9999	0	0	0	0
2019/05/31 02:48:00	BASE	8.71	39	9.11	35	-6.8	76	-10.4	0	0	1019.7	NA	0.0000		9999	0	0	0	0
2019/05/31 02:49:00	BASE	8.71	38	9.41	35	-6.8	76	-10.4	0	0	1019.7	NA	0.0000		9999	0	0	0	0
2019/05/31 02:50:00	BASE	8.72	37	9.41	35	-6.8	76	-10.4	0	0	1019.7	NA	0.0000		9999	0	0	0	0
2019/05/31 02:51:00	BASE	8.95	37	9.67	39	-6.8	76	-10.4	0	0	1019.7	NA	0.0000		9999	0	0	0	0
2019/05/31 02:52:00	BASE	8.84	35	9.67	39	-6.8	76	-10.3	0	0	1019.7	NA	0.0000		9999	0	0	0	0
2019/05/31 02:53:00	BASE	8.57	35	9.67	39	-6.8	76	-10.3	0	0	1019.7	NA	0.0000		9999	0	0	0	0
2019/05/31 02:54:00	BASE	8.56	36	9.67	39	-6.8	76	-10.3	0	0	1019.7	NA	0.0000		9999	0	0	0	0
2019/05/31 02:55:00	BASE	8.50	37	9.67	39	-6.8	76	-10.3	0	0	1019.7	NA	0.0000		9999	0	0	0	0
2019/05/31 02:56:00	BASE	8.27	37	9.67	39	-6.8	76	-10.3	0	0	1019.8	NA	0.0000		9999	0	0	0	0
2019/05/31 02:57:00	BASE	7.86	35	9.67	39	-6.8	76	-10.3	0	0	1019.8	NA	0.0000		9999	0	0	0	0
2019/05/31 02:58:00	BASE	7.41	34	9.67	39	-6.7	76	-10.2	0	0	1019.8	NA	0.0000		9999	0	0	0	0
2019/05/31 02:59:00	BASE	7.45	35	9.67	39	-6.7	77	-10.1	0	0	1019.8	NA	0.0000		9999	0	0	0	0
2019/05/31 03:00:00	BASE	7.50	35	9.67	39	-6.6	77	-10.0	0	0	1019.8	NA	0.0000		9999	0	0	0	0
2019/05/31 03:01:00	BASE	7.12	34	9.21	40	-6.6	77	-10.0	0	0	1019.8	NA	0.0000		9999	0	0	0	0
2019/05/31 03:02:00	BASE	7.06	33	9.21	40	-6.6	77	-9.9	0	0	1019.8	NA	0.0000		9999	0	0	0	0
2019/05/31 03:03:00	BASE	6.97	34	9.21	40	-6.6	77	-9.9	0	0	1019.8	NA	0.0000		9999	0	0	0	0
2019/05/31 03:04:00	BASE	6.81	34	9.05	42	-6.5	77	-9.9	0	0	1019.8	NA	0.0000		9999	0	0	0	0
2019/05/31 03:05:00	BASE	6.60	31	8.39	35	-6.5	77	-9.8	0	0	1019.8	NA	0.0000		9999	0	0	0	0
2019/05/31 03:06:00	BASE	6.40	30	8.28	35	-6.4	77	-9.8	0	0	1019.8	NA	0.0000		9999	0	0	0	0
2019/05/31 03:07:00	BASE	6.12	31	8.13	40	-6.4	77	-9.7	0	0	1019.8	NA	0.0000		9999	0	0	0	0
2019/05/31 03:08:00	BASE	5.99	31	8.13	40	-6.3	77	-9.7	0	0	1019.8	NA	0.0000		9999	0	0	0	0
2019/05/31 03:09:00	BASE	6.32	33	7.97	33	-6.3	77	-9.7	0	0	1019.8	NA	0.0000		9999	0	0	0	0
2019/05/31 03:10:00	BASE	6.58	33	7.56	34	-6.3	77	-9.7	0	0	1019.8	NA	0.0000		9999	0	0	0	0
2019/05/31 03:11:00	BASE	6.44	33	7.56	34	-6.4	77	-9.7	0	0	1019.8	NA	0.0000		9999	0	0	0	0
2019/05/31 03:12:00	BASE	6.50	35	7.51	27	-6.4	77	-9.8	0	0	1019.9	NA	0.0000		9999	0	0	0	0
2019/05/31 03:13:00	BASE	6.86	35	7.51	27	-6.5	77	-9.8	0	0	1019.9	NA	0.0000		9999	0	0	0	0
2019/05/31 03:14:00	BASE	6.99	34	7.51	35	-6.4	77	-9.8	0	0	1019.9	NA	0.0000		9999	0	0	0	0
2019/05/31 03:15:00	BASE	7.02	34	7.82	33	-6.4	77	-9.8	0	0	1019.9	NA	0.0000		9999	0	0	0	0
2019/05/31 03:16:00	BASE	6.71	31	7.82	33	-6.5	77	-9.8	0	0	1019.9	NA	0.0000		9999	0	0	0	0
2019/05/31 03:17:00	BASE	6.50	30	7.82	33	-6.4	77	-9.7	0	0	1020.0	NA	0.0000		9999	0	0	0	0
2019/05/31 03:18:00	BASE	6.68	31	7.82	33	-6.4	78	-9.7	0	0	1020.0	NA	0.0000		9999	0	0	0	0
2019/05/31 03:19:00	BASE	6.58	29	7.82	33	-6.4	78	-9.7	0	0	1020.0	NA	0.0000		9999	0	0	0	0
2019/05/31 03:20:00	BASE	6.65	29	7.82	33	-6.3	78	-9.6	0	0	1020.0	NA	0.0000		9999	0	0	0	0
2019/05/31 03:21:00	BASE	6.84	29	7.82	33	-6.3	78	-9.6	0	0	1020.0	NA	0.0000		9999	0	0	0	0
2019/05/31 03:22:00	BASE	6.69	28	7.82	33	-6.2	77	-9.5	0	0	1020.0	NA	0.0000		9999	0	0	0	0
2019/05/31 03:23:00	BASE	6.84	28	7.82	33	-6.2	77	-9.5	0	0	1020.0	NA	0.0000		9999	0	0	0	0
2019/05/31 03:24:00	BASE	6.96	28	7.82	33	-6.2	77	-9.6	0	0	1020.0	NA	0.0000		9999	0	0	0	0
2019/05/31 03:25:00	BASE	6.87	28	7.51	29	-6.2	77	-9.6	0	0	1020.0	NA	0.0000		9999	0	0	0	0
2019/05/31 03:26:00	BASE	6.67	31	7.51	29	-6.2	77	-9.6	0	0	1020.0	NA	0.0000		9999	0	0	0	0
2019/05/31 03:27:00	BASE	6.35	30	7.51	29	-6.2	77	-9.6	0	0	1020.0	NA	0.0000		9999	0	0	0	0
2019/05/31 03:28:00	BASE	6.37	29	7.51	29	-6.2	76	-9.6	0	0	1020.0	NA	0.0000		9999	0	0	0	0
2019/05/31 03:29:00	BASE	6.49	29	7.51	29	-6.1	76	-9.6	0	0	1020.0	NA	0.0000		9999	0	0	0	0
2019/05/31 03:30:00	BASE	6.39	30	7.51	29	-6.1	76	-9.7	0	0	1020.1	NA	0.0000		9999	0	0	0	0
2019/05/31 03:31:00	BASE	6.30	32	7.51	29	-6.1	76	-9.7	0	0	1020.1	NA	0.0000		9999	0	0	0	0
2019/05/31 03:32:00	BASE	6.47	32	7.51	29	-6.1	76	-9.7	0	0	1020.1	NA	0.0000		9999	0	0	0	0
2019/05/31 03:33:00	BASE	6.63	32	7.46	23	-6.2	76	-9.7	0	0	1020.0	NA	0.0000		9999	0	0	0	0
2019/05/31 03:34:00	BASE	6.71	32	7.25	34	-6.2	76	-9.7	0	0	1020.0	NA	0.0000		9999	0	0	0	0
2019/05/31 03:35:00	BASE	6.67	33	7.25	34	-6.2	76	-9.7	0	0	1020.1	NA	0.0000		9999	0	0	0	0
2019/05/31 03:36:00	BASE	6.63	31	7.25	34	-6.2	77	-9.7	0	0	1020.1	NA	0.0000		9999	0	0	0	0
2019/05/31 03:37:00	BASE	6.66	30	7.25	34	-6.2	77	-9.6	0	0	1020.1	NA	0.0000		9999	0	0	0	0
2019/05/31 03:38:00	BASE	6.84	32	7.51	34	-6.2	77	-9.6	0	0	1020.1	NA	0.0000		9999	0	0	0	0
2019/05/31 03:39:00	BASE	6.86	33	7.51	34	-6.3	77	-9.6	0	0	1020.1	NA	0.0000		9999	0	0	0	0
2019/05/31 03:40:00	BASE	6.54	34	7.51	34	-6.3	77	-9.7	0	0	1020.1	NA	0.0000		9999	0	0	0	0
2019/05/31 03:41:00	BASE	6.64	33	7.51	34	-6.3	77	-9.7	0	0	1020.1	NA	0.0000		9999	0	0	0	0
2019/05/31 03:42:00	BASE	6.93	34	7.51	41	-6.4	77	-9.7	0	0	1020.1	NA	0.0000		9999	0	0	0	0
2019/05/31 03:43:00	BASE	7.20	38	7.82	36	-6.4	77	-9.8	0	0	1020.1	NA	0.0000		9999	0	0	0	0
2019/05/31 03:44:00	BASE	7.39	38	7.92	39	-6.4	77	-9.8	0	0	1020.2	NA	0.0000		9999	0	0	0	0
2019/05/31 03:45:00	BASE	7.29	38	7.92	39	-6.5	77	-9.8	0	0	1020.2	NA	0.0000		9999	0	0	0	0
2019/05/31 03:46:00	BASE	7.20	39	7.92	39	-6.5	77	-9.9	0	0	1020.2	NA	0.0000		9999	0	0	0	0
2019/05/31 03:47:00	BASE	7.37	40	8.08	42	-6.6	77	-9.9	0	0	1020.2	NA	0.0000		9999	0	0	0	0
2019/05/31 03:48:00	BASE	7.54	40	8.08	42	-6.6	77	-10.0	0	0	1020.2	NA	0.0000		9999	0	0	0	0
2019/05/31 03:49:00	BASE	7.49	41	8.08	42	-6.6	77	-10.0	0	0	1020.2	NA	0.0000		9999	0	0	0	0
2019/05/31 03:50:00	BASE	7.36	42	8.08	42	-6.7	77	-10.0	0	0	1020.2	NA	0.0000		9999	0	0	0	0
2019/05/31 03:51:00	BASE	7.20	43	8.08	42	-6.7	77	-10.0	0	0	1020.3	NA	0.0000		9999	0	0	0	0
2019/05/31 03:52:00	BASE	6.88	44	8.08	42	-6.7	77	-10.1	0	0	1020.3	NA	0.0000		9999	0	0	0	0
2019/05/31 03:53:00	BASE	6.82	44	8.08	42	-6.7	77	-10.1	0	0	1020.3	NA	0.0000		9999	0	0	0	0
2019/05/31 03:54:00	BASE	6.99	43	8.08	42	-6.7	77	-10.0	0	0	1020.3	NA	0.0000		9999	0	0	0	0
2019/05/31 03:55:00	BASE	6.90	45	8.08	42	-6.7	77	-10.0	0	0	1020.3	NA	0.0000		9999	0	0	0	0
2019/05/31 03:56:00	BASE	6.91	46	8.08	42	-6.7	77	-10.0	0	0	1020.3	NA	0.0000		9999	0	0	0	0
2019/05/31 03:57:00	BASE	6.82	45	7.92	40	-6.7	77	-10.1	0	0	1020.3	NA	0.0000		9999	0	0	0	0
2019/05/31 03:58:00	BASE	6.49	43	7.77	45	-6.7	77	-10.1	0	0	1020.3	NA	0.0000		9999	0	0	0	0
2019/05/31 03:59:00	BASE	6.70	44	7.77	45	-6.7	77	-10.1	0	0	1020.3	NA	0.0000		9999	0	0	0	0
2019/05/31 04:00:00	BASE	6.75	47	7.77	45	-6.8	77	-10.1	0	0	1020.3	NA	0.0000		9999	0	0	0	0
2019/05/31 04:01:00	BASE	6.33	50	7.61	42	-6.8	77	-10.1	0	0	1020.3	NA	0.0000		9999	0	0	0	0
2019/05/31 04:02:00	BASE	6.28	49	7.61	42	-6.8	77	-10.2	0	0	1020.3	NA	0.0000		9999	0	0	0	0
2019/05/31 04:03:00	BASE	6.39	47	7.61	42	-6.8	77	-10.2	0	0	1020.3	NA	0.0000		9999	0	0	0	0
2019/05/31 04:04:00	BASE	6.61	48	7.61	42	-6.9	77	-10.2	0	0	1020.3	NA	0.0000		9999	0	0	0	0
2019/05/31 04:05:00	BASE	6.32	49	7.61	42	-6.9	77	-10.2	0	0	1020.4	NA	0.0000		9999	0	0	0	0
2019/05/31 04:06:00	BASE	6.25	49	7.61	50	-6.9	77	-10.3	0	0	1020.4	NA	0.0000		9999	0	0	0	0
2019/05/31 04:07:00	BASE	6.44	48	7.61	50	-6.9	77	-10.3	0	0	1020.4	NA	0.0000		9999	0	0	0	0
2019/05/31 04:08:00	BASE	6.64	49	7.61	50	-6.9	77	-10.3	0	0	1020.4	NA	0.0000		9999	0	0	0	0
2019/05/31 04:09:00	BASE	6.93	50	7.61	50	-6.9	77	-10.3	0	0	1020.4	NA	0.0000		9999	0	0	0	0
2019/05/31 04:10:00	BASE	7.00	48	7.61	50	-6.9	77	-10.2	0	0	1020.4	NA	0.0000		9999	0	0	0	0
2019/05/31 04:11:00	BASE	7.10	47	7.61	50	-6.9	77	-10.2	0	0	1020.4	NA	0.0000		9999	0	0	0	0
2019/05/31 04:12:00	BASE	7.26	45	7.82	40	-6.9	77	-10.2	0	0	1020.4	NA	0.0000		9999	0	0	0	0
2019/05/31 04:13:00	BASE	7.33	44	7.82	40	-6.8	77	-10.2	0	0	1020.4	NA	0.0000		9999	0	0	0	0
2019/05/31 04:14:00	BASE	7.46	44	8.03	44	-6.8	77	-10.2	0	0	1020.4	NA	0.0000		9999	0	0	0	0
2019/05/31 04:15:00	BASE	7.56	44	8.03	44	-6.8	77	-10.1	0	0	1020.5	NA	0.0000		9999	0	0	0	0
2019/05/31 04:16:00	BASE	7.35	45	8.03	44	-6.7	77	-10.1	0	0	1020.5	NA	0.0000		9999	0	0	0	0
2019/05/31 04:17:00	BASE	7.35	47	8.03	44	-6.7	77	-10.0	0	0	1020.6	NA	0.0000		9999	0	0	0	0
2019/05/31 04:18:00	BASE	7.29	49	8.03	44	-6.7	77	-10.1	0	0	1020.6	NA	0.0000		9999	0	0	0	0
2019/05/31 04:19:00	BASE	7.24	48	8.03	44	-6.7	77	-10.2	0	0	1020.6	NA	0.0000		9999	0	0	0	0
2019/05/31 04:20:00	BASE	7.25	46	8.08	44	-6.8	77	-10.2	0	0	1020.6	NA	0.0000		9999	0	0	0	0
2019/05/31 04:21:00	BASE	7.26	46	8.08	44	-6.8	77	-10.2	0	0	1020.6	NA	0.0000		9999	0	0	0	0
2019/05/31 04:22:00	BASE	7.39	46	8.13	40	-6.8	77	-10.2	0	0	1020.6	NA	0.0000		9999	0	0	0	0
2019/05/31 04:23:00	BASE	7.50	44	8.13	40	-6.8	77	-10.1	0	0	1020.6	NA	0.0000		9999	0	0	0	0
2019/05/31 04:24:00	BASE	7.44	43	8.13	40	-6.7	77	-10.0	0	0	1020.6	NA	0.0000		9999	0	0	0	0
2019/05/31 04:25:00	BASE	7.26	41	8.13	40	-6.7	77	-10.0	0	0	1020.7	NA	0.0000		9999	0	0	0	0
2019/05/31 04:26:00	BASE	7.14	39	8.13	40	-6.6	77	-10.0	0	0	1020.7	NA	0.0000		9999	0	0	0	0
2019/05/31 04:27:00	BASE	7.28	40	8.13	40	-6.6	77	-10.0	0	0	1020.7	NA	0.0000		9999	0	0	0	0
2019/05/31 04:28:00	BASE	7.40	39	8.13	40	-6.6	77	-9.9	0	0	1020.7	NA	0.0000		9999	0	0	0	0
2019/05/31 04:29:00	BASE	7.41	39	8.13	40	-6.6	77	-10.0	0	0	1020.7	NA	0.0000		9999	0	0	0	0
2019/05/31 04:30:00	BASE	7.23	41	8.13	40	-6.6	77	-10.0	0	0	1020.7	NA	0.0000		9999	0	0	0	0
2019/05/31 04:31:00	BASE	7.20	40	8.13	40	-6.6	76	-10.0	0	0	1020.7	NA	0.0000		9999	0	0	0	0
2019/05/31 04:32:00	BASE	7.44	41	7.97	40	-6.6	76	-10.0	0	0	1020.7	NA	0.0000		9999	0	0	0	0
2019/05/31 04:33:00	BASE	7.29	42	7.92	36	-6.5	76	-10.1	0	0	1020.7	NA	0.0000		9999	0	0	0	0
2019/05/31 04:34:00	BASE	7.12	43	7.92	36	-6.5	76	-10.1	0	0	1020.7	NA	0.0000		9999	0	0	0	0
2019/05/31 04:35:00	BASE	7.15	43	7.92	36	-6.5	76	-10.1	0	0	1020.7	NA	0.0000		9999	0	0	0	0
2019/05/31 04:36:00	BASE	6.97	44	7.92	36	-6.5	76	-10.1	0	0	1020.8	NA	0.0000		9999	0	0	0	0
2019/05/31 04:37:00	BASE	7.01	44	7.92	36	-6.6	76	-10.1	0	0	1020.8	NA	0.0000		9999	0	0	0	0
2019/05/31 04:38:00	BASE	7.11	44	7.82	43	-6.6	76	-10.1	0	0	1020.8	NA	0.0000		9999	0	0	0	0
2019/05/31 04:39:00	BASE	7.11	45	7.72	46	-6.6	76	-10.1	0	0	1020.8	NA	0.0000		9999	0	0	0	0
2019/05/31 04:40:00	BASE	7.17	45	7.72	46	-6.6	76	-10.1	0	0	1020.8	NA	0.0000		9999	0	0	0	0
2019/05/31 04:41:00	BASE	6.82	47	7.72	46	-6.6	76	-10.1	0	0	1020.8	NA	0.0000		9999	0	0	0	0
2019/05/31 04:42:00	BASE	6.62	47	7.72	46	-6.6	76	-10.2	0	0	1020.8	NA	0.0000		9999	0	0	0	0
2019/05/31 04:43:00	BASE	6.65	47	7.72	46	-6.6	76	-10.2	0	0	1020.8	NA	0.0000		9999	0	0	0	0
2019/05/31 04:44:00	BASE	6.72	48	7.72	46	-6.7	76	-10.2	0	0	1020.8	NA	0.0000		9999	0	0	0	0
2019/05/31 04:45:00	BASE	6.86	47	7.72	46	-6.7	76	-10.2	0	0	1020.8	NA	0.0000		9999	0	0	0	0
2019/05/31 04:46:00	BASE	6.43	46	7.72	46	-6.7	76	-10.3	0	0	1020.8	NA	0.0000		9999	0	0	0	0
2019/05/31 04:47:00	BASE	6.45	46	7.56	48	-6.7	76	-10.2	0	0	1020.8	NA	0.0000		9999	0	0	0	0
2019/05/31 04:48:00	BASE	6.96	45	7.56	48	-6.7	76	-10.2	0	0	1020.8	NA	0.0000		9999	0	0	0	0
2019/05/31 04:49:00	BASE	7.07	43	7.67	42	-6.7	76	-10.2	0	0	1020.8	NA	0.0000		9999	0	0	0	0
2019/05/31 04:50:00	BASE	7.02	43	7.67	42	-6.7	76	-10.1	0	0	1020.8	NA	0.0000		9999	0	0	0	0
2019/05/31 04:51:00	BASE	7.15	44	7.72	50	-6.7	76	-10.1	0	0	1020.8	NA	0.0000		9999	0	0	0	0
2019/05/31 04:52:00	BASE	7.19	44	7.72	50	-6.7	77	-10.1	0	0	1020.8	NA	0.0000		9999	0	0	0	0
2019/05/31 04:53:00	BASE	7.09	42	7.72	41	-6.7	77	-10.0	0	0	1020.8	NA	0.0000		9999	0	0	0	0
2019/05/31 04:54:00	BASE	7.11	42	7.72	41	-6.7	77	-10.1	0	0	1020.8	NA	0.0000		9999	0	0	0	0
2019/05/31 04:55:00	BASE	7.25	41	7.87	35	-6.7	77	-10.1	0	0	1020.8	NA	0.0000		9999	0	0	0	0
2019/05/31 04:56:00	BASE	7.40	41	7.87	35	-6.7	77	-10.0	0	0	1020.8	NA	0.0000		9999	0	0	0	0
2019/05/31 04:57:00	BASE	7.42	41	7.87	35	-6.7	77	-10.0	0	0	1020.8	NA	0.0000		9999	0	0	0	0
2019/05/31 04:58:00	BASE	7.39	41	8.03	43	-6.7	77	-10.0	0	0	1020.8	NA	0.0000		9999	0	0	0	0
2019/05/31 04:59:00	BASE	7.49	43	8.18	47	-6.7	77	-10.0	0	0	1020.8	NA	0.0000		9999	0	0	0	0
2019/05/31 05:00:00	BASE	7.50	43	8.18	47	-6.7	77	-10.0	0	0	1020.8	NA	0.0000		9999	0	0	0	0
2019/05/31 05:01:00	BASE	7.32	42	8.18	47	-6.7	77	-10.0	0	0	1020.9	NA	0.0000		9999	0	0	0	0
2019/05/31 05:02:00	BASE	7.28	38	8.18	42	-6.6	77	-10.0	0	0	1020.9	NA	0.0000		9999	0	0	0	0
2019/05/31 05:03:00	BASE	7.08	36	8.18	42	-6.6	77	-9.9	0	0	1020.9	NA	0.0000		9999	0	0	0	0
2019/05/31 05:04:00	BASE	7.16	37	8.18	42	-6.5	77	-9.9	0	0	1020.9	NA	0.0000		9999	0	0	0	0
2019/05/31 05:05:00	BASE	7.27	38	8.18	42	-6.5	77	-9.8	0	0	1020.9	NA	0.0000		9999	0	0	0	0
2019/05/31 05:06:00	BASE	7.25	38	8.18	42	-6.5	77	-9.8	0	0	1020.9	NA	0.0000		9999	0	0	0	0
2019/05/31 05:07:00	BASE	7.33	38	8.18	42	-6.5	77	-9.8	0	0	1020.9	NA	0.0000		9999	0	0	0	0
2019/05/31 05:08:00	BASE	7.30	39	8.18	42	-6.5	77	-9.9	0	0	1020.9	NA	0.0000		9999	0	0	0	0
2019/05/31 05:09:00	BASE	7.42	38	8.18	42	-6.5	77	-9.9	0	0	1020.9	NA	0.0000		9999	0	0	0	0
2019/05/31 05:10:00	BASE	7.54	36	8.18	42	-6.5	77	-9.9	0	0	1020.9	NA	0.0000		9999	0	0	0	0
2019/05/31 05:11:00	BASE	7.61	35	8.18	38	-6.6	77	-9.9	0	0	1020.9	NA	0.0000		9999	0	0	0	0
2019/05/31 05:12:00	BASE	7.44	33	8.18	38	-6.5	77	-9.9	0	0	1020.9	NA	0.0000		9999	0	0	0	0
2019/05/31 05:13:00	BASE	7.18	34	8.18	38	-6.5	77	-9.9	0	0	1020.9	NA	0.0000		9999	0	0	0	0
2019/05/31 05:14:00	BASE	7.27	36	8.18	38	-6.5	77	-9.8	0	0	1020.9	NA	0.0000		9999	0	0	0	0
2019/05/31 05:15:00	BASE	7.15	35	8.18	38	-6.5	77	-9.8	0	0	1020.9	NA	0.0000		9999	0	0	0	0
2019/05/31 05:16:00	BASE	6.99	34	8.18	38	-6.4	77	-9.8	0	0	1020.9	NA	0.0000		9999	0	0	0	0
2019/05/31 05:17:00	BASE	7.08	33	8.18	38	-6.4	77	-9.7	0	0	1020.9	NA	0.0000		9999	0	0	0	0
2019/05/31 05:18:00	BASE	7.21	32	8.18	38	-6.4	77	-9.7	0	0	1020.9	NA	0.0000		9999	0	0	0	0
2019/05/31 05:19:00	BASE	7.37	33	8.18	38	-6.3	77	-9.7	0	0	1020.9	NA	0.0000		9999	0	0	0	0
2019/05/31 05:20:00	BASE	7.36	31	8.18	38	-6.3	77	-9.7	0	0	1020.9	NA	0.0000		9999	0	0	0	0
2019/05/31 05:21:00	BASE	7.32	31	7.97	35	-6.3	77	-9.6	0	0	1020.9	NA	0.0000		9999	0	0	0	0
2019/05/31 05:22:00	BASE	7.35	32	8.08	26	-6.3	77	-9.6	0	0	1021.0	NA	0.0000		9999	0	0	0	0
2019/05/31 05:23:00	BASE	7.49	31	8.08	26	-6.3	77	-9.7	0	0	1021.0	NA	0.0000		9999	0	0	0	0
2019/05/31 05:24:00	BASE	7.41	32	8.08	26	-6.3	77	-9.6	0	0	1021.0	NA	0.0000		9999	0	0	0	0
2019/05/31 05:25:00	BASE	7.35	33	8.08	26	-6.3	77	-9.6	0	0	1021.1	NA	0.0000		9999	0	0	0	0
2019/05/31 05:26:00	BASE	7.48	34	8.18	32	-6.3	77	-9.6	0	0	1021.1	NA	0.0000		9999	0	0	0	0
2019/05/31 05:27:00	BASE	7.64	32	8.49	32	-6.3	77	-9.7	0	0	1021.1	NA	0.0000		9999	0	0	0	0
2019/05/31 05:28:00	BASE	7.51	32	8.49	32	-6.3	77	-9.7	0	0	1021.1	NA	0.0000		9999	0	0	0	0
2019/05/31 05:29:00	BASE	7.39	32	8.49	32	-6.4	77	-9.7	0	0	1021.1	NA	0.0000		9999	0	0	0	0
2019/05/31 05:30:00	BASE	7.62	31	8.49	32	-6.4	77	-9.8	0	0	1021.1	NA	0.0000		9999	0	0	0	0
2019/05/31 05:31:00	BASE	7.68	31	8.49	32	-6.4	77	-9.8	0	0	1021.1	NA	0.0000		9999	0	0	0	0
2019/05/31 05:32:00	BASE	7.53	31	8.49	32	-6.4	77	-9.8	0	0	1021.1	NA	0.0000		9999	0	0	0	0
2019/05/31 05:33:00	BASE	7.50	32	8.49	32	-6.4	77	-9.8	0	0	1021.1	NA	0.0000		9999	0	0	0	0
2019/05/31 05:34:00	BASE	7.71	33	8.49	32	-6.4	77	-9.8	0	0	1021.1	NA	0.0000		9999	0	0	0	0
2019/05/31 05:35:00	BASE	7.61	35	8.49	32	-6.5	77	-9.9	0	0	1021.1	NA	0.0000		9999	0	0	0	0
2019/05/31 05:36:00	BASE	7.36	35	8.49	32	-6.5	76	-10.0	0	0	1021.1	NA	0.0000		9999	0	0	0	0
2019/05/31 05:37:00	BASE	7.26	34	8.18	37	-6.5	76	-10.0	0	0	1021.1	NA	0.0000		9999	0	0	0	0
2019/05/31 05:38:00	BASE	7.35	35	8.18	37	-6.5	76	-10.1	0	0	1021.1	NA	0.0000		9999	0	0	0	0
2019/05/31 05:39:00	BASE	7.43	35	8.18	37	-6.5	76	-10.0	0	0	1021.1	NA	0.0000		9999	0	0	0	0
2019/05/31 05:40:00	BASE	7.26	34	8.18	37	-6.5	76	-10.0	0	0	1021.1	NA	0.0000		9999	0	0	0	0
2019/05/31 05:41:00	BASE	7.38	35	8.18	37	-6.5	76	-10.0	0	0	1021.1	NA	0.0000		9999	0	0	0	0
2019/05/31 05:42:00	BASE	7.49	34	8.28	35	-6.5	76	-10.0	0	0	1021.2	NA	0.0000		9999	0	0	0	0
2019/05/31 05:43:00	BASE	7.24	32	8.28	35	-6.5	76	-10.0	0	0	1021.2	NA	0.0000		9999	0	0	0	0
2019/05/31 05:44:00	BASE	7.15	31	8.28	35	-6.5	76	-10.0	0	0	1021.1	NA	0.0000		9999	0	0	0	0
2019/05/31 05:45:00	BASE	7.10	31	8.28	35	-6.4	76	-10.0	0	0	1021.2	NA	0.0000		9999	0	0	0	0
2019/05/31 05:46:00	BASE	6.53	33	8.28	35	-6.4	76	-9.9	0	0	1021.3	NA	0.0000		9999	0	0	0	0
2019/05/31 05:47:00	BASE	6.48	34	8.28	35	-6.3	76	-9.8	0	0	1021.2	NA	0.0000		9999	0	0	0	0
2019/05/31 05:48:00	BASE	6.64	33	8.28	35	-6.3	76	-9.8	0	0	1021.3	NA	0.0000		9999	0	0	0	0
2019/05/31 05:49:00	BASE	6.69	33	8.28	35	-6.3	77	-9.7	0	0	1021.3	NA	0.0000		9999	0	0	0	0
2019/05/31 05:50:00	BASE	6.93	33	8.28	35	-6.3	77	-9.7	0	0	1021.3	NA	0.0000		9999	0	0	0	0
2019/05/31 05:51:00	BASE	6.67	34	8.28	35	-6.3	76	-9.8	0	0	1021.3	NA	0.0000		9999	0	0	0	0
2019/05/31 05:52:00	BASE	6.50	32	7.82	35	-6.3	76	-9.8	0	0	1021.3	NA	0.0000		9999	0	0	0	0
2019/05/31 05:53:00	BASE	6.13	30	7.82	35	-6.3	76	-9.8	0	0	1021.3	NA	0.0000		9999	0	0	0	0
2019/05/31 05:54:00	BASE	5.73	31	7.82	35	-6.3	76	-9.8	0	0	1021.3	NA	0.0000		9999	0	0	0	0
2019/05/31 05:55:00	BASE	5.70	33	7.82	35	-6.2	76	-9.8	0	0	1021.3	NA	0.0000		9999	0	0	0	0
2019/05/31 05:56:00	BASE	5.59	33	7.82	35	-6.2	76	-9.7	0	0	1021.3	NA	0.0000		9999	0	0	0	0
2019/05/31 05:57:00	BASE	5.70	33	7.82	35	-6.1	76	-9.7	0	0	1021.3	NA	0.0000		9999	0	0	0	0
2019/05/31 05:58:00	BASE	5.93	33	7.82	35	-6.1	76	-9.7	0	0	1021.3	NA	0.0000		9999	0	0	0	0
2019/05/31 05:59:00	BASE	5.63	31	7.20	29	-6.1	76	-9.7	0	0	1021.3	NA	0.0000		9999	0	0	0	0
2019/05/31 06:00:00	BASE	5.50	32	7.10	36	-6.1	76	-9.7	0	0	1021.3	NA	0.0000		9999	0	0	0	0
2019/05/31 06:01:00	BASE	5.89	34	7.05	36	-6.2	76	-9.7	0	0	1021.3	NA	0.0000		9999	0	0	0	0
2019/05/31 06:02:00	BASE	6.16	34	6.74	32	-6.2	76	-9.7	0	0	1021.3	NA	0.0000		9999	0	0	0	0
2019/05/31 06:03:00	BASE	6.33	35	7.25	33	-6.2	76	-9.8	0	0	1021.3	NA	0.0000		9999	0	0	0	0
2019/05/31 06:04:00	BASE	6.38	34	7.25	33	-6.2	75	-9.9	0	0	1021.4	NA	0.0000		9999	0	0	0	0
2019/05/31 06:05:00	BASE	6.35	32	7.25	33	-6.2	75	-9.9	0	0	1021.4	NA	0.0000		9999	0	0	0	0
2019/05/31 06:06:00	BASE	6.31	34	7.25	33	-6.2	75	-9.9	0	0	1021.4	NA	0.0000		9999	0	0	0	0
2019/05/31 06:07:00	BASE	6.31	35	7.25	33	-6.2	76	-9.8	0	0	1021.4	NA	0.0000		9999	0	0	0	0
2019/05/31 06:08:00	BASE	6.61	35	7.31	36	-6.2	76	-9.8	0	0	1021.4	NA	0.0000		9999	0	0	0	0
2019/05/31 06:09:00	BASE	6.84	37	7.31	36	-6.2	76	-9.8	0	0	1021.4	NA	0.0000		9999	0	0	0	0
2019/05/31 06:10:00	BASE	6.84	38	7.56	39	-6.2	75	-9.9	0	0	1021.4	NA	0.0000		9999	0	0	0	0
2019/05/31 06:11:00	BASE	6.87	40	7.61	38	-6.3	75	-10.0	0	0	1021.4	NA	0.0000		9999	0	0	0	0
2019/05/31 06:12:00	BASE	7.03	42	7.61	38	-6.4	75	-10.1	0	0	1021.4	NA	0.0000		9999	0	0	0	0
2019/05/31 06:13:00	BASE	7.00	40	7.61	38	-6.4	75	-10.1	0	0	1021.5	NA	0.0000		9999	0	0	0	0
2019/05/31 06:14:00	BASE	6.69	39	7.61	38	-6.5	75	-10.2	0	0	1021.5	NA	0.0000		9999	0	0	0	0
2019/05/31 06:15:00	BASE	6.54	40	7.61	38	-6.5	75	-10.2	0	0	1021.5	NA	0.0000		9999	0	0	0	0
2019/05/31 06:16:00	BASE	6.66	41	7.61	38	-6.5	75	-10.2	0	0	1021.5	NA	0.0000		9999	0	0	0	0
2019/05/31 06:17:00	BASE	6.53	40	7.61	38	-6.4	75	-10.2	0	0	1021.5	NA	0.0000		9999	0	0	0	0
2019/05/31 06:18:00	BASE	5.94	39	7.61	38	-6.4	75	-10.2	0	0	1021.5	NA	0.0000		9999	0	0	0	0
2019/05/31 06:19:00	BASE	5.77	39	7.61	38	-6.4	75	-10.1	0	0	1021.5	NA	0.0000		9999	0	0	0	0
2019/05/31 06:20:00	BASE	5.99	38	7.61	38	-6.4	74	-10.2	0	0	1021.5	NA	0.0000		9999	0	0	0	0
2019/05/31 06:21:00	BASE	5.86	38	7.51	48	-6.4	75	-10.1	0	0	1021.5	NA	0.0000		9999	0	0	0	0
2019/05/31 06:22:00	BASE	5.70	37	7.41	40	-6.3	75	-10.1	0	0	1021.5	NA	0.0000		9999	0	0	0	0
2019/05/31 06:23:00	BASE	5.54	35	7.20	42	-6.3	75	-10.0	0	0	1021.5	NA	0.0000		9999	0	0	0	0
2019/05/31 06:24:00	BASE	5.25	33	7.20	42	-6.3	75	-10.0	0	0	1021.5	NA	0.0000		9999	0	0	0	0
2019/05/31 06:25:00	BASE	5.31	33	7.20	42	-6.2	75	-9.9	0	0	1021.5	NA	0.0000		9999	0	0	0	0
2019/05/31 06:26:00	BASE	5.49	40	6.84	39	-6.1	75	-9.9	0	0	1021.5	NA	0.0000		9999	0	0	0	0
2019/05/31 06:27:00	BASE	5.68	42	6.58	34	-6.1	75	-9.9	0	0	1021.5	NA	0.0000		9999	0	0	0	0
2019/05/31 06:28:00	BASE	5.80	42	6.58	34	-6.2	74	-10.0	0	0	1021.6	NA	0.0000		9999	0	0	0	0
2019/05/31 06:29:00	BASE	5.84	45	6.58	34	-6.2	74	-10.1	0	0	1021.6	NA	0.0000		9999	0	0	0	0
2019/05/31 06:30:00	BASE	5.92	48	6.69	51	-6.3	74	-10.2	0	0	1021.6	NA	0.0000		9999	0	0	0	0
2019/05/31 06:31:00	BASE	5.90	52	6.69	51	-6.4	74	-10.3	0	0	1021.7	NA	0.0000		9999	0	0	0	0
2019/05/31 06:32:00	BASE	5.69	54	6.69	51	-6.5	74	-10.4	0	0	1021.7	NA	0.0000		9999	0	0	0	0
2019/05/31 06:33:00	BASE	5.39	57	6.69	51	-6.5	74	-10.4	0	0	1021.7	NA	0.0000		9999	0	0	0	0
2019/05/31 06:34:00	BASE	5.29	56	6.69	51	-6.5	74	-10.4	0	0	1021.7	NA	0.0000		9999	0	0	0	0
2019/05/31 06:35:00	BASE	5.66	55	6.69	51	-6.5	74	-10.5	0	0	1021.7	NA	0.0000		9999	0	0	0	0
2019/05/31 06:36:00	BASE	5.92	55	6.69	51	-6.5	73	-10.5	0	0	1021.7	NA	0.0000		9999	0	0	0	0
2019/05/31 06:37:00	BASE	5.76	54	6.69	51	-6.5	73	-10.5	0	0	1021.7	NA	0.0000		9999	0	0	0	0
2019/05/31 06:38:00	BASE	5.67	55	6.69	51	-6.5	73	-10.6	0	0	1021.7	NA	0.0000		9999	0	0	0	0
2019/05/31 06:39:00	BASE	5.44	61	6.69	51	-6.5	73	-10.6	0	0	1021.7	NA	0.0000		9999	0	0	0	0
2019/05/31 06:40:00	BASE	5.47	63	6.69	51	-6.4	72	-10.6	0	0	1021.7	NA	0.0000		9999	0	0	0	0
2019/05/31 06:41:00	BASE	5.91	60	6.69	51	-6.4	72	-10.6	0	0	1021.7	NA	0.0000		9999	0	0	0	0
2019/05/31 06:42:00	BASE	6.08	59	7.00	60	-6.4	72	-10.7	0	0	1021.7	NA	0.0000		9999	0	0	0	0
2019/05/31 06:43:00	BASE	5.55	62	7.00	60	-6.3	71	-10.7	0	0	1021.7	NA	0.0000		9999	0	0	0	0
2019/05/31 06:44:00	BASE	5.34	62	7.00	60	-6.3	71	-10.8	0	0	1021.7	NA	0.0000		9999	0	0	0	0
2019/05/31 06:45:00	BASE	5.95	60	7.00	60	-6.4	70	-10.9	0	0	1021.7	NA	0.0000		9999	0	0	0	0
2019/05/31 06:46:00	BASE	6.01	61	7.00	60	-6.4	70	-10.9	0	0	1021.8	NA	0.0000		9999	0	0	0	0
2019/05/31 06:47:00	BASE	5.64	62	7.00	60	-6.4	70	-11.0	0	0	1021.8	NA	0.0000		9999	0	0	0	0
2019/05/31 06:48:00	BASE	5.71	62	7.00	60	-6.5	70	-11.0	0	0	1021.8	NA	0.0000		9999	0	0	0	0
2019/05/31 06:49:00	BASE	5.96	62	7.00	60	-6.5	70	-11.1	0	0	1021.8	NA	0.0000		9999	0	0	0	0
2019/05/31 06:50:00	BASE	5.91	61	7.00	60	-6.5	70	-11.0	0	0	1021.8	NA	0.0000		9999	0	0	0	0
2019/05/31 06:51:00	BASE	5.29	64	7.00	60	-6.5	70	-11.0	0	0	1021.8	NA	0.0000		9999	0	0	0	0
2019/05/31 06:52:00	BASE	5.07	67	6.74	60	-6.4	70	-11.0	0	0	1021.9	NA	0.0000		9999	0	0	0	0
2019/05/31 06:53:00	BASE	5.50	65	6.74	60	-6.4	70	-11.1	0	0	1021.8	NA	0.0000		9999	0	0	0	0
2019/05/31 06:54:00	BASE	5.57	64	6.74	60	-6.4	69	-11.1	0	0	1021.9	NA	0.0000		9999	0	0	0	0
2019/05/31 06:55:00	BASE	5.44	64	6.58	61	-6.4	69	-11.1	0	0	1021.9	NA	0.0000		9999	0	0	0	0
2019/05/31 06:56:00	BASE	5.28	62	6.58	61	-6.4	69	-11.2	0	0	1021.9	NA	0.0000		9999	0	0	0	0
2019/05/31 06:57:00	BASE	5.29	61	6.58	61	-6.4	69	-11.2	0	0	1021.9	NA	0.0000		9999	0	0	0	0
2019/05/31 06:58:00	BASE	5.59	60	6.53	64	-6.4	69	-11.2	0	0	1021.8	NA	0.0000		9999	0	0	0	0
2019/05/31 06:59:00	BASE	5.86	59	7.05	52	-6.5	69	-11.2	0	0	1021.8	NA	0.0000		9999	0	0	0	0
2019/05/31 07:00:00	BASE	5.86	60	7.05	52	-6.5	69	-11.2	0	0	1021.8	NA	0.0000		9999	0	0	0	0
2019/05/31 07:01:00	BASE	5.89	60	7.05	52	-6.5	69	-11.2	0	0	1021.9	NA	0.0000		9999	0	0	0	0
2019/05/31 07:02:00	BASE	5.87	60	7.05	52	-6.5	69	-11.2	0	0	1021.9	NA	0.0000		9999	0	0	0	0
2019/05/31 07:03:00	BASE	5.79	61	7.05	52	-6.5	69	-11.3	0	0	1021.9	NA	0.0000		9999	0	0	0	0
2019/05/31 07:04:00	BASE	5.37	61	7.05	52	-6.5	69	-11.3	0	0	1021.9	NA	0.0000		9999	0	0	0	0
2019/05/31 07:05:00	BASE	5.30	58	7.05	52	-6.5	69	-11.3	0	0	1021.9	NA	0.0000		9999	0	0	0	0
2019/05/31 07:06:00	BASE	6.02	53	7.05	52	-6.6	69	-11.3	0	0	1021.9	NA	0.0000		9999	0	0	0	0
2019/05/31 07:07:00	BASE	6.60	52	7.10	56	-6.6	69	-11.3	0	0	1021.9	NA	0.0000		9999	0	0	0	0
2019/05/31 07:08:00	BASE	6.56	54	7.10	56	-6.6	69	-11.3	0	0	1021.9	NA	0.0000		9999	0	0	0	0
2019/05/31 07:09:00	BASE	6.07	55	7.10	56	-6.7	69	-11.3	0	0	1021.9	NA	0.0000		9999	0	0	0	0
2019/05/31 07:10:00	BASE	5.87	52	7.10	56	-6.7	70	-11.3	0	0	1022.0	NA	0.0000		9999	0	0	0	0
2019/05/31 07:11:00	BASE	6.04	45	7.10	56	-6.7	70	-11.3	0	0	1022.0	NA	0.0000		9999	0	0	0	0
2019/05/31 07:12:00	BASE	6.10	42	7.10	56	-6.7	70	-11.2	0	0	1022.0	NA	0.0000		9999	0	0	0	0
2019/05/31 07:13:00	BASE	6.34	40	7.10	56	-6.7	70	-11.2	0	0	1022.0	NA	0.0000		9999	0	0	0	0
2019/05/31 07:14:00	BASE	6.50	39	7.10	56	-6.6	70	-11.1	0	0	1022.0	NA	0.0000		9999	0	0	0	0
2019/05/31 07:15:00	BASE	6.12	38	7.10	56	-6.6	71	-11.0	0	0	1022.0	NA	0.0000		9999	0	0	0	0
2019/05/31 07:16:00	BASE	5.95	39	7.10	56	-6.5	71	-10.9	0	0	1022.0	NA	0.0000		9999	0	0	0	0
2019/05/31 07:17:00	BASE	5.86	39	6.94	34	-6.4	71	-10.8	0	0	1022.0	NA	0.0000		9999	0	0	0	0
2019/05/31 07:18:00	BASE	5.81	39	6.94	34	-6.4	71	-10.8	0	0	1022.0	NA	0.0000		9999	0	0	0	0
2019/05/31 07:19:00	BASE	6.12	39	6.94	34	-6.3	71	-10.7	0	0	1022.0	NA	0.0000		9999	0	0	0	0
2019/05/31 07:20:00	BASE	6.15	40	7.00	38	-6.3	71	-10.7	0	0	1022.0	NA	0.0000		9999	0	0	0	0
2019/05/31 07:21:00	BASE	6.16	38	7.00	38	-6.2	71	-10.6	0	0	1022.0	NA	0.0000		9999	0	0	0	0
2019/05/31 07:22:00	BASE	6.31	37	7.00	38	-6.2	71	-10.6	0	0	1022.0	NA	0.0000		9999	0	0	0	0
2019/05/31 07:23:00	BASE	6.37	35	7.25	32	-6.1	70	-10.6	0	0	1022.0	NA	0.0000		9999	0	0	0	0
2019/05/31 07:24:00	BASE	6.35	34	7.25	32	-6.1	70	-10.7	0	0	1022.0	NA	0.0000		9999	0	0	0	0
2019/05/31 07:25:00	BASE	6.30	33	7.25	32	-6.1	70	-10.7	0	0	1022.0	NA	0.0000		9999	0	0	0	0
2019/05/31 07:26:00	BASE	6.25	32	7.25	32	-6.0	69	-10.7	0	0	1022.0	NA	0.0000		9999	0	0	0	0
2019/05/31 07:27:00	BASE	6.32	31	7.25	32	-6.0	69	-10.7	0	0	1021.9	NA	0.0000		9999	0	0	0	0
2019/05/31 07:28:00	BASE	6.27	28	7.25	32	-5.9	69	-10.8	0	0	1021.9	NA	0.0000		9999	0	0	0	0
2019/05/31 07:29:00	BASE	5.97	28	7.25	32	-5.9	68	-10.8	0	0	1021.9	NA	0.0000		9999	0	0	0	0
2019/05/31 07:30:00	BASE	5.87	31	7.25	32	-5.8	68	-10.8	0	0	1021.9	NA	0.0000		9999	0	0	0	0
2019/05/31 07:31:00	BASE	6.03	32	7.25	32	-5.8	68	-10.8	0	0	1021.9	NA	0.0000		9999	0	0	0	0
2019/05/31 07:32:00	BASE	6.11	31	7.25	32	-5.8	68	-10.8	0	0	1021.9	NA	0.0000		9999	0	0	0	0
2019/05/31 07:33:00	BASE	6.08	33	7.10	30	-5.8	68	-10.9	0	0	1021.9	NA	0.0000		9999	0	0	0	0
2019/05/31 07:34:00	BASE	6.06	35	7.10	30	-5.9	67	-10.9	0	0	1021.9	NA	0.0000		9999	0	0	0	0
2019/05/31 07:35:00	BASE	6.07	34	7.10	30	-5.9	67	-11.0	0	0	1021.9	NA	0.0000		9999	0	0	0	0
2019/05/31 07:36:00	BASE	6.04	34	7.10	30	-5.9	67	-11.0	0	0	1021.9	NA	0.0000		9999	0	0	0	0
2019/05/31 07:37:00	BASE	6.00	34	7.00	29	-5.9	67	-11.0	0	0	1021.9	NA	0.0000		9999	0	0	0	0
2019/05/31 07:38:00	BASE	6.03	32	6.69	20	-5.9	67	-11.0	0	0	1021.9	NA	0.0000		9999	0	0	0	0
2019/05/31 07:39:00	BASE	5.91	32	6.69	20	-5.9	67	-11.0	0	0	1021.9	NA	0.0000		9999	0	0	0	0
2019/05/31 07:40:00	BASE	5.75	34	6.69	20	-5.9	67	-11.0	0	0	1021.9	NA	0.0000		9999	0	0	0	0
2019/05/31 07:41:00	BASE	5.69	35	6.69	20	-5.9	67	-11.0	0	0	1021.9	NA	0.0000		9999	0	0	0	0
2019/05/31 07:42:00	BASE	5.74	34	6.69	20	-5.9	67	-10.9	0	0	1021.9	NA	0.0000		9999	0	0	0	0
2019/05/31 07:43:00	BASE	5.78	32	6.69	20	-5.9	68	-10.9	0	0	1021.9	NA	0.0000		9999	0	0	0	0
2019/05/31 07:44:00	BASE	5.81	34	6.69	20	-5.9	68	-10.9	0	0	1021.9	NA	0.0000		9999	0	0	0	0
2019/05/31 07:45:00	BASE	5.75	35	6.69	20	-5.9	68	-10.8	0	0	1021.9	NA	0.0000		9999	0	0	0	0
2019/05/31 07:46:00	BASE	5.77	35	6.69	20	-5.9	68	-10.8	0	0	1021.9	NA	0.0000		9999	0	0	0	0
2019/05/31 07:47:00	BASE	5.74	33	6.69	20	-5.9	68	-10.9	0	0	1021.9	NA	0.0000		9999	0	0	0	0
2019/05/31 07:48:00	BASE	5.53	30	6.53	33	-5.9	68	-10.8	0	0	1021.9	NA	0.0000		9999	0	0	0	0
2019/05/31 07:49:00	BASE	5.25	29	6.53	33	-5.9	69	-10.7	0	0	1021.9	NA	0.0000		9999	0	0	0	0
2019/05/31 07:50:00	BASE	5.32	29	6.53	33	-5.9	68	-10.8	0	0	1021.9	NA	0.0000		9999	0	0	0	0
2019/05/31 07:51:00	BASE	5.39	30	6.53	33	-5.9	68	-10.8	0	0	1021.9	NA	0.0000		9999	0	0	0	0
2019/05/31 07:52:00	BASE	5.45	33	6.53	33	-5.9	68	-10.7	0	0	1021.9	NA	0.0000		9999	0	0	0	0
2019/05/31 07:53:00	BASE	5.53	34	6.53	33	-5.8	68	-10.8	0	0	1021.9	NA	0.0000		9999	0	0	0	0
2019/05/31 07:54:00	BASE	5.18	34	6.53	33	-5.9	68	-10.8	0	0	1021.9	NA	0.0000		9999	0	0	0	0
2019/05/31 07:55:00	BASE	5.10	34	6.53	33	-5.9	68	-10.9	0	0	1022.0	NA	0.0000		9999	0	0	0	0
2019/05/31 07:56:00	BASE	5.01	38	6.33	35	-6.0	68	-10.9	0	0	1022.0	NA	0.0000		9999	0	0	0	0
2019/05/31 07:57:00	BASE	5.00	42	6.33	35	-6.1	68	-11.1	0	0	1022.0	NA	0.0000		9999	0	0	0	0
2019/05/31 07:58:00	BASE	5.22	39	6.33	35	-6.2	68	-11.1	0	0	1022.0	NA	0.0000		9999	0	0	0	0
2019/05/31 07:59:00	BASE	5.59	38	6.94	40	-6.3	68	-11.2	0	0	1022.0	NA	0.0000		9999	0	0	0	0
2019/05/31 08:00:00	BASE	5.76	41	6.94	40	-6.4	69	-11.2	0	0	1022.0	NA	0.0000		9999	0	0	0	0
2019/05/31 08:01:00	BASE	5.50	42	6.94	40	-6.4	69	-11.2	0	0	1022.0	NA	0.0000		9999	0	0	0	0
2019/05/31 08:02:00	BASE	5.47	40	6.94	40	-6.4	70	-11.1	0	0	1022.0	NA	0.0000		9999	0	0	0	0
2019/05/31 08:03:00	BASE	5.52	35	6.94	40	-6.4	70	-11.0	0	0	1022.0	NA	0.0000		9999	0	0	0	0
2019/05/31 08:04:00	BASE	5.20	35	6.94	40	-6.4	70	-10.9	0	0	1022.0	NA	0.0000		9999	0	0	0	0
2019/05/31 08:05:00	BASE	5.02	40	6.94	40	-6.3	70	-10.9	0	0	1022.0	NA	0.0000		9999	0	0	0	0
2019/05/31 08:06:00	BASE	5.49	45	6.94	40	-6.3	70	-10.9	0	0	1022.0	NA	0.0000		9999	0	0	0	0
2019/05/31 08:07:00	BASE	5.81	51	6.94	40	-6.4	70	-10.9	0	0	1022.0	NA	0.0000		9999	0	0	0	0
2019/05/31 08:08:00	BASE	5.85	51	6.94	40	-6.4	70	-10.9	0	0	1022.0	NA	0.0000		9999	0	0	0	0
2019/05/31 08:09:00	BASE	5.59	52	6.53	47	-6.5	70	-11.0	0	0	1022.0	NA	0.0000		9999	0	0	0	0
2019/05/31 08:10:00	BASE	5.32	56	6.53	47	-6.5	70	-11.1	0	0	1022.0	NA	0.0000		9999	0	0	0	0
2019/05/31 08:11:00	BASE	5.30	59	6.53	47	-6.5	70	-11.1	0	0	1022.0	NA	0.0000		9999	0	0	0	0
2019/05/31 08:12:00	BASE	5.39	56	6.28	50	-6.5	70	-11.1	0	0	1022.0	NA	0.0000		9999	0	0	0	0
2019/05/31 08:13:00	BASE	5.61	52	6.28	50	-6.4	69	-11.1	0	0	1022.0	NA	0.0000		9999	0	0	0	0
2019/05/31 08:14:00	BASE	5.67	52	6.28	50	-6.4	69	-11.2	0	0	1022.0	NA	0.0000		9999	0	0	0	0
2019/05/31 08:15:00	BASE	5.62	53	6.28	50	-6.4	69	-11.2	0	0	1022.0	NA	0.0000		9999	0	0	0	0
2019/05/31 08:16:00	BASE	5.55	55	6.28	62	-6.4	69	-11.2	0	0	1022.1	NA	0.0000		9999	0	0	0	0
2019/05/31 08:17:00	BASE	5.50	62	6.28	62	-6.5	69	-11.3	0	0	1022.1	NA	0.0000		9999	0	0	0	0
2019/05/31 08:18:00	BASE	5.32	63	6.53	57	-6.5	69	-11.3	0	0	1022.1	NA	0.0000		9999	0	0	0	0
2019/05/31 08:19:00	BASE	5.28	59	6.53	57	-6.5	68	-11.4	0	0	1022.1	NA	0.0000		9999	0	0	0	0
2019/05/31 08:20:00	BASE	5.42	55	6.53	57	-6.4	68	-11.4	0	0	1022.1	NA	0.0000		9999	0	0	0	0
2019/05/31 08:21:00	BASE	5.46	53	6.53	57	-6.4	68	-11.4	0	0	1022.1	NA	0.0000		9999	0	0	0	0
2019/05/31 08:22:00	BASE	5.24	52	6.53	57	-6.4	68	-11.4	0	0	1022.1	NA	0.0000		9999	0	0	0	0
2019/05/31 08:23:00	BASE	5.08	49	6.53	57	-6.4	68	-11.4	0	0	1022.1	NA	0.0000		9999	0	0	0	0
2019/05/31 08:24:00	BASE	4.79	54	6.53	57	-6.4	68	-11.3	0	0	1022.1	NA	0.0000		9999	0	0	0	0
2019/05/31 08:25:00	BASE	4.56	51	6.53	57	-6.4	68	-11.3	0	0	1022.1	NA	0.0000		9999	0	0	0	0
2019/05/31 08:26:00	BASE	4.39	36	6.53	57	-6.4	68	-11.3	0	0	1022.2	NA	0.0000		9999	0	0	0	0
2019/05/31 08:27:00	BASE	4.36	33	6.53	57	-6.4	68	-11.3	0	0	1022.2	NA	0.0000		9999	0	0	0	0
2019/05/31 08:28:00	BASE	4.34	37	6.17	55	-6.5	69	-11.3	0	0	1022.2	NA	0.0000		9999	0	0	0	0
2019/05/31 08:29:00	BASE	3.78	35	6.17	55	-6.5	69	-11.2	0	0	1022.2	NA	0.0000		9999	0	0	0	0
2019/05/31 08:30:00	BASE	3.67	28	6.17	55	-6.6	70	-11.2	0	0	1022.2	NA	0.0000		9999	0	0	0	0
2019/05/31 08:31:00	BASE	4.10	23	6.17	55	-6.6	70	-11.2	0	0	1022.2	NA	0.0000		9999	0	0	0	0
2019/05/31 08:32:00	BASE	4.40	28	6.17	55	-6.5	70	-11.1	0	0	1022.2	NA	0.0000		9999	0	0	0	0
2019/05/31 08:33:00	BASE	4.07	30	5.81	33	-6.5	70	-11.1	0	0	1022.2	NA	0.0000		9999	0	0	0	0
2019/05/31 08:34:00	BASE	3.89	24	5.81	33	-6.4	69	-11.1	0	0	1022.2	NA	0.0000		9999	0	0	0	0
2019/05/31 08:35:00	BASE	4.11	22	5.71	30	-6.4	69	-11.1	0	0	1022.2	NA	0.0000		9999	0	0	0	0
2019/05/31 08:36:00	BASE	4.32	25	5.71	30	-6.3	69	-11.1	0	0	1022.2	NA	0.0000		9999	0	0	0	0
2019/05/31 08:37:04	BASE	4.42	24	5.61	12	-6.3	69	-11.0	0	0	1022.2	NA	0.0000		9999	0	0	0	0
2019/05/31 08:38:00	BASE	4.54	25	5.61	12	-6.2	69	-11.0	0	0	1022.2	NA	0.0000		9999	0	0	0	0
2019/05/31 08:39:00	BASE	5.01	29	5.92	27	-6.1	68	-11.0	0	0	1022.2	NA	0.0000		9999	0	0	0	0
2019/05/31 08:40:00	BASE	5.27	24	5.92	27	-6.0	68	-11.0	0	0	1022.2	NA	0.0000		9999	0	0	0	0
2019/05/31 08:41:00	BASE	5.22	23	5.92	27	-5.9	68	-10.9	0	0	1022.2	NA	0.0000		9999	0	0	0	0
2019/05/31 08:42:00	BASE	4.93	21	6.22	20	-5.9	67	-11.0	0	0	1022.2	NA	0.0000		9999	0	0	0	0
2019/05/31 08:43:00	BASE	5.17	18	6.22	20	-5.8	67	-10.9	0	0	1022.2	NA	0.0000		9999	0	0	0	0
2019/05/31 08:44:00	BASE	5.39	15	6.22	20	-5.7	67	-10.9	0	0	1022.2	NA	0.0000		9999	0	0	0	0
2019/05/31 08:45:00	BASE	4.99	19	6.22	20	-5.7	67	-10.9	0	0	1022.2	NA	0.0000		9999	0	0	0	0
2019/05/31 08:46:00	BASE	5.19	20	6.22	20	-5.7	66	-10.9	0	0	1022.2	NA	0.0000		9999	0	0	0	0
2019/05/31 08:47:00	BASE	5.53	17	6.22	17	-5.7	66	-10.9	0	0	1022.2	NA	0.0000		9999	0	0	0	0
2019/05/31 08:48:00	BASE	5.35	19	6.22	17	-5.7	66	-11.0	0	0	1022.2	NA	0.0000		9999	0	0	0	0
2019/05/31 08:49:00	BASE	5.13	19	6.94	353	-5.7	66	-11.1	0	0	1022.2	NA	0.0000		9999	0	0	0	0
2019/05/31 08:50:00	BASE	4.95	18	6.94	353	-5.7	66	-11.0	0	0	1022.2	NA	0.0000		9999	0	0	0	0
2019/05/31 08:51:00	BASE	4.47	20	6.94	353	-5.7	66	-11.1	0	0	1022.2	NA	0.0000		9999	0	0	0	0
2019/05/31 08:52:00	BASE	4.20	20	6.94	353	-5.7	66	-11.1	0	0	1022.2	NA	0.0000		9999	0	0	0	0
2019/05/31 08:53:00	BASE	4.26	20	6.94	353	-5.7	65	-11.1	0	0	1022.2	NA	0.0000		9999	0	0	0	0
2019/05/31 08:54:00	BASE	3.97	26	6.94	353	-5.7	65	-11.2	0	0	1022.2	NA	0.0000		9999	0	0	0	0
2019/05/31 08:55:00	BASE	3.62	27	6.94	353	-5.7	65	-11.2	0	0	1022.2	NA	0.0000		9999	0	0	0	0
2019/05/31 08:56:00	BASE	2.88	35	6.94	353	-5.7	65	-11.3	0	0	1022.2	NA	0.0000		9999	0	0	0	0
2019/05/31 08:57:00	BASE	2.29	50	6.94	353	-5.8	65	-11.4	0	0	1022.2	NA	0.0000		9999	0	0	0	0
2019/05/31 08:58:00	BASE	2.69	50	6.94	353	-6.0	65	-11.5	0	0	1022.1	NA	0.0000		9999	0	0	0	0
2019/05/31 08:59:00	BASE	2.86	33	5.56	34	-6.1	65	-11.6	0	0	1022.1	NA	0.0000		9999	0	0	0	0
2019/05/31 09:00:00	BASE	3.11	32	4.89	20	-6.1	65	-11.6	0	0	1022.1	NA	0.0000		9999	0	0	0	0
2019/05/31 09:01:00	BASE	3.06	49	4.89	20	-6.2	65	-11.6	0	0	1022.1	NA	0.0000		9999	0	0	0	0
2019/05/31 09:02:00	BASE	3.09	56	4.89	20	-6.2	65	-11.6	0	0	1022.1	NA	0.0000		9999	0	0	0	0
2019/05/31 09:03:00	BASE	3.67	46	4.37	28	-6.1	66	-11.5	0	0	1022.1	NA	0.0000		9999	0	0	0	0
2019/05/31 09:04:00	BASE	3.67	44	4.58	53	-6.0	66	-11.4	0	0	1022.1	NA	0.0000		9999	0	0	0	0
2019/05/31 09:05:00	BASE	3.64	47	4.58	29	-6.0	66	-11.4	0	0	1022.1	NA	0.0000		9999	0	0	0	0
2019/05/31 09:06:00	BASE	4.03	47	4.89	52	-6.0	66	-11.4	0	0	1022.1	NA	0.0000		9999	0	0	0	0
2019/05/31 09:07:00	BASE	4.44	49	5.50	45	-6.0	66	-11.4	0	0	1022.1	NA	0.0000		9999	0	0	0	0
2019/05/31 09:08:00	BASE	4.60	56	5.50	45	-6.1	66	-11.4	0	0	1022.1	NA	0.0000		9999	0	0	0	0
2019/05/31 09:09:00	BASE	4.77	60	5.50	45	-6.1	66	-11.4	0	0	1022.1	NA	0.0000		9999	0	0	0	0
2019/05/31 09:10:00	BASE	4.88	61	5.50	45	-6.1	66	-11.5	0	0	1022.1	NA	0.0000		9999	0	0	0	0
2019/05/31 09:11:00	BASE	4.83	66	5.50	45	-6.1	65	-11.5	0	0	1022.1	NA	0.0000		9999	0	0	0	0
2019/05/31 09:12:00	BASE	5.11	68	5.81	71	-6.0	65	-11.6	0	0	1022.1	NA	0.0000		9999	0	0	0	0
2019/05/31 09:13:00	BASE	5.21	67	5.81	71	-6.0	64	-11.6	0	0	1022.1	NA	0.0000		9999	0	0	0	0
2019/05/31 09:14:00	BASE	5.03	68	5.81	71	-5.9	64	-11.7	0	0	1022.1	NA	0.0000		9999	0	0	0	0
2019/05/31 09:15:00	BASE	5.05	67	5.81	71	-5.9	63	-11.8	0	0	1022.1	NA	0.0000		9999	0	0	0	0
2019/05/31 09:16:00	BASE	5.39	67	6.17	70	-5.9	63	-11.8	0	0	1022.1	NA	0.0000		9999	0	0	0	0
2019/05/31 09:17:00	BASE	5.50	70	6.17	70	-5.9	62	-11.9	0	0	1022.1	NA	0.0000		9999	0	0	0	0
2019/05/31 09:18:00	BASE	5.16	69	6.17	70	-5.9	62	-12.0	0	0	1022.1	NA	0.0000		9999	0	0	0	0
2019/05/31 09:19:00	BASE	4.90	61	6.17	70	-5.9	62	-12.0	0	0	1022.1	NA	0.0000		9999	0	0	0	0
2019/05/31 09:20:00	BASE	4.54	58	6.17	70	-5.9	62	-12.0	0	0	1022.1	NA	0.0000		9999	0	0	0	0
2019/05/31 09:21:00	BASE	4.27	59	6.17	70	-5.8	62	-12.0	0	0	1022.1	NA	0.0000		9999	0	0	0	0
2019/05/31 09:22:00	BASE	4.14	53	6.17	70	-5.8	61	-12.1	0	0	1022.1	NA	0.0000		9999	0	0	0	0
2019/05/31 09:23:00	BASE	3.97	48	6.17	70	-5.8	61	-12.1	0	0	1022.1	NA	0.0000		9999	0	0	0	0
2019/05/31 09:24:00	BASE	3.80	45	6.17	70	-5.8	61	-12.1	0	0	1022.1	NA	0.0000		9999	0	0	0	0
2019/05/31 09:25:00	BASE	3.81	46	6.17	70	-5.8	61	-12.2	0	0	1022.1	NA	0.0000		9999	0	0	0	0
2019/05/31 09:26:00	BASE	3.73	49	5.71	69	-5.8	61	-12.2	0	0	1022.1	NA	0.0000		9999	0	0	0	0
2019/05/31 09:27:00	BASE	3.68	49	5.61	69	-5.8	61	-12.2	0	0	1022.1	NA	0.0000		9999	0	0	0	0
2019/05/31 09:28:00	BASE	3.82	48	5.20	51	-5.8	60	-12.2	0	0	1022.1	NA	0.0000		9999	0	0	0	0
2019/05/31 09:29:00	BASE	3.68	45	4.78	59	-5.8	60	-12.3	0	0	1022.1	NA	0.0000		9999	0	0	0	0
2019/05/31 09:30:00	BASE	3.53	42	4.78	59	-5.8	60	-12.3	0	0	1022.1	NA	0.0000		9999	0	0	0	0
2019/05/31 09:31:00	BASE	3.03	45	4.48	48	-5.8	60	-12.3	0	0	1022.1	NA	0.0000		9999	0	0	0	0
2019/05/31 09:32:00	BASE	2.57	44	4.48	48	-5.8	60	-12.3	0	0	1022.1	NA	0.0000		9999	0	0	0	0
2019/05/31 09:33:00	BASE	2.98	44	4.32	52	-5.8	60	-12.3	0	0	1022.1	NA	0.0000		9999	0	0	0	0
2019/05/31 09:34:00	BASE	3.74	51	4.58	54	-5.8	60	-12.3	0	0	1022.1	NA	0.0000		9999	0	0	0	0
2019/05/31 09:35:00	BASE	3.93	48	4.58	54	-5.8	60	-12.3	0	0	1022.1	NA	0.0000		9999	0	0	0	0
2019/05/31 09:36:00	BASE	3.77	48	4.58	54	-5.8	60	-12.3	0	0	1022.1	NA	0.0000		9999	0	0	0	0
2019/05/31 09:37:00	BASE	3.94	54	4.58	54	-5.8	60	-12.3	0	0	1022.1	NA	0.0000		9999	0	0	0	0
2019/05/31 09:38:00	BASE	4.00	53	4.58	54	-5.8	60	-12.4	0	0	1022.1	NA	0.0000		9999	0	0	0	0
2019/05/31 09:39:00	BASE	3.92	51	4.58	54	-5.8	60	-12.4	0	0	1022.1	NA	0.0000		9999	0	0	0	0
2019/05/31 09:40:00	BASE	3.63	52	4.58	54	-5.9	60	-12.4	0	0	1022.1	NA	0.0000		9999	0	0	0	0
2019/05/31 09:41:00	BASE	3.29	51	4.58	54	-5.9	60	-12.4	0	0	1022.1	NA	0.0000		9999	0	0	0	0
2019/05/31 09:42:00	BASE	3.55	51	4.58	54	-5.9	60	-12.3	0	0	1022.1	NA	0.0000		9999	0	0	0	0
2019/05/31 09:43:00	BASE	3.94	51	4.58	54	-5.9	61	-12.3	0	0	1022.1	NA	0.0000		9999	0	0	0	0
2019/05/31 09:44:00	BASE	4.11	48	4.89	49	-5.9	61	-12.3	0	0	1022.1	NA	0.0000		9999	0	0	0	0
2019/05/31 09:45:00	BASE	4.19	47	4.89	49	-6.0	61	-12.2	0	0	1022.1	NA	0.0000		9999	0	0	0	0
2019/05/31 09:46:00	BASE	4.14	47	4.89	49	-6.0	61	-12.2	0	0	1022.1	NA	0.0000		9999	0	0	0	0
2019/05/31 09:47:00	BASE	3.92	47	4.89	49	-6.0	62	-12.2	0	0	1022.1	NA	0.0000		9999	0	0	0	0
2019/05/31 09:48:00	BASE	3.72	46	4.89	49	-6.0	62	-12.2	0	0	1022.1	NA	0.0000		9999	0	0	0	0
2019/05/31 09:49:00	BASE	3.67	48	4.89	49	-6.0	62	-12.1	0	0	1022.1	NA	0.0000		9999	0	0	0	0
2019/05/31 09:50:00	BASE	3.64	54	4.89	49	-6.0	62	-12.1	0	0	1022.1	NA	0.0000		9999	0	0	0	0
2019/05/31 09:51:00	BASE	3.78	55	4.89	49	-5.9	62	-12.1	0	0	1022.1	NA	0.0000		9999	0	0	0	0
2019/05/31 09:52:00	BASE	4.10	53	4.89	49	-5.9	62	-12.1	0	0	1022.1	NA	0.0000		9999	0	0	0	0
2019/05/31 09:53:00	BASE	4.14	55	4.89	49	-5.9	62	-12.1	0	0	1022.1	NA	0.0000		9999	0	0	0	0
2019/05/31 09:54:00	BASE	4.05	56	4.48	57	-5.9	62	-12.1	0	0	1022.1	NA	0.0000		9999	0	0	0	0
2019/05/31 09:55:00	BASE	4.12	55	4.48	57	-6.0	62	-12.2	0	0	1022.1	NA	0.0000		9999	0	0	0	0
2019/05/31 09:56:00	BASE	4.24	53	4.78	52	-6.0	62	-12.1	0	0	1022.1	NA	0.0000		9999	0	0	0	0
2019/05/31 09:57:00	BASE	4.53	48	5.04	45	-6.0	62	-12.1	0	0	1022.1	NA	0.0000		9999	0	0	0	0
2019/05/31 09:58:00	BASE	4.45	46	5.04	45	-6.0	62	-12.1	0	0	1022.1	NA	0.0000		9999	0	0	0	0
2019/05/31 09:59:00	BASE	4.11	46	5.04	45	-6.1	62	-12.2	0	0	1022.1	NA	0.0000		9999	0	0	0	0
2019/05/31 10:00:00	BASE	4.16	45	5.04	45	-6.1	62	-12.2	0	0	1022.1	NA	0.0000		9999	0	0	0	0
2019/05/31 10:01:00	BASE	4.49	49	5.25	53	-6.1	62	-12.2	0	0	1022.1	NA	0.0000		9999	0	0	0	0
2019/05/31 10:02:00	BASE	4.60	51	5.25	58	-6.2	62	-12.2	0	0	1022.1	NA	0.0000		9999	0	0	0	0
2019/05/31 10:03:00	BASE	4.50	50	5.25	58	-6.2	62	-12.2	0	0	1022.1	NA	0.0000		9999	0	0	0	0
2019/05/31 10:04:00	BASE	4.39	49	5.25	58	-6.2	63	-12.2	0	0	1022.1	NA	0.0000		9999	0	0	0	0
2019/05/31 10:05:00	BASE	4.23	47	5.25	58	-6.2	63	-12.1	0	0	1022.1	NA	0.0000		9999	0	0	0	0
2019/05/31 10:06:00	BASE	4.19	46	5.25	58	-6.2	63	-12.1	0	0	1022.2	NA	0.0000		9999	0	0	0	0
2019/05/31 10:07:00	BASE	4.23	45	5.25	58	-6.2	63	-12.1	0	0	1022.2	NA	0.0000		9999	0	0	0	0
2019/05/31 10:08:00	BASE	4.42	43	5.25	58	-6.2	63	-12.1	0	0	1022.2	NA	0.0000		9999	4170	0	0	0
2019/05/31 10:09:00	BASE	4.45	41	5.25	58	-6.2	63	-12.1	0	0	1022.2	NA	0.0000		9999	4230	0	0	0
2019/05/31 10:10:00	BASE	3.95	46	5.25	58	-6.2	63	-12.1	0	0	1022.2	NA	0.0000		9999	0	0	0	0
2019/05/31 10:11:00	BASE	3.49	51	5.25	58	-6.2	63	-12.0	0	0	1022.2	NA	0.0000		9999	0	0	0	0
2019/05/31 10:12:00	BASE	3.73	52	4.94	36	-6.1	64	-11.9	0	0	1022.2	NA	0.0000		9999	0	0	0	0
2019/05/31 10:13:14	BASE	4.04	51	4.94	36	-6.1	64	-11.8	0	0	1022.2	NA	0.0000		9999	0	0	0	0
2019/05/31 10:14:00	BASE	4.00	49	4.94	36	-6.1	64	-11.8	0	0	1022.2	NA	0.0000		9999	4230	0	0	0
2019/05/31 10:15:00	BASE	3.77	46	4.94	36	-6.0	64	-11.8	0	0	1022.2	NA	0.0000		9999	4040	0	0	0
2019/05/31 10:16:00	BASE	3.66	45	4.94	36	-6.0	63	-11.9	0	0	1022.2	NA	0.0000		9999	4040	4590	0	0
2019/05/31 10:17:00	BASE	3.78	41	4.94	36	-6.1	63	-11.9	0	0	1022.2	NA	0.0000		9999	4130	0	0	0
2019/05/31 10:18:00	BASE	3.84	40	4.78	36	-6.1	63	-11.9	0	0	1022.1	NA	0.0000		9999	0	0	0	0
2019/05/31 10:19:00	BASE	3.72	41	4.68	36	-6.1	64	-11.9	0	0	1022.1	NA	0.0000		9999	0	0	0	0
2019/05/31 10:20:00	BASE	3.64	42	4.68	36	-6.1	64	-11.9	0	0	1022.1	NA	0.0000		9999	0	0	0	0
2019/05/31 10:21:00	BASE	3.63	42	4.68	36	-6.1	64	-11.9	0	0	1022.1	NA	0.0000		9999	0	0	0	0
2019/05/31 10:22:00	BASE	3.44	43	4.68	36	-6.2	64	-11.9	0	0	1022.1	NA	0.0000		9999	4070	0	0	0
2019/05/31 10:23:00	BASE	3.46	43	4.68	36	-6.2	64	-11.9	0	0	1022.1	NA	0.0000		9999	0	0	0	0
2019/05/31 10:24:00	BASE	3.64	40	4.68	36	-6.2	64	-11.9	0	0	1022.1	NA	0.0000		9999	0	0	0	0
2019/05/31 10:25:00	BASE	3.77	42	4.68	36	-6.2	64	-11.9	0	0	1022.1	NA	0.0000		9999	0	0	0	0
2019/05/31 10:26:00	BASE	3.63	45	4.37	48	-6.3	64	-12.0	0	0	1022.1	NA	0.0000		9999	0	0	0	0
2019/05/31 10:27:00	BASE	3.40	46	4.37	48	-6.2	64	-11.9	0	0	1022.1	NA	0.0000		9999	0	0	0	0
2019/05/31 10:28:00	BASE	3.38	44	4.22	30	-6.2	64	-11.9	0	0	1022.1	NA	0.0000		9999	4070	0	0	0
2019/05/31 10:29:00	BASE	3.48	44	4.22	30	-6.2	64	-11.9	0	0	1022.1	NA	0.0000		9999	4070	0	0	0
2019/05/31 10:30:00	BASE	3.52	44	4.22	30	-6.2	64	-11.9	0	0	1022.1	NA	0.0000		9999	0	0	0	0
2019/05/31 10:31:00	BASE	3.58	45	4.22	30	-6.2	64	-11.9	0	0	1022.2	NA	0.0000		9999	0	0	0	0
2019/05/31 10:32:00	BASE	3.89	43	4.32	37	-6.2	64	-11.9	0	0	1022.2	NA	0.0000		9999	0	0	0	0
2019/05/31 10:33:00	BASE	3.84	38	4.32	37	-6.2	64	-11.9	0	0	1022.2	NA	0.0000		9999	0	0	0	0
2019/05/31 10:34:00	BASE	3.69	35	4.32	37	-6.2	64	-11.9	0	0	1022.2	NA	0.0000		9999	0	0	0	0
2019/05/31 10:35:00	BASE	3.70	33	4.32	37	-6.3	64	-11.9	0	0	1022.2	NA	0.0000		9999	0	0	0	0
2019/05/31 10:36:00	BASE	3.54	35	4.37	35	-6.3	64	-11.9	0	0	1022.2	NA	0.0000		9999	0	0	0	0
2019/05/31 10:37:00	BASE	3.60	38	4.37	35	-6.3	65	-11.8	0	0	1022.2	NA	0.0000		9999	4000	0	0	0
2019/05/31 10:38:00	BASE	3.94	38	4.58	27	-6.2	65	-11.8	0	0	1022.1	NA	0.0000		9999	4000	0	0	0
2019/05/31 10:39:00	BASE	3.88	39	4.58	27	-6.2	65	-11.7	0	0	1022.1	NA	0.0000		9999	3970	0	0	0
2019/05/31 10:40:00	BASE	3.49	39	4.58	27	-6.2	65	-11.7	0	0	1022.2	NA	0.0000		9999	0	0	0	0
2019/05/31 10:41:00	BASE	3.52	39	4.58	27	-6.1	65	-11.7	0	0	1022.1	NA	0.0000		9999	0	0	0	0
2019/05/31 10:42:00	BASE	3.59	44	4.58	27	-6.1	65	-11.7	0	0	1022.1	NA	0.0000		9999	0	0	0	0
2019/05/31 10:43:00	BASE	3.52	52	4.58	27	-6.1	65	-11.7	0	0	1022.1	NA	0.0000		9999	0	0	0	0
2019/05/31 10:44:00	BASE	3.87	60	4.58	27	-6.1	65	-11.6	0	0	1022.1	NA	0.0000		9999	4130	0	0	0
2019/05/31 10:45:00	BASE	4.12	60	4.58	27	-6.1	65	-11.6	0	0	1022.1	NA	0.0000		9999	0	0	0	0
2019/05/31 10:46:00	BASE	4.17	58	4.73	64	-6.1	65	-11.6	0	0	1022.1	NA	0.0000		9999	0	0	0	0
2019/05/31 10:47:00	BASE	4.17	55	4.73	64	-6.1	65	-11.7	0	0	1022.2	NA	0.0000		9999	0	0	0	0
2019/05/31 10:48:00	BASE	4.02	52	4.73	64	-6.1	64	-11.7	0	0	1022.2	NA	0.0000		9999	0	0	0	0
2019/05/31 10:49:00	BASE	4.07	52	4.73	64	-6.1	64	-11.7	0	0	1022.2	NA	0.0000		9999	0	0	0	0
2019/05/31 10:50:00	BASE	3.87	53	4.73	64	-6.1	64	-11.7	0	0	1022.2	NA	0.0000		9999	0	0	0	0
2019/05/31 10:51:00	BASE	3.64	51	4.73	64	-6.1	64	-11.7	0	0	1022.2	NA	0.0000		9999	0	0	0	0
2019/05/31 10:52:01	BASE	3.59	47	4.73	64	-6.1	64	-11.7	0	0	1022.1	NA	0.0000		9999	4040	0	0	0
2019/05/31 10:53:00	BASE	3.50	46	4.73	64	-6.1	64	-11.7	0	0	1022.1	NA	0.0000		9999	0	0	0	0
2019/05/31 10:54:00	BASE	3.37	47	4.73	64	-6.0	64	-11.7	0	0	1022.1	NA	0.0000		9999	0	0	0	0
2019/05/31 10:55:00	BASE	3.35	44	4.73	64	-6.0	64	-11.7	0	0	1022.2	NA	0.0000		9999	4040	0	0	0
2019/05/31 10:56:00	BASE	3.34	41	4.37	54	-6.0	64	-11.7	0	0	1022.2	NA	0.0000		9999	3970	0	0	0
2019/05/31 10:57:00	BASE	3.22	38	4.27	50	-6.0	64	-11.6	0	0	1022.2	NA	0.0000		9999	0	0	0	0
2019/05/31 10:58:00	BASE	3.30	39	4.27	50	-6.0	65	-11.6	0	0	1022.2	NA	0.0000		9999	0	0	0	0
2019/05/31 10:59:00	BASE	3.35	43	4.01	53	-6.1	65	-11.6	0	0	1022.2	NA	0.0000		9999	0	0	0	0
2019/05/31 11:00:00	BASE	3.26	47	4.01	53	-6.0	65	-11.5	0	0	1022.2	NA	0.0000		9999	0	0	0	0
2019/05/31 11:01:00	BASE	3.23	49	3.86	41	-6.0	66	-11.4	0	0	1022.2	NA	0.0000		9999	0	0	0	0
2019/05/31 11:02:00	BASE	3.02	50	3.86	41	-6.0	66	-11.3	0	0	1022.2	NA	0.0000		9999	0	0	0	0
2019/05/31 11:03:00	BASE	2.94	50	3.86	41	-5.9	66	-11.2	0	0	1022.2	NA	0.0000		9999	0	0	0	0
2019/05/31 11:04:00	BASE	3.15	50	3.86	41	-5.9	66	-11.2	0	0	1022.2	NA	0.0000		9999	0	0	0	0
2019/05/31 11:05:00	BASE	3.19	51	3.86	41	-5.8	66	-11.2	0	0	1022.1	NA	0.0000		9999	0	0	0	0
2019/05/31 11:06:00	BASE	3.24	50	3.86	41	-5.8	65	-11.3	0	0	1022.0	NA	0.0000		9999	4100	0	0	0
2019/05/31 11:07:00	BASE	3.44	48	3.86	41	-5.8	65	-11.3	0	0	1022.1	NA	0.0000		9999	4000	0	0	0
2019/05/31 11:08:00	BASE	3.51	49	3.86	41	-5.8	65	-11.3	0	0	1022.1	NA	0.0000		9999	0	0	0	0
2019/05/31 11:09:00	BASE	3.35	48	3.86	41	-5.8	66	-11.2	0	0	1022.2	NA	0.0000		9999	0	0	0	0
2019/05/31 11:10:00	BASE	3.34	46	3.86	41	-5.8	66	-11.2	0	0	1022.2	NA	0.0000		9999	0	0	0	0
2019/05/31 11:11:00	BASE	3.44	45	3.70	47	-5.8	66	-11.2	0	0	1022.2	NA	0.0000		9999	0	0	0	0
2019/05/31 11:12:00	BASE	3.34	45	3.70	47	-5.8	66	-11.2	0	0	1022.1	NA	0.0000		9999	0	0	0	0
2019/05/31 11:13:00	BASE	3.12	45	3.70	47	-5.8	66	-11.1	0	0	1022.1	NA	0.0000		9999	0	0	0	0
2019/05/31 11:14:00	BASE	3.07	43	3.70	47	-5.8	66	-11.1	0	0	1022.1	NA	0.0000		9999	0	0	0	0
2019/05/31 11:15:00	BASE	2.96	40	3.70	47	-5.8	66	-11.1	0	0	1022.1	NA	0.0000		9999	0	0	0	0
2019/05/31 11:16:00	BASE	2.74	37	3.70	47	-5.8	66	-11.1	0	0	1022.1	NA	0.0000		9999	0	0	0	0
2019/05/31 11:17:00	BASE	2.73	35	3.65	50	-5.7	66	-11.1	0	0	1022.1	NA	0.0000		9999	0	0	0	0
2019/05/31 11:18:00	BASE	2.79	33	3.60	43	-5.8	66	-11.1	0	0	1022.1	NA	0.0000		9999	0	0	0	0
2019/05/31 11:19:00	BASE	2.78	33	3.60	43	-5.8	66	-11.1	0	0	1022.1	NA	0.0000		9999	0	0	0	0
2019/05/31 11:20:00	BASE	2.69	33	3.55	45	-5.8	66	-11.1	0	0	1022.1	NA	0.0000		9999	0	0	0	0
2019/05/31 11:21:00	BASE	2.70	34	3.50	47	-5.8	66	-11.1	0	0	1022.1	NA	0.0000		9999	0	0	0	0
2019/05/31 11:22:00	BASE	2.83	31	3.34	43	-5.9	67	-11.1	0	0	1022.1	NA	0.0000		9999	0	0	0	0
2019/05/31 11:23:00	BASE	3.08	28	3.50	26	-5.9	67	-11.0	0	0	1022.1	NA	0.0000		9999	0	0	0	0
2019/05/31 11:24:00	BASE	3.12	27	3.50	26	-5.9	67	-11.0	0	0	1022.1	NA	0.0000		9999	0	0	0	0
2019/05/31 11:25:00	BASE	3.11	23	3.50	26	-5.9	68	-10.9	0	0	1022.1	NA	0.0000		9999	0	0	0	0
2019/05/31 11:26:00	BASE	3.22	21	3.55	25	-5.9	68	-10.9	0	0	1022.1	NA	0.0000		9999	0	0	0	0
2019/05/31 11:27:00	BASE	3.08	24	3.55	25	-5.9	68	-10.8	0	0	1022.1	NA	0.0000		9999	3810	0	0	0
2019/05/31 11:28:00	BASE	3.05	26	3.55	25	-5.9	68	-10.8	0	0	1022.1	NA	0.0000		9999	3810	0	0	0
2019/05/31 11:29:00	BASE	3.12	29	3.55	25	-5.9	69	-10.7	0	0	1022.1	NA	0.0000		9999	4070	0	0	0
2019/05/31 11:30:00	BASE	2.88	30	3.55	25	-5.8	69	-10.7	0	0	1022.1	NA	0.0000		9999	0	0	0	0
2019/05/31 11:31:00	BASE	2.79	31	3.55	25	-5.8	69	-10.6	0	0	1022.1	NA	0.0000		9999	0	0	0	0
2019/05/31 11:32:00	BASE	2.98	34	3.55	25	-5.8	69	-10.6	0	0	1022.1	NA	0.0000		9999	0	0	0	0
2019/05/31 11:33:00	BASE	3.06	33	3.55	25	-5.8	69	-10.6	0	0	1022.1	NA	0.0000		9999	0	0	0	0
2019/05/31 11:34:00	BASE	2.95	36	3.55	25	-5.8	69	-10.6	0	0	1022.2	NA	0.0000		9999	0	0	0	0
2019/05/31 11:35:00	BASE	2.97	39	3.55	25	-5.8	69	-10.6	0	0	1022.2	NA	0.0000		9999	0	0	0	0
2019/05/31 11:36:00	BASE	3.03	41	3.45	36	-5.8	69	-10.6	0	0	1022.2	NA	0.0000		9999	0	0	0	0
2019/05/31 11:37:00	BASE	3.05	45	3.45	36	-5.8	69	-10.6	0	0	1022.2	NA	0.0000		9999	0	0	0	0
2019/05/31 11:38:00	BASE	3.28	40	3.60	36	-5.8	69	-10.6	0	0	1022.2	NA	0.0000		9999	0	0	0	0
2019/05/31 11:39:00	BASE	3.42	38	3.60	36	-5.9	69	-10.7	0	0	1022.2	NA	0.0000		9999	0	0	0	0
2019/05/31 11:40:00	BASE	3.42	41	3.76	42	-5.9	69	-10.7	0	0	1022.2	NA	0.0000		9999	4270	0	0	0
2019/05/31 11:41:00	BASE	3.41	39	3.76	36	-6.0	69	-10.7	0	0	1022.2	NA	0.0000		9999	0	0	0	0
2019/05/31 11:42:00	BASE	3.26	37	3.76	36	-6.0	70	-10.7	0	0	1022.2	NA	0.0000		9999	0	0	0	0
2019/05/31 11:43:00	BASE	3.06	39	3.76	36	-6.0	70	-10.7	0	0	1022.2	NA	0.0000		9999	0	0	0	0
2019/05/31 11:44:00	BASE	2.96	41	3.76	36	-6.1	70	-10.6	0	0	1022.2	NA	0.0000		9999	0	0	0	0
2019/05/31 11:45:00	BASE	3.08	42	3.76	36	-6.1	70	-10.6	0	0	1022.2	NA	0.0000		9999	0	0	0	0
2019/05/31 11:46:00	BASE	3.20	39	3.76	36	-6.0	70	-10.6	0	0	1022.2	NA	0.0000		9999	0	0	0	0
2019/05/31 11:47:00	BASE	3.05	38	3.76	36	-6.0	70	-10.6	0	0	1022.2	NA	0.0000		9999	0	0	0	0
2019/05/31 11:48:00	BASE	2.85	39	3.76	36	-6.0	70	-10.6	0	0	1022.2	NA	0.0000		9999	3840	0	0	0
2019/05/31 11:49:00	BASE	2.76	38	3.76	36	-6.0	70	-10.6	0	0	1022.2	NA	0.0000		9999	0	0	0	0
2019/05/31 11:50:00	BASE	2.85	37	3.76	36	-6.0	70	-10.5	0	0	1022.1	NA	0.0000		9999	3770	0	0	0
2019/05/31 11:51:00	BASE	2.89	36	3.50	41	-6.0	70	-10.5	0	0	1022.1	NA	0.0000		9999	3840	0	0	0
2019/05/31 11:52:00	BASE	2.81	36	3.45	43	-6.0	70	-10.5	0	0	1022.2	NA	0.0000		9999	3970	0	0	0
2019/05/31 11:53:00	BASE	2.90	37	3.45	43	-5.9	70	-10.5	0	0	1022.2	NA	0.0000		9999	3840	0	0	0
2019/05/31 11:54:00	BASE	2.87	37	3.45	43	-5.9	70	-10.5	0	0	1022.2	NA	0.0000		9999	3870	0	0	0
2019/05/31 11:55:00	BASE	2.72	40	3.45	43	-5.9	70	-10.5	0	0	1022.2	NA	0.0000		9999	0	0	0	0
2019/05/31 11:56:00	BASE	2.70	40	3.19	34	-5.9	70	-10.5	0	0	1022.2	NA	0.0000		9999	0	0	0	0
2019/05/31 11:57:00	BASE	2.88	36	3.19	34	-5.9	70	-10.5	0	0	1022.2	NA	0.0000		9999	3900	0	0	0
2019/05/31 11:58:00	BASE	3.09	36	3.24	41	-5.9	70	-10.4	0	0	1022.2	NA	0.0000		9999	4100	0	0	0
2019/05/31 11:59:00	BASE	3.26	37	3.65	37	-5.9	70	-10.4	0	0	1022.2	NA	0.0000		9999	4040	0	0	0
2019/05/31 12:00:00	BASE	3.35	35	3.65	37	-5.9	71	-10.4	0	0	1022.2	NA	0.0000		9999	0	0	0	0
2019/05/31 12:01:00	BASE	3.33	36	3.65	39	-5.9	71	-10.4	0	0	1022.2	NA	0.0000		9999	3940	0	0	0
2019/05/31 12:02:00	BASE	3.46	39	3.70	39	-5.9	71	-10.3	0	0	1022.2	NA	0.0000		9999	3870	0	0	0
2019/05/31 12:03:00	BASE	3.55	43	3.91	44	-5.9	71	-10.3	0	0	1022.2	NA	0.0000		9999	0	0	0	0
2019/05/31 12:04:00	BASE	3.49	45	3.91	44	-6.0	71	-10.4	0	0	1022.2	NA	0.0000		9999	3970	0	0	0
2019/05/31 12:05:00	BASE	3.47	44	3.91	44	-6.0	71	-10.4	0	0	1022.2	NA	0.0000		9999	0	0	0	0
2019/05/31 12:06:00	BASE	3.41	44	3.91	44	-6.0	71	-10.4	0	0	1022.2	NA	0.0000		9999	0	0	0	0
2019/05/31 12:07:00	BASE	3.38	43	3.91	44	-6.0	71	-10.4	0	0	1022.2	NA	0.0000		9999	0	0	0	0
2019/05/31 12:08:00	BASE	3.41	42	3.91	37	-6.0	71	-10.4	0	0	1022.2	NA	0.0000		9999	0	0	0	0
2019/05/31 12:09:00	BASE	3.34	43	3.91	37	-6.0	71	-10.4	0	0	1022.2	NA	0.0000		9999	0	0	0	0
2019/05/31 12:10:00	BASE	3.37	43	3.91	37	-6.0	71	-10.4	0	0	1022.2	NA	0.0000		9999	0	0	0	0
2019/05/31 12:11:00	BASE	3.32	42	3.91	37	-6.0	71	-10.4	0	0	1022.2	NA	0.0000		9999	0	0	0	0
2019/05/31 12:12:00	BASE	3.16	43	3.91	37	-5.9	71	-10.3	0	0	1022.2	NA	0.0000		9999	0	0	0	0
2019/05/31 12:13:00	BASE	3.03	46	3.91	37	-5.9	71	-10.3	0	0	1022.2	NA	0.0000		9999	0	0	0	0
2019/05/31 12:14:00	BASE	3.03	52	3.91	37	-5.9	71	-10.3	0	0	1022.2	NA	0.0000		9999	0	0	0	0
2019/05/31 12:15:00	BASE	3.26	48	3.91	37	-5.8	71	-10.3	0	0	1022.2	NA	0.0000		9999	0	0	0	0
2019/05/31 12:16:00	BASE	3.30	42	3.91	37	-5.8	71	-10.3	0	0	1022.2	NA	0.0000		9999	0	0	0	0
2019/05/31 12:17:00	BASE	3.16	44	3.91	37	-5.8	70	-10.4	0	0	1022.2	NA	0.0000		9999	4040	0	0	0
2019/05/31 12:18:00	BASE	3.19	43	3.70	42	-5.9	70	-10.4	0	0	1022.2	NA	0.0000		9999	4070	0	0	0
2019/05/31 12:19:00	BASE	3.16	42	3.70	42	-5.9	70	-10.4	0	0	1022.2	NA	0.0000		9999	0	0	0	0
2019/05/31 12:20:00	BASE	3.07	43	3.65	37	-5.9	70	-10.4	0	0	1022.2	NA	0.0000		9999	0	0	0	0
2019/05/31 12:21:00	BASE	3.22	43	3.65	43	-5.8	70	-10.4	0	0	1022.1	NA	0.0000		9999	4230	0	0	0
2019/05/31 12:22:00	BASE	3.33	44	3.65	43	-5.8	70	-10.4	0	0	1022.2	NA	0.0000		9999	0	0	0	0
2019/05/31 12:23:00	BASE	3.14	45	3.65	43	-5.8	70	-10.4	0	0	1022.2	NA	0.0000		9999	0	0	0	0
2019/05/31 12:24:00	BASE	2.84	48	3.65	43	-5.8	70	-10.4	0	0	1022.2	NA	0.0000		9999	0	0	0	0
2019/05/31 12:25:00	BASE	2.62	49	3.65	43	-5.7	70	-10.3	0	0	1022.2	NA	0.0000		9999	0	0	0	0
2019/05/31 12:26:00	BASE	2.63	47	3.65	43	-5.6	70	-10.3	0	0	1022.2	NA	0.0000		9999	0	0	0	0
2019/05/31 12:27:00	BASE	2.72	48	3.65	43	-5.6	69	-10.3	0	0	1022.2	NA	0.0000		9999	0	0	0	0
2019/05/31 12:28:00	BASE	2.65	46	3.65	43	-5.5	69	-10.3	0	0	1022.2	NA	0.0000		9999	0	0	0	0
2019/05/31 12:29:00	BASE	2.75	44	3.65	43	-5.5	69	-10.3	0	0	1022.2	NA	0.0000		9999	0	0	0	0
2019/05/31 12:30:00	BASE	2.87	46	3.65	43	-5.5	69	-10.3	0	0	1022.2	NA	0.0000		9999	0	0	0	0
2019/05/31 12:31:00	BASE	2.97	45	3.50	42	-5.5	69	-10.3	0	0	1022.2	NA	0.0000		9999	4200	0	0	0
2019/05/31 12:32:00	BASE	3.15	47	3.40	46	-5.5	69	-10.3	0	0	1022.1	NA	0.0000		9999	4560	0	0	0
2019/05/31 12:33:00	BASE	3.09	48	3.40	46	-5.5	69	-10.3	0	0	1022.2	NA	0.0000		9999	0	0	0	0
2019/05/31 12:34:00	BASE	2.95	48	3.40	46	-5.5	69	-10.3	0	0	1022.2	NA	0.0000		9999	0	0	0	0
2019/05/31 12:35:00	BASE	3.03	50	3.40	46	-5.5	69	-10.3	0	0	1022.2	NA	0.0000		9999	0	0	0	0
2019/05/31 12:36:00	BASE	3.05	51	3.40	46	-5.5	69	-10.3	0	0	1022.2	NA	0.0000		9999	0	0	0	0
2019/05/31 12:37:00	BASE	2.86	51	3.40	46	-5.5	69	-10.3	0	0	1022.2	NA	0.0000		9999	0	0	0	0
2019/05/31 12:38:00	BASE	2.88	51	3.40	46	-5.5	69	-10.3	0	0	1022.2	NA	0.0000		9999	0	0	0	0
2019/05/31 12:39:00	BASE	2.84	49	3.40	46	-5.4	69	-10.2	0	0	1022.2	NA	0.0000		9999	0	0	0	0
2019/05/31 12:40:00	BASE	2.62	47	3.40	46	-5.4	69	-10.2	0	0	1022.2	NA	0.0000		9999	0	0	0	0
2019/05/31 12:41:00	BASE	2.53	46	3.40	46	-5.4	69	-10.2	0	0	1022.2	NA	0.0000		9999	0	0	0	0
2019/05/31 12:42:00	BASE	2.46	50	3.24	51	-5.4	69	-10.2	0	0	1022.1	NA	0.0000		9999	0	0	0	0
2019/05/31 12:43:00	BASE	2.41	52	3.24	51	-5.4	69	-10.2	0	0	1022.1	NA	0.0000		9999	4560	0	0	0
2019/05/31 12:44:00	BASE	2.51	47	3.24	51	-5.4	69	-10.2	0	0	1022.1	NA	0.0000		9999	4630	0	0	0
2019/05/31 12:45:00	BASE	2.59	45	3.24	51	-5.4	69	-10.2	0	0	1022.1	NA	0.0000		9999	0	0	0	0
2019/05/31 12:46:00	BASE	2.56	46	3.24	51	-5.4	69	-10.2	0	0	1022.1	NA	0.0000		9999	4300	0	0	0
2019/05/31 12:47:00	BASE	2.59	45	3.24	51	-5.4	69	-10.2	0	0	1022.1	NA	0.0000		9999	4330	0	0	0
2019/05/31 12:48:00	BASE	2.46	41	3.24	51	-5.4	69	-10.2	0	0	1022.1	NA	0.0000		9999	4860	0	0	0
2019/05/31 12:49:00	BASE	2.37	36	3.04	44	-5.4	69	-10.2	0	0	1022.1	NA	0.0000		9999	4200	0	0	0
2019/05/31 12:50:00	BASE	2.26	33	3.04	44	-5.4	69	-10.2	0	0	1022.1	NA	0.0000		9999	4270	0	0	0
2019/05/31 12:51:00	BASE	2.05	32	3.04	44	-5.4	69	-10.2	0	0	1022.1	NA	0.0000		9999	4300	0	0	0
2019/05/31 12:52:00	BASE	2.26	33	3.04	44	-5.4	69	-10.2	0	0	1022.1	NA	0.0000		9999	4460	0	0	0
2019/05/31 12:53:00	BASE	2.69	33	3.14	31	-5.5	69	-10.2	0	0	1022.1	NA	0.0000		9999	0	0	0	0
2019/05/31 12:54:00	BASE	2.83	30	3.14	31	-5.5	69	-10.3	0	0	1022.1	NA	0.0000		9999	0	0	0	0
2019/05/31 12:55:00	BASE	2.77	31	3.14	31	-5.5	69	-10.3	0	0	1022.1	NA	0.0000		9999	4860	0	0	0
2019/05/31 12:56:00	BASE	2.86	38	3.14	47	-5.5	69	-10.3	0	0	1022.1	NA	0.0000		9999	0	0	0	0
2019/05/31 12:57:00	BASE	2.87	38	3.14	47	-5.5	69	-10.3	0	0	1022.0	NA	0.0000		9999	4630	0	0	0
2019/05/31 12:58:00	BASE	2.77	39	3.14	47	-5.5	69	-10.3	0	0	1022.0	NA	0.0000		9999	4460	0	0	0
2019/05/31 12:59:00	BASE	2.66	41	3.14	47	-5.5	69	-10.3	0	0	1022.0	NA	0.0000		9999	4920	0	0	0
2019/05/31 13:00:00	BASE	2.46	43	3.14	47	-5.5	69	-10.2	0	0	1022.1	NA	0.0000		9999	4630	0	0	0
2019/05/31 13:01:00	BASE	2.36	42	3.14	47	-5.5	70	-10.2	0	0	1022.1	NA	0.0000		9999	5050	0	0	0
2019/05/31 13:02:00	BASE	2.32	43	3.14	47	-5.4	70	-10.1	0	0	1022.0	NA	0.0000		9999	0	0	0	0
2019/05/31 13:03:00	BASE	2.56	50	3.14	47	-5.4	70	-10.0	0	0	1022.0	NA	0.0000		9999	4630	0	0	0
2019/05/31 13:04:00	BASE	2.95	49	3.91	44	-5.3	70	-9.9	0	0	1022.0	NA	0.0000		9999	0	0	0	0
2019/05/31 13:05:00	BASE	3.09	51	3.91	44	-5.3	70	-9.8	0	0	1022.0	NA	0.0000		9999	4860	0	0	0
2019/05/31 13:06:00	BASE	3.17	53	3.91	44	-5.3	70	-9.8	0	0	1022.0	NA	0.0000		9999	4820	0	0	0
2019/05/31 13:07:00	BASE	3.38	53	3.91	57	-5.3	70	-9.8	1	0	1022.0	NA	0.0000		9999	0	0	0	0
2019/05/31 13:08:00	BASE	3.17	55	3.91	57	-5.2	70	-9.8	1	0	1022.0	NA	0.0000		9999	4630	0	0	0
2019/05/31 13:09:00	BASE	2.87	53	3.91	57	-5.2	70	-9.8	1	0	1022.0	NA	0.0000		9999	4630	0	0	0
2019/05/31 13:10:00	BASE	2.80	54	3.91	57	-5.2	70	-9.8	1	0	1022.0	NA	0.0000		9999	4630	0	0	0
2019/05/31 13:11:00	BASE	2.43	63	3.91	57	-5.2	70	-9.8	1	0	1022.0	NA	0.0000		9999	4300	0	0	0
2019/05/31 13:12:00	BASE	1.94	68	3.91	57	-5.2	70	-9.8	1	0	1022.0	NA	0.0000		9999	4300	0	0	0
2019/05/31 13:13:00	BASE	1.62	68	3.91	57	-5.2	70	-9.8	1	0	1022.0	NA	0.0000		9999	4630	0	0	0
2019/05/31 13:14:00	BASE	1.37	65	3.91	57	-5.2	70	-9.8	1	0	1022.0	NA	0.0000		9999	4400	0	0	0
2019/05/31 13:15:00	BASE	1.52	53	3.91	57	-5.1	70	-9.8	1	0	1022.0	NA	0.0000		9999	4200	0	0	0
2019/05/31 13:16:00	BASE	1.88	44	3.91	57	-5.1	69	-9.8	1	0	1021.9	NA	0.0000		9999	4200	0	0	0
2019/05/31 13:17:00	BASE	1.74	44	3.55	66	-5.0	69	-9.8	1	0	1021.9	NA	0.0000		9999	4330	0	0	0
2019/05/31 13:18:00	BASE	2.01	46	3.45	52	-4.9	69	-9.8	1	0	1021.9	NA	0.0000		9999	4560	0	0	0
2019/05/31 13:19:00	BASE	2.75	51	3.91	54	-4.9	68	-9.8	1	0	1021.9	NA	0.0000		9999	4200	0	0	0
2019/05/31 13:20:00	BASE	2.69	60	4.22	64	-4.8	68	-9.8	1	0	1021.9	NA	0.0000		9999	4100	0	0	0
2019/05/31 13:21:00	BASE	2.33	69	4.22	64	-4.7	68	-9.8	1	0	1021.9	NA	0.0000		9999	4100	0	0	0
2019/05/31 13:22:00	BASE	1.95	78	4.22	64	-4.6	67	-9.8	1	0	1021.9	NA	0.0000		9999	4130	0	0	0
2019/05/31 13:23:00	BASE	0.82	100	4.22	64	-4.5	66	-9.8	1	0	1021.9	NA	0.0000		9999	4100	0	0	0
2019/05/31 13:24:00	BASE	0.00	136	4.22	64	-4.4	65	-10.0	1	0	1022.0	NA	0.0000		9999	4040	0	0	0
2019/05/31 13:25:00	BASE	0.05	288	4.22	64	-4.4	64	-10.1	1	0	1022.0	NA	0.0000		9999	4170	0	0	0
2019/05/31 13:26:00	BASE	0.70	331	4.22	64	-4.5	64	-10.3	1	0	1022.0	NA	0.0000		9999	4270	0	0	0
2019/05/31 13:27:00	BASE	1.71	340	4.22	64	-4.5	64	-10.3	1	0	1022.0	NA	0.0000		9999	4170	4590	0	0
2019/05/31 13:28:00	BASE	2.21	347	4.22	64	-4.6	65	-10.3	1	0	1021.9	NA	0.0000		9999	4130	0	0	0
2019/05/31 13:29:00	BASE	2.54	4	4.22	64	-4.6	65	-10.2	1	0	1021.9	NA	0.0000		9999	4200	0	0	0
2019/05/31 13:30:00	BASE	2.61	17	3.40	67	-4.7	65	-10.2	1	0	1021.9	NA	0.0000		9999	4430	0	0	0
2019/05/31 13:31:00	BASE	2.85	18	3.81	12	-4.7	65	-10.2	1	0	1021.9	NA	0.0000		9999	4460	0	0	0
2019/05/31 13:32:00	BASE	3.65	17	5.61	8	-4.7	66	-10.1	1	0	1021.8	NA	0.0000		9999	4330	4790	0	0
2019/05/31 13:33:00	BASE	4.37	16	5.61	8	-4.8	66	-10.2	1	0	1021.8	NA	0.0000		9999	4360	0	0	0
2019/05/31 13:34:00	BASE	3.13	16	5.61	8	-4.8	67	-10.0	2	0	1021.9	NA	0.0000		9999	4460	0	0	0
2019/05/31 13:35:00	BASE	1.30	57	5.61	8	-4.7	67	-9.9	2	0	1021.9	NA	0.0000		9999	4920	0	0	0
2019/05/31 13:36:00	BASE	0.50	99	5.61	8	-4.6	66	-9.9	2	0	1021.9	NA	0.0000		9999	5050	0	0	0
2019/05/31 13:37:00	BASE	0.36	356	5.61	8	-4.5	66	-10.0	2	0	1021.9	NA	0.0000		9999	5050	0	0	0
2019/05/31 13:38:00	BASE	0.58	314	5.61	8	-4.3	65	-10.0	2	0	1021.9	NA	0.0000		9999	5020	0	0	0
2019/05/31 13:39:00	BASE	1.61	307	5.61	8	-4.3	63	-10.2	2	0	1021.9	NA	0.0000		9999	4890	0	0	0
2019/05/31 13:40:00	BASE	2.70	304	5.61	8	-4.2	62	-10.3	2	0	1021.8	NA	0.0000		9999	4990	0	0	0
2019/05/31 13:41:00	BASE	2.65	284	5.61	8	-4.2	62	-10.4	2	0	1021.9	NA	0.0000		9999	4890	0	0	0
2019/05/31 13:42:00	BASE	2.55	245	5.56	24	-4.2	62	-10.5	2	0	1021.9	NA	0.0000		9999	4860	0	0	0
2019/05/31 13:43:00	BASE	2.20	224	4.42	348	-4.3	62	-10.5	2	0	1021.9	NA	0.0000		9999	4890	0	0	0
2019/05/31 13:44:00	BASE	2.08	216	3.60	253	-4.4	63	-10.4	2	0	1021.8	NA	0.0000		9999	4950	0	0	0
2019/05/31 13:45:00	BASE	1.76	206	3.60	253	-4.4	63	-10.4	2	0	1021.8	NA	0.0000		9999	4820	0	0	0
2019/05/31 13:46:00	BASE	1.28	187	3.60	253	-4.5	64	-10.3	2	0	1021.8	NA	0.0000		9999	4990	0	0	0
2019/05/31 13:47:00	BASE	1.75	174	3.60	253	-4.5	64	-10.3	3	0	1021.9	NA	0.0000		9999	4950	0	0	0
2019/05/31 13:48:00	BASE	2.17	179	3.60	253	-4.5	64	-10.3	3	0	1021.9	NA	0.0000		9999	4860	0	0	0
2019/05/31 13:49:00	BASE	2.02	181	3.60	253	-4.5	64	-10.3	3	0	1021.9	NA	0.0000		9999	4890	0	0	0
2019/05/31 13:50:00	BASE	1.85	170	3.60	253	-4.6	64	-10.3	3	0	1021.8	NA	0.0000		9999	4990	0	0	0
2019/05/31 13:51:00	BASE	1.94	162	3.65	205	-4.8	65	-10.4	3	0	1021.9	NA	0.0000		9999	5020	0	0	0
2019/05/31 13:52:00	BASE	2.65	177	4.84	229	-4.9	65	-10.4	3	0	1021.9	NA	0.0000		9999	4720	0	0	0
2019/05/31 13:53:00	BASE	3.16	198	4.84	229	-4.9	66	-10.3	3	0	1021.9	NA	0.0000		9999	4660	0	0	0
2019/05/31 13:54:00	BASE	4.31	213	6.48	223	-4.9	66	-10.2	3	0	1021.9	NA	0.0000		9999	4690	0	0	0
2019/05/31 13:55:00	BASE	5.93	221	6.84	220	-4.8	66	-10.2	3	0	1021.9	NA	0.0000		9999	4890	0	0	0
2019/05/31 13:56:00	BASE	7.27	222	9.41	214	-4.6	65	-10.2	3	0	1021.8	NA	0.0000		9999	4920	0	0	0
2019/05/31 13:57:00	BASE	7.86	219	9.41	214	-4.4	63	-10.4	3	0	1021.9	NA	0.0000		9999	4890	0	0	0
2019/05/31 13:58:00	BASE	7.17	211	9.41	214	-4.3	62	-10.6	3	0	1021.8	NA	0.0000		9999	4690	0	0	0
2019/05/31 13:59:00	BASE	6.32	207	9.41	214	-4.2	60	-10.8	3	0	1021.8	NA	0.0000		9999	4660	0	0	0
2019/05/31 14:00:00	BASE	5.95	212	9.41	214	-4.1	59	-11.0	3	0	1021.8	NA	0.0000		9999	4820	0	0	0
2019/05/31 14:01:00	BASE	6.48	217	9.41	214	-4.0	58	-11.1	3	0	1021.8	NA	0.0000		9999	4790	0	0	0
2019/05/31 14:02:00	BASE	7.04	218	9.41	214	-4.0	58	-11.1	3	0	1021.8	NA	0.0000		9999	4820	0	0	0
2019/05/31 14:03:00	BASE	7.94	218	9.41	211	-4.0	58	-11.1	3	0	1021.7	NA	0.0000		9999	4890	0	0	0
2019/05/31 14:04:00	BASE	8.42	215	9.41	211	-4.0	58	-11.1	3	0	1021.7	NA	0.0000		9999	4890	0	0	0
2019/05/31 14:05:00	BASE	7.93	210	9.41	211	-3.9	57	-11.2	3	0	1021.7	NA	0.0000		9999	4860	0	0	0
2019/05/31 14:06:00	BASE	8.02	211	9.41	211	-3.9	57	-11.2	3	0	1021.7	NA	0.0000		9999	4790	0	0	0
2019/05/31 14:07:00	BASE	8.08	217	9.41	211	-3.9	57	-11.2	3	0	1021.7	NA	0.0000		9999	4890	0	0	0
2019/05/31 14:08:00	BASE	8.12	215	9.41	211	-3.9	57	-11.2	3	0	1021.7	NA	0.0000		9999	4760	0	0	0
2019/05/31 14:09:00	BASE	7.97	210	9.41	211	-3.9	57	-11.2	3	0	1021.7	NA	0.0000		9999	4920	0	0	0
2019/05/31 14:10:00	BASE	7.51	211	9.41	211	-3.9	57	-11.2	3	0	1021.7	NA	0.0000		9999	4760	0	0	0
2019/05/31 14:11:00	BASE	7.04	208	9.41	211	-3.9	57	-11.3	3	0	1021.7	NA	0.0000		9999	4860	0	0	0
2019/05/31 14:12:00	BASE	7.01	203	9.41	211	-3.9	56	-11.4	4	0	1021.7	NA	0.0000		9999	4860	0	0	0
2019/05/31 14:13:00	BASE	7.22	205	9.26	217	-3.9	56	-11.5	4	0	1021.8	NA	0.0000		9999	4660	0	0	0
2019/05/31 14:14:00	BASE	6.50	211	9.26	217	-3.9	55	-11.6	4	0	1021.8	NA	0.0000		9999	4560	0	0	0
2019/05/31 14:15:00	BASE	6.66	214	9.26	217	-3.9	55	-11.5	4	0	1021.8	NA	0.0000		9999	4560	0	0	0
2019/05/31 14:16:00	BASE	6.96	212	9.26	217	-3.9	56	-11.4	4	0	1021.9	NA	0.0000		9999	4660	0	0	0
2019/05/31 14:17:00	BASE	6.49	209	9.26	217	-3.9	56	-11.4	4	0	1021.8	NA	0.0000		9999	4560	0	0	0
2019/05/31 14:18:00	BASE	6.22	208	8.54	209	-3.9	56	-11.3	4	0	1021.9	NA	0.0000		9999	4760	0	0	0
2019/05/31 14:19:00	BASE	5.91	213	8.54	209	-3.9	56	-11.3	4	0	1021.9	NA	0.0000		9999	4630	0	0	0
2019/05/31 14:20:00	BASE	6.43	216	8.54	209	-3.9	56	-11.3	4	0	1021.9	NA	0.0000		9999	4690	0	0	0
2019/05/31 14:21:00	BASE	7.17	218	8.54	209	-3.9	56	-11.3	4	0	1021.9	NA	0.0000		9999	4660	0	0	0
2019/05/31 14:22:00	BASE	7.62	218	8.75	222	-3.9	56	-11.3	4	0	1021.9	NA	0.0000		9999	4660	0	0	0
2019/05/31 14:23:00	BASE	8.00	212	8.75	222	-3.9	56	-11.3	4	0	1021.9	NA	0.0000		9999	4720	0	0	0
2019/05/31 14:24:00	BASE	7.77	208	8.75	222	-3.9	56	-11.4	4	0	1021.9	NA	0.0000		9999	4560	0	0	0
2019/05/31 14:25:00	BASE	7.11	210	8.75	222	-3.8	55	-11.5	4	0	1021.9	NA	0.0000		9999	4430	0	0	0
2019/05/31 14:26:00	BASE	6.33	214	8.75	222	-3.8	55	-11.5	4	0	1021.9	NA	0.0000		9999	4460	0	0	0
2019/05/31 14:27:00	BASE	6.66	218	9.21	212	-3.8	55	-11.5	4	0	1021.8	NA	0.0000		9999	4490	0	0	0
2019/05/31 14:28:00	BASE	7.63	213	9.21	212	-3.8	55	-11.5	4	0	1021.8	NA	0.0000		9999	4460	0	0	0
2019/05/31 14:29:00	BASE	7.74	207	9.21	212	-3.8	56	-11.4	4	0	1021.8	NA	0.0000		9999	4460	0	0	0
2019/05/31 14:30:00	BASE	7.41	213	9.21	212	-3.8	56	-11.2	5	0	1021.9	NA	0.0000		9999	4560	0	0	0
2019/05/31 14:31:00	BASE	7.08	219	9.21	212	-3.9	57	-11.2	5	0	1021.9	NA	0.0000		9999	4630	0	0	0
2019/05/31 14:32:00	BASE	7.52	220	9.21	212	-3.8	57	-11.1	5	0	1021.9	NA	0.0000		9999	4460	0	0	0
2019/05/31 14:33:00	BASE	8.28	220	9.21	212	-3.8	57	-11.2	5	0	1021.8	NA	0.0000		9999	4400	0	0	0
2019/05/31 14:34:00	BASE	8.68	224	9.72	227	-3.8	56	-11.2	5	0	1021.8	NA	0.0000		9999	4430	0	0	0
2019/05/31 14:35:00	BASE	9.24	223	10.44	221	-3.8	56	-11.3	5	0	1021.9	NA	0.0000		9999	4460	0	0	0
2019/05/31 14:36:00	BASE	9.63	220	10.44	221	-3.8	56	-11.4	5	0	1021.9	NA	0.0000		9999	4490	0	0	0
2019/05/31 14:37:01	BASE	9.02	216	10.44	221	-3.8	55	-11.6	5	0	1021.9	NA	0.0000		9999	4460	0	0	0
2019/05/31 14:38:00	BASE	8.02	214	10.44	221	-3.8	54	-11.7	5	0	1021.9	NA	0.0000		9999	4460	0	0	0
2019/05/31 14:39:00	BASE	7.34	213	10.44	221	-3.8	55	-11.6	5	0	1021.9	NA	0.0000		9999	4430	0	0	0
2019/05/31 14:40:00	BASE	7.21	214	10.44	221	-3.8	55	-11.5	5	0	1021.9	NA	0.0000		9999	4330	0	0	0
2019/05/31 14:41:00	BASE	8.17	218	10.44	221	-3.7	55	-11.5	5	0	1021.9	NA	0.0000		9999	4360	0	0	0
2019/05/31 14:42:00	BASE	8.96	221	10.44	221	-3.7	55	-11.4	5	0	1021.8	NA	0.0000		9999	4430	0	0	0
2019/05/31 14:43:00	BASE	8.41	219	10.44	221	-3.7	56	-11.3	5	0	1021.8	NA	0.0000		9999	4460	0	0	0
2019/05/31 14:44:00	BASE	8.16	215	10.44	221	-3.8	56	-11.2	5	0	1021.8	NA	0.0000		9999	4460	0	0	0
2019/05/31 14:45:00	BASE	8.66	214	10.34	220	-3.8	56	-11.2	6	0	1021.8	NA	0.0000		9999	4430	0	0	0
2019/05/31 14:46:00	BASE	8.87	218	10.08	216	-3.8	56	-11.2	6	0	1021.8	NA	0.0000		9999	4460	0	0	0
2019/05/31 14:47:00	BASE	8.83	222	10.08	216	-3.8	56	-11.2	6	0	1021.8	NA	0.0000		9999	4460	0	0	0
2019/05/31 14:48:00	BASE	8.97	219	10.08	216	-3.8	56	-11.3	6	0	1021.9	NA	0.0000		9999	4460	0	0	0
2019/05/31 14:49:00	BASE	8.47	215	10.08	216	-3.8	55	-11.4	6	0	1021.9	NA	0.0000		9999	4400	0	0	0
2019/05/31 14:50:00	BASE	7.65	214	10.08	216	-3.8	55	-11.5	6	0	1021.9	NA	0.0000		9999	4360	0	0	0
2019/05/31 14:51:00	BASE	7.31	213	10.08	216	-3.8	55	-11.5	6	0	1021.9	NA	0.0000		9999	4400	0	0	0
2019/05/31 14:52:00	BASE	6.77	209	10.08	216	-3.7	55	-11.5	6	0	1021.9	NA	0.0000		9999	4430	0	0	0
2019/05/31 14:53:00	BASE	6.67	206	10.08	216	-3.7	55	-11.4	6	0	1021.9	NA	0.0000		9999	4430	0	0	0
2019/05/31 14:54:00	BASE	7.20	208	10.08	216	-3.8	56	-11.4	6	0	1021.8	NA	0.0000		9999	4300	0	0	0
2019/05/31 14:55:00	BASE	6.94	210	9.62	220	-3.8	56	-11.3	6	0	1021.9	NA	0.0000		9999	4360	0	0	0
2019/05/31 14:56:00	BASE	6.48	210	9.47	220	-3.8	56	-11.3	6	0	1021.9	NA	0.0000		9999	4360	0	0	0
2019/05/31 14:57:00	BASE	7.40	212	9.47	220	-3.8	57	-11.2	7	0	1021.9	NA	0.0000		9999	4430	0	0	0
2019/05/31 14:58:00	BASE	8.20	211	9.05	206	-3.8	57	-11.1	7	0	1021.9	NA	0.0000		9999	4300	0	0	0
2019/05/31 14:59:00	BASE	8.72	210	10.19	208	-3.8	57	-11.1	6	0	1021.8	NA	0.0000		9999	4330	0	0	0
2019/05/31 15:00:00	BASE	8.87	212	10.19	208	-3.8	57	-11.1	7	0	1021.8	NA	0.0000		9999	4300	0	0	0
2019/05/31 15:01:00	BASE	8.69	217	10.19	208	-3.8	56	-11.2	7	0	1021.8	NA	0.0000		9999	4400	0	0	0
2019/05/31 15:02:00	BASE	8.78	217	10.19	208	-3.8	56	-11.3	7	0	1021.9	NA	0.0000		9999	4360	0	0	0
2019/05/31 15:03:00	BASE	8.96	210	10.55	204	-3.8	55	-11.4	7	0	1021.9	NA	0.0000		9999	4400	0	0	0
2019/05/31 15:04:00	BASE	8.66	207	10.55	204	-3.8	55	-11.5	7	0	1021.9	NA	0.0000		9999	4490	0	0	0
2019/05/31 15:05:00	BASE	8.39	210	10.55	204	-3.8	55	-11.5	8	0	1021.9	NA	0.0000		9999	4560	0	0	0
2019/05/31 15:06:00	BASE	9.28	212	11.01	212	-3.8	55	-11.6	8	0	1021.9	NA	0.0000		9999	4590	0	0	0
2019/05/31 15:07:00	BASE	9.84	213	11.01	212	-3.8	55	-11.5	8	0	1021.9	NA	0.0000		9999	4690	0	0	0
2019/05/31 15:08:00	BASE	9.88	217	11.01	212	-3.8	55	-11.6	8	0	1021.9	NA	0.0000		9999	4660	0	0	0
2019/05/31 15:09:00	BASE	9.02	217	11.01	212	-3.8	54	-11.7	9	0	1021.9	NA	0.0000		9999	4630	0	0	0
2019/05/31 15:10:00	BASE	8.44	215	11.01	212	-3.8	54	-11.8	9	0	1021.9	NA	0.0000		9999	4720	0	0	0
2019/05/31 15:11:00	BASE	8.57	213	11.01	212	-3.7	53	-11.8	9	0	1021.9	NA	0.0000		9999	4690	0	0	0
2019/05/31 15:12:00	BASE	8.52	218	11.01	212	-3.7	53	-11.9	9	0	1021.9	NA	0.0000		9999	4630	0	0	0
2019/05/31 15:13:00	BASE	8.72	226	11.01	212	-3.7	53	-12.0	9	0	1021.9	NA	0.0000		9999	4660	0	0	0
2019/05/31 15:14:00	BASE	9.06	222	11.01	212	-3.8	53	-12.0	9	0	1021.9	NA	0.0000		9999	4660	0	0	0
2019/05/31 15:15:00	BASE	9.03	214	11.01	212	-3.8	53	-11.9	9	0	1021.9	NA	0.0000		9999	4690	0	0	0
2019/05/31 15:16:00	BASE	8.39	212	10.80	214	-3.8	53	-12.0	9	0	1022.0	NA	0.0000		9999	4660	0	0	0
2019/05/31 15:17:00	BASE	7.87	212	10.39	213	-3.8	53	-11.9	9	0	1022.0	NA	0.0000		9999	4630	0	0	0
2019/05/31 15:18:00	BASE	7.70	217	10.24	219	-3.7	53	-11.8	9	0	1022.0	NA	0.0000		9999	4630	0	0	0
2019/05/31 15:19:00	BASE	7.55	213	10.24	219	-3.7	54	-11.7	9	0	1022.0	NA	0.0000		9999	4690	0	0	0
2019/05/31 15:20:00	BASE	7.37	210	10.24	219	-3.7	54	-11.6	9	0	1022.0	NA	0.0000		9999	4690	0	0	0
2019/05/31 15:21:00	BASE	8.16	214	10.24	219	-3.7	55	-11.5	9	0	1021.9	NA	0.0000		9999	4690	0	0	0
2019/05/31 15:22:00	BASE	8.95	215	10.24	219	-3.7	55	-11.5	9	0	1021.9	NA	0.0000		9999	4690	0	0	0
2019/05/31 15:23:00	BASE	8.13	217	10.24	219	-3.7	55	-11.5	10	0	1022.0	NA	0.0000		9999	4660	0	0	0
2019/05/31 15:24:00	BASE	7.19	213	9.98	211	-3.7	55	-11.5	10	0	1022.0	NA	0.0000		9999	4630	0	0	0
2019/05/31 15:25:00	BASE	7.63	204	9.98	211	-3.8	55	-11.5	10	0	1022.0	NA	0.0000		9999	4690	0	0	0
2019/05/31 15:26:00	BASE	7.82	202	9.98	211	-3.7	55	-11.5	10	0	1021.9	NA	0.0000		9999	4690	0	0	0
2019/05/31 15:27:00	BASE	7.81	201	9.98	211	-3.8	55	-11.4	10	0	1021.9	NA	0.0000		9999	4660	0	0	0
2019/05/31 15:28:00	BASE	8.65	202	10.13	206	-3.8	56	-11.3	10	0	1021.9	NA	0.0000		9999	4630	0	0	0
2019/05/31 15:29:00	BASE	9.36	204	10.34	202	-3.8	56	-11.4	10	0	1021.9	NA	0.0000		9999	4660	0	0	0
2019/05/31 15:30:00	BASE	9.42	204	10.34	202	-3.8	55	-11.5	11	0	1021.9	NA	0.0000		9999	4660	0	0	0
2019/05/31 15:31:00	BASE	8.85	208	10.34	202	-3.8	54	-11.7	10	0	1021.9	NA	0.0000		9999	4660	0	0	0
2019/05/31 15:32:00	BASE	7.85	208	10.34	202	-3.8	53	-11.9	11	0	1021.9	NA	0.0000		9999	4660	0	0	0
2019/05/31 15:33:00	BASE	6.91	207	10.34	202	-3.8	53	-12.0	11	0	1021.9	NA	0.0000		9999	4690	0	0	0
2019/05/31 15:34:00	BASE	7.13	206	10.34	202	-3.8	53	-12.0	11	0	1021.9	NA	0.0000		9999	4690	0	0	0
2019/05/31 15:35:00	BASE	7.02	203	10.34	202	-3.8	53	-12.0	11	0	1021.9	NA	0.0000		9999	4720	0	0	0
2019/05/31 15:36:00	BASE	6.40	202	10.34	202	-3.8	53	-11.9	11	0	1021.9	NA	0.0000		9999	4690	0	0	0
2019/05/31 15:37:00	BASE	6.87	202	10.34	202	-3.8	54	-11.8	11	0	1021.9	NA	0.0000		9999	4660	0	0	0
2019/05/31 15:38:00	BASE	7.74	206	10.34	202	-3.8	54	-11.7	12	0	1021.9	NA	0.0000		9999	4660	0	0	0
2019/05/31 15:39:00	BASE	8.00	209	9.98	207	-3.8	54	-11.7	11	0	1021.9	NA	0.0000		9999	4690	0	0	0
2019/05/31 15:40:00	BASE	7.62	208	9.67	211	-3.8	54	-11.8	11	0	1021.9	NA	0.0000		9999	4660	0	0	0
2019/05/31 15:41:00	BASE	8.18	207	9.67	209	-3.8	53	-11.9	11	0	1021.9	NA	0.0000		9999	4660	0	0	0
2019/05/31 15:42:00	BASE	8.78	206	9.67	209	-3.8	53	-12.0	11	0	1021.9	NA	0.0000		9999	4630	0	0	0
2019/05/31 15:43:00	BASE	8.29	204	9.67	209	-3.8	52	-12.2	12	0	1021.9	NA	0.0000		9999	4630	0	0	0
2019/05/31 15:44:00	BASE	8.08	204	9.67	209	-3.8	52	-12.3	12	0	1021.9	NA	0.0000		9999	4590	0	0	0
2019/05/31 15:45:00	BASE	8.41	205	9.67	209	-3.8	52	-12.2	13	0	1021.9	NA	0.0000		9999	4660	0	0	0
2019/05/31 15:46:00	BASE	8.93	206	9.93	208	-3.8	53	-12.0	13	0	1021.8	NA	0.0000		9999	4660	0	0	0
2019/05/31 15:47:00	BASE	8.91	203	9.93	208	-3.8	54	-11.9	13	0	1021.7	NA	0.0000		9999	4630	0	0	0
2019/05/31 15:48:00	BASE	8.30	194	9.93	208	-3.8	55	-11.6	14	0	1021.7	NA	0.0000		9999	4890	0	0	0
2019/05/31 15:49:00	BASE	7.69	189	9.93	208	-3.8	55	-11.5	14	0	1021.7	NA	0.0000		9999	4860	0	0	0
2019/05/31 15:50:00	BASE	6.89	188	9.93	208	-3.9	55	-11.5	14	0	1021.7	NA	0.0000		9999	4820	0	0	0
2019/05/31 15:51:00	BASE	6.28	186	9.93	208	-3.9	55	-11.6	15	0	1021.7	NA	0.0000		9999	4820	0	0	0
2019/05/31 15:52:00	BASE	5.38	181	9.93	208	-4.0	55	-11.6	15	0	1021.7	NA	0.0000		9999	4920	0	0	0
2019/05/31 15:53:00	BASE	4.82	178	9.93	208	-4.0	55	-11.7	15	0	1021.7	NA	0.0000		9999	4890	0	0	0
2019/05/31 15:54:00	BASE	5.08	181	9.93	208	-4.0	55	-11.7	15	0	1021.7	NA	0.0000		9999	4760	0	0	0
2019/05/31 15:55:00	BASE	5.01	186	9.93	208	-4.0	55	-11.8	15	0	1021.7	NA	0.0000		9999	4820	0	0	0
2019/05/31 15:56:00	BASE	5.48	185	9.72	205	-4.0	55	-11.8	15	0	1021.7	NA	0.0000		9999	4890	0	0	0
2019/05/31 15:57:00	BASE	5.81	184	8.54	187	-4.1	55	-11.9	15	0	1021.7	NA	0.0000		9999	5020	0	0	0
2019/05/31 15:58:00	BASE	5.43	184	7.97	193	-4.1	54	-12.0	15	0	1021.7	NA	0.0000		9999	5020	0	0	0
2019/05/31 15:59:00	BASE	5.85	188	7.31	193	-4.1	54	-12.0	15	0	1021.7	NA	0.0000		9999	4990	0	0	0
2019/05/31 16:00:00	BASE	6.60	194	7.61	193	-4.1	55	-11.9	15	0	1021.7	NA	0.0000		9999	5020	0	0	0
2019/05/31 16:01:00	BASE	6.75	191	7.61	193	-4.1	55	-11.8	14	0	1021.7	NA	0.0000		9999	5050	0	0	0
2019/05/31 16:02:00	BASE	6.36	185	7.61	193	-4.1	55	-11.8	14	0	1021.7	NA	0.0000		9999	5020	0	0	0
2019/05/31 16:03:00	BASE	6.48	184	7.87	187	-4.1	55	-11.8	14	0	1021.6	NA	0.0000		9999	5050	0	0	0
2019/05/31 16:04:00	BASE	6.89	187	7.87	187	-4.1	55	-11.8	15	0	1021.7	NA	0.0000		9999	5020	0	0	0
2019/05/31 16:05:00	BASE	6.83	184	7.97	177	-4.1	55	-11.8	15	0	1021.7	NA	0.0000		9999	5020	0	0	0
2019/05/31 16:06:00	BASE	6.90	184	7.97	177	-4.1	55	-11.8	15	0	1021.7	NA	0.0000		9999	5020	0	0	0
2019/05/31 16:07:00	BASE	6.70	182	7.97	177	-4.1	55	-11.8	15	0	1021.7	NA	0.0000		9999	4990	0	0	0
2019/05/31 16:08:00	BASE	6.71	176	7.97	177	-4.1	55	-11.8	15	0	1021.6	NA	0.0000		9999	4950	0	0	0
2019/05/31 16:09:00	BASE	6.37	175	7.97	177	-4.1	55	-11.8	15	0	1021.6	NA	0.0000		9999	4950	0	0	0
2019/05/31 16:10:00	BASE	6.10	176	7.97	177	-4.1	55	-11.8	15	0	1021.7	NA	0.0000		9999	5020	0	0	0
2019/05/31 16:11:00	BASE	6.25	176	7.97	177	-4.1	54	-11.9	15	0	1021.7	NA	0.0000		9999	4990	0	0	0
2019/05/31 16:12:00	BASE	5.61	176	7.97	177	-4.1	54	-12.0	15	0	1021.7	NA	0.0000		9999	4990	0	0	0
2019/05/31 16:13:00	BASE	5.31	181	7.97	177	-4.1	54	-12.0	14	0	1021.7	NA	0.0000		9999	4950	0	0	0
2019/05/31 16:14:00	BASE	5.64	180	7.97	177	-4.1	54	-12.0	14	0	1021.6	NA	0.0000		9999	4990	0	0	0
2019/05/31 16:15:00	BASE	5.43	176	7.77	189	-4.1	54	-12.0	14	0	1021.7	NA	0.0000		9999	4920	0	0	0
2019/05/31 16:16:00	BASE	5.01	175	7.61	178	-4.1	54	-12.0	14	0	1021.7	NA	0.0000		9999	4920	0	0	0
2019/05/31 16:17:00	BASE	4.84	180	7.36	172	-4.1	54	-12.0	13	0	1021.7	NA	0.0000		9999	4920	0	0	0
2019/05/31 16:18:00	BASE	4.80	187	7.05	177	-4.1	54	-11.9	13	0	1021.7	NA	0.0000		9999	4920	0	0	0
2019/05/31 16:19:00	BASE	4.91	184	7.05	177	-4.1	55	-11.9	14	0	1021.7	NA	0.0000		9999	4860	0	0	0
2019/05/31 16:20:00	BASE	5.14	180	6.74	174	-4.1	55	-11.8	13	0	1021.7	NA	0.0000		9999	4820	0	0	0
2019/05/31 16:21:00	BASE	4.89	180	6.17	170	-4.2	56	-11.7	13	0	1021.7	NA	0.0000		9999	4890	0	0	0
2019/05/31 16:22:00	BASE	4.41	183	6.17	170	-4.2	57	-11.6	13	0	1021.7	NA	0.0000		9999	4860	0	0	0
2019/05/31 16:23:00	BASE	4.30	190	6.17	170	-4.2	57	-11.5	13	0	1021.7	NA	0.0000		9999	4890	0	0	0
2019/05/31 16:24:00	BASE	4.03	188	5.86	192	-4.3	58	-11.4	13	0	1021.7	NA	0.0000		9999	4860	0	0	0
2019/05/31 16:25:00	BASE	4.60	187	6.28	192	-4.3	58	-11.3	14	0	1021.7	NA	0.0000		9999	4890	0	0	0
2019/05/31 16:26:00	BASE	5.56	187	6.28	192	-4.3	58	-11.3	14	0	1021.7	NA	0.0000		9999	4860	0	0	0
2019/05/31 16:27:00	BASE	5.85	189	6.94	187	-4.3	58	-11.4	14	0	1021.7	NA	0.0000		9999	4860	0	0	0
2019/05/31 16:28:00	BASE	5.37	192	6.94	187	-4.2	57	-11.5	14	0	1021.7	NA	0.0000		9999	4790	0	0	0
2019/05/31 16:29:00	BASE	4.60	195	6.94	187	-4.2	56	-11.6	13	0	1021.7	NA	0.0000		9999	4790	0	0	0
2019/05/31 16:30:00	BASE	5.58	204	7.51	211	-4.1	56	-11.7	13	0	1021.7	NA	0.0000		9999	4860	0	0	0
2019/05/31 16:31:00	BASE	6.52	206	7.51	205	-4.0	55	-11.7	13	0	1021.7	NA	0.0000		9999	4820	0	0	0
2019/05/31 16:32:00	BASE	5.75	202	7.51	205	-4.0	55	-11.7	13	0	1021.7	NA	0.0000		9999	4820	0	0	0
2019/05/31 16:33:00	BASE	4.80	205	7.51	205	-4.0	54	-11.8	13	0	1021.7	NA	0.0000		9999	4860	0	0	0
2019/05/31 16:34:00	BASE	5.13	207	7.51	205	-3.9	54	-11.8	13	0	1021.7	NA	0.0000		9999	4790	0	0	0
2019/05/31 16:35:00	BASE	6.03	195	7.51	205	-3.9	54	-11.9	13	0	1021.7	NA	0.0000		9999	4790	0	0	0
2019/05/31 16:36:00	BASE	6.09	183	7.51	205	-3.9	54	-11.9	13	0	1021.7	NA	0.0000		9999	4690	0	0	0
2019/05/31 16:37:00	BASE	5.84	183	7.51	205	-3.9	54	-11.8	13	0	1021.7	NA	0.0000		9999	4790	0	0	0
2019/05/31 16:38:00	BASE	5.44	186	7.51	205	-3.9	54	-11.8	13	0	1021.7	NA	0.0000		9999	4760	0	0	0
2019/05/31 16:39:00	BASE	5.50	185	7.51	205	-4.0	55	-11.8	13	0	1021.6	NA	0.0000		9999	4760	0	0	0
2019/05/31 16:40:00	BASE	5.95	185	7.51	205	-4.0	55	-11.8	13	0	1021.6	NA	0.0000		9999	4790	0	0	0
2019/05/31 16:41:00	BASE	5.57	187	7.31	195	-4.0	55	-11.8	13	0	1021.6	NA	0.0000		9999	4790	0	0	0
2019/05/31 16:42:00	BASE	4.78	188	7.31	195	-4.1	55	-11.7	13	0	1021.7	NA	0.0000		9999	4760	0	0	0
2019/05/31 16:43:00	BASE	5.11	188	7.31	195	-4.1	56	-11.6	13	0	1021.6	NA	0.0000		9999	4720	0	0	0
2019/05/31 16:44:00	BASE	6.10	187	7.46	184	-4.1	56	-11.6	12	0	1021.6	NA	0.0000		9999	4720	0	0	0
2019/05/31 16:45:00	BASE	6.34	184	7.46	184	-4.2	56	-11.6	12	0	1021.6	NA	0.0000		9999	4690	0	0	0
2019/05/31 16:46:00	BASE	6.26	189	7.46	184	-4.2	56	-11.6	12	0	1021.6	NA	0.0000		9999	4720	0	0	0
2019/05/31 16:47:00	BASE	6.08	196	7.46	184	-4.2	56	-11.7	12	0	1021.7	NA	0.0000		9999	4590	0	0	0
2019/05/31 16:48:00	BASE	5.52	200	7.46	184	-4.1	55	-11.8	12	0	1021.7	NA	0.0000		9999	4690	0	0	0
2019/05/31 16:49:00	BASE	5.37	202	7.46	184	-4.1	55	-11.9	12	0	1021.6	NA	0.0000		9999	4690	0	0	0
2019/05/31 16:50:00	BASE	5.74	201	7.46	184	-4.0	54	-11.9	12	0	1021.6	NA	0.0000		9999	4660	0	0	0
2019/05/31 16:51:00	BASE	5.96	194	7.46	184	-4.0	55	-11.8	12	0	1021.6	NA	0.0000		9999	4630	0	0	0
2019/05/31 16:52:00	BASE	6.43	192	7.61	195	-4.0	55	-11.7	12	0	1021.6	NA	0.0000		9999	4590	0	0	0
2019/05/31 16:53:00	BASE	6.72	193	7.61	195	-4.0	55	-11.6	12	0	1021.6	NA	0.0000		9999	4690	0	0	0
2019/05/31 16:54:00	BASE	6.43	190	7.61	195	-4.0	56	-11.6	12	0	1021.5	NA	0.0000		9999	4760	0	0	0
2019/05/31 16:55:00	BASE	6.80	189	7.87	190	-4.1	56	-11.6	12	0	1021.5	NA	0.0000		9999	4630	0	0	0
2019/05/31 16:56:00	BASE	6.73	189	7.87	190	-4.1	55	-11.7	12	0	1021.5	NA	0.0000		9999	4690	0	0	0
2019/05/31 16:57:00	BASE	6.37	190	7.87	190	-4.1	55	-11.8	12	0	1021.5	NA	0.0000		9999	4690	0	0	0
2019/05/31 16:58:00	BASE	6.44	191	7.87	190	-4.1	55	-11.9	12	0	1021.5	NA	0.0000		9999	4630	0	0	0
2019/05/31 16:59:00	BASE	5.61	187	7.87	190	-4.1	54	-12.0	12	0	1021.5	NA	0.0000		9999	4630	0	0	0
2019/05/31 17:00:00	BASE	4.77	182	7.87	190	-4.1	54	-12.2	12	0	1021.5	NA	0.0000		9999	4590	0	0	0
2019/05/31 17:01:00	BASE	4.55	183	7.87	190	-4.1	54	-12.2	11	0	1021.5	NA	0.0000		9999	4690	0	0	0
2019/05/31 17:02:00	BASE	4.56	185	7.87	190	-4.2	54	-12.2	11	0	1021.5	NA	0.0000		9999	4590	0	0	0
2019/05/31 17:03:00	BASE	4.56	190	7.87	190	-4.2	54	-12.2	11	0	1021.5	NA	0.0000		9999	4630	0	0	0
2019/05/31 17:04:00	BASE	4.45	188	7.87	190	-4.2	54	-12.2	11	0	1021.5	NA	0.0000		9999	4690	0	0	0
2019/05/31 17:05:00	BASE	4.22	186	7.31	195	-4.2	54	-12.1	11	0	1021.5	NA	0.0000		9999	4660	0	0	0
2019/05/31 17:06:00	BASE	3.87	196	7.31	195	-4.2	54	-12.1	11	0	1021.5	NA	0.0000		9999	4660	0	0	0
2019/05/31 17:07:00	BASE	4.37	205	6.58	191	-4.1	54	-12.1	11	0	1021.5	NA	0.0000		9999	4630	0	0	0
2019/05/31 17:08:00	BASE	4.79	205	5.97	201	-4.1	54	-12.1	11	0	1021.5	NA	0.0000		9999	4660	0	0	0
2019/05/31 17:09:00	BASE	4.27	198	5.97	201	-4.1	54	-12.1	10	0	1021.5	NA	0.0000		9999	4660	0	0	0
2019/05/31 17:10:00	BASE	4.07	187	5.97	201	-4.1	54	-12.1	10	0	1021.5	NA	0.0000		9999	4630	0	0	0
2019/05/31 17:11:00	BASE	3.95	183	5.97	201	-4.1	54	-12.1	10	0	1021.5	NA	0.0000		9999	4530	0	0	0
2019/05/31 17:12:00	BASE	4.57	187	6.02	181	-4.2	54	-12.0	10	0	1021.5	NA	0.0000		9999	4560	0	0	0
2019/05/31 17:13:00	BASE	5.58	192	6.17	199	-4.2	55	-11.9	9	0	1021.5	NA	0.0000		9999	4490	0	0	0
2019/05/31 17:14:00	BASE	5.63	197	6.28	206	-4.3	55	-11.9	9	0	1021.5	NA	0.0000		9999	4490	0	0	0
2019/05/31 17:15:00	BASE	5.04	200	6.28	206	-4.2	55	-11.9	9	0	1021.5	NA	0.0000		9999	4490	0	0	0
2019/05/31 17:16:00	BASE	4.85	196	6.28	206	-4.2	54	-12.0	9	0	1021.5	NA	0.0000		9999	4460	0	0	0
2019/05/31 17:17:00	BASE	4.76	189	6.28	206	-4.1	54	-12.1	9	0	1021.5	NA	0.0000		9999	4430	0	0	0
2019/05/31 17:18:00	BASE	5.08	188	6.74	191	-4.1	53	-12.2	9	0	1021.5	NA	0.0000		9999	4490	0	0	0
2019/05/31 17:19:00	BASE	5.54	190	6.74	191	-4.1	54	-12.1	9	0	1021.5	NA	0.0000		9999	4530	0	0	0
2019/05/31 17:20:00	BASE	5.76	198	7.31	206	-4.1	54	-12.0	10	0	1021.5	NA	0.0000		9999	4590	0	0	0
2019/05/31 17:21:00	BASE	6.40	204	7.31	205	-4.1	54	-12.0	10	0	1021.5	NA	0.0000		9999	4530	0	0	0
2019/05/31 17:22:00	BASE	5.93	199	7.31	205	-4.1	54	-12.1	10	0	1021.5	NA	0.0000		9999	4630	0	0	0
2019/05/31 17:23:00	BASE	5.68	192	7.41	196	-4.1	54	-12.1	10	0	1021.4	NA	0.0000		9999	4820	0	0	0
2019/05/31 17:24:00	BASE	6.33	193	7.41	196	-4.1	53	-12.1	11	0	1021.4	NA	0.0000		9999	4790	0	0	0
2019/05/31 17:25:00	BASE	6.09	205	7.41	196	-4.0	53	-12.2	11	0	1021.4	NA	0.0000		9999	4790	0	0	0
2019/05/31 17:26:00	BASE	6.05	216	7.41	196	-4.0	53	-12.2	11	0	1021.4	NA	0.0000		9999	4790	0	0	0
2019/05/31 17:27:00	BASE	6.09	211	7.41	196	-4.0	53	-12.2	11	0	1021.4	NA	0.0000		9999	3740	0	0	0
2019/05/31 17:28:00	BASE	6.85	202	8.64	206	-4.0	53	-12.2	10	0	1021.3	NA	0.0000		9999	3540	4790	0	0
2019/05/31 17:29:00	BASE	7.60	197	8.64	206	-4.0	53	-12.2	10	0	1021.4	NA	0.0000		9999	3310	0	0	0
2019/05/31 17:30:00	BASE	6.99	193	8.64	206	-4.0	52	-12.4	9	0	1021.4	NA	0.0000		9999	3640	4950	0	0
2019/05/31 17:31:00	BASE	6.06	188	8.64	206	-4.0	52	-12.4	9	0	1021.4	NA	0.0000		9999	3510	4920	0	0
2019/05/31 17:32:00	BASE	5.07	187	8.64	206	-4.1	52	-12.5	9	0	1021.4	NA	0.0000		9999	4950	0	0	0
2019/05/31 17:33:00	BASE	4.54	190	8.64	206	-4.1	52	-12.5	9	0	1021.4	NA	0.0000		9999	4820	0	0	0
2019/05/31 17:34:00	BASE	4.46	199	8.64	206	-4.1	52	-12.5	8	0	1021.4	NA	0.0000		9999	2720	4330	4820	0
2019/05/31 17:35:00	BASE	5.21	205	8.64	206	-4.1	53	-12.4	8	0	1021.4	NA	0.0000		9999	3220	0	0	0
2019/05/31 17:36:00	BASE	6.42	209	8.64	206	-4.1	53	-12.3	8	0	1021.4	NA	0.0000		9999	2820	4000	4920	0
2019/05/31 17:37:00	BASE	7.08	209	8.64	206	-4.1	53	-12.2	8	0	1021.4	NA	0.0000		9999	2620	4890	0	0
2019/05/31 17:38:00	BASE	6.74	204	8.23	206	-4.1	53	-12.3	8	0	1021.4	NA	0.0000		9999	4560	0	0	0
2019/05/31 17:39:00	BASE	6.31	202	8.23	206	-4.0	53	-12.3	8	0	1021.4	NA	0.0000		9999	4000	4720	0	0
2019/05/31 17:40:00	BASE	6.21	201	8.23	206	-4.0	52	-12.4	7	0	1021.4	NA	0.0000		9999	3710	4760	0	0
2019/05/31 17:41:00	BASE	6.17	204	8.23	206	-4.0	51	-12.6	7	0	1021.4	NA	0.0000		9999	3580	4790	0	0
2019/05/31 17:42:00	BASE	6.69	208	8.23	206	-4.0	51	-12.6	7	0	1021.4	NA	0.0000		9999	3810	4920	0	0
2019/05/31 17:43:00	BASE	6.75	207	8.23	206	-4.0	51	-12.6	7	0	1021.4	NA	0.0000		9999	3610	4860	0	0
2019/05/31 17:44:00	BASE	6.62	209	8.23	206	-4.0	51	-12.6	7	0	1021.4	NA	0.0000		9999	3480	4660	0	0
2019/05/31 17:45:00	BASE	6.57	217	8.23	206	-4.0	51	-12.6	7	0	1021.4	NA	0.0000		9999	4720	0	0	0
2019/05/31 17:46:00	BASE	5.89	212	8.23	206	-4.0	51	-12.6	7	0	1021.4	NA	0.0000		9999	4590	0	0	0
2019/05/31 17:47:00	BASE	5.02	208	7.87	208	-4.0	52	-12.5	7	0	1021.4	NA	0.0000		9999	4530	0	0	0
2019/05/31 17:48:00	BASE	5.17	210	8.08	206	-4.0	52	-12.5	7	0	1021.4	NA	0.0000		9999	4630	0	0	0
2019/05/31 17:49:00	BASE	6.54	209	8.49	209	-4.0	52	-12.5	7	0	1021.3	NA	0.0000		9999	3580	4530	0	0
2019/05/31 17:50:00	BASE	7.25	206	8.49	209	-4.0	52	-12.5	6	0	1021.3	NA	0.0000		9999	4690	0	0	0
2019/05/31 17:51:00	BASE	6.42	198	8.49	209	-4.0	51	-12.6	6	0	1021.3	NA	0.0000		9999	4630	0	0	0
2019/05/31 17:52:00	BASE	5.57	199	8.49	209	-4.0	51	-12.7	6	0	1021.3	NA	0.0000		9999	4660	0	0	0
2019/05/31 17:53:00	BASE	5.55	213	8.49	209	-4.0	50	-12.8	6	0	1021.3	NA	0.0000		9999	4590	0	0	0
2019/05/31 17:54:00	BASE	5.33	219	8.49	209	-4.0	50	-12.9	6	0	1021.3	NA	0.0000		9999	4560	0	0	0
2019/05/31 17:55:00	BASE	4.98	217	8.49	209	-4.0	50	-12.8	6	0	1021.3	NA	0.0000		9999	4760	0	0	0
2019/05/31 17:56:00	BASE	5.30	218	8.49	209	-4.0	51	-12.7	6	0	1021.3	NA	0.0000		9999	4690	0	0	0
2019/05/31 17:57:00	BASE	6.02	216	8.49	209	-4.0	51	-12.5	5	0	1021.2	NA	0.0000		9999	4590	0	0	0
2019/05/31 17:58:00	BASE	6.72	213	8.49	209	-4.0	52	-12.5	5	0	1021.2	NA	0.0000		9999	4560	0	0	0
2019/05/31 17:59:00	BASE	6.55	210	7.82	222	-4.0	52	-12.5	5	0	1021.1	NA	0.0000		9999	4560	0	0	0
2019/05/31 18:00:00	BASE	5.91	205	7.82	222	-4.0	52	-12.5	5	0	1021.1	NA	0.0000		9999	4430	0	0	0
2019/05/31 18:01:00	BASE	5.36	204	7.82	222	-4.0	51	-12.6	5	0	1021.1	NA	0.0000		9999	4630	0	0	0
2019/05/31 18:02:00	BASE	4.72	206	7.82	222	-4.0	50	-12.8	5	0	1021.1	NA	0.0000		9999	4560	0	0	0
2019/05/31 18:03:00	BASE	4.40	209	7.82	222	-4.0	50	-12.9	5	0	1021.1	NA	0.0000		9999	4660	0	0	0
2019/05/31 18:04:00	BASE	4.76	214	7.82	222	-4.0	50	-13.0	5	0	1021.1	NA	0.0000		9999	4660	0	0	0
2019/05/31 18:05:00	BASE	5.48	219	7.82	222	-4.0	49	-13.1	5	0	1021.1	NA	0.0000		9999	4630	0	0	0
2019/05/31 18:06:00	BASE	5.38	216	7.82	222	-4.0	49	-13.1	5	0	1021.1	NA	0.0000		9999	4660	0	0	0
2019/05/31 18:07:00	BASE	5.17	213	7.77	213	-4.0	49	-13.1	5	0	1021.1	NA	0.0000		9999	4630	0	0	0
2019/05/31 18:08:00	BASE	5.97	211	7.10	209	-4.0	50	-13.0	5	0	1021.1	NA	0.0000		9999	4560	0	0	0
2019/05/31 18:09:00	BASE	6.63	207	7.20	200	-4.0	50	-13.0	5	0	1021.1	NA	0.0000		9999	4690	0	0	0
2019/05/31 18:10:00	BASE	6.42	205	7.20	200	-3.9	50	-12.9	5	0	1021.1	NA	0.0000		9999	4660	0	0	0
2019/05/31 18:11:00	BASE	5.77	207	7.20	200	-3.9	50	-12.9	4	0	1021.1	NA	0.0000		9999	4630	0	0	0
2019/05/31 18:12:00	BASE	5.15	208	7.20	200	-3.9	50	-12.8	4	0	1021.1	NA	0.0000		9999	4660	0	0	0
2019/05/31 18:13:00	BASE	4.43	210	7.20	200	-3.9	50	-12.9	4	0	1021.1	NA	0.0000		9999	4760	0	0	0
2019/05/31 18:14:00	BASE	3.84	222	7.20	200	-4.0	50	-12.9	4	0	1021.1	NA	0.0000		9999	4890	0	0	0
2019/05/31 18:15:00	BASE	4.24	233	7.20	200	-4.0	50	-12.9	4	0	1021.1	NA	0.0000		9999	4530	0	0	0
2019/05/31 18:16:00	BASE	4.18	235	7.20	200	-4.0	50	-12.9	4	0	1021.1	NA	0.0000		9999	4660	0	0	0
2019/05/31 18:17:00	BASE	3.60	232	7.20	200	-4.0	50	-12.9	4	0	1021.1	NA	0.0000		9999	4660	0	0	0
2019/05/31 18:18:00	BASE	3.77	235	7.20	200	-4.0	50	-12.9	3	0	1021.0	NA	0.0000		9999	4690	0	0	0
2019/05/31 18:19:00	BASE	4.39	237	6.69	207	-4.1	50	-13.0	3	0	1021.1	NA	0.0000		9999	4690	0	0	0
2019/05/31 18:20:00	BASE	4.91	233	5.97	212	-4.1	50	-13.0	3	0	1021.1	NA	0.0000		9999	4790	0	0	0
2019/05/31 18:21:00	BASE	5.01	231	5.76	227	-4.1	50	-13.1	3	0	1021.1	NA	0.0000		9999	4760	0	0	0
2019/05/31 18:22:00	BASE	5.55	231	7.31	238	-4.1	50	-13.0	3	0	1021.1	NA	0.0000		9999	4790	0	0	0
2019/05/31 18:23:00	BASE	5.96	229	7.31	238	-4.1	50	-12.9	3	0	1021.1	NA	0.0000		9999	4820	0	0	0
2019/05/31 18:24:00	BASE	6.42	221	7.82	209	-4.1	51	-12.8	3	0	1021.1	NA	0.0000		9999	4690	0	0	0
2019/05/31 18:25:00	BASE	7.24	220	8.28	222	-4.0	51	-12.7	3	0	1021.1	NA	0.0000		9999	4790	0	0	0
2019/05/31 18:26:00	BASE	7.91	223	8.85	223	-4.0	51	-12.5	3	0	1021.1	NA	0.0000		9999	4820	0	0	0
2019/05/31 18:27:01	BASE	8.12	224	8.85	223	-4.0	51	-12.5	3	0	1021.1	NA	0.0000		9999	4660	0	0	0
2019/05/31 18:28:00	BASE	7.77	228	8.85	223	-3.9	51	-12.5	3	0	1021.1	NA	0.0000		9999	4860	0	0	0
2019/05/31 18:29:00	BASE	7.33	231	8.85	223	-3.9	52	-12.4	3	0	1021.1	NA	0.0000		9999	4760	0	0	0
2019/05/31 18:30:00	BASE	6.86	235	8.85	223	-3.9	52	-12.4	3	0	1021.1	NA	0.0000		9999	4950	0	0	0
2019/05/31 18:31:00	BASE	5.98	237	8.85	223	-4.0	52	-12.4	3	0	1021.1	NA	0.0000		9999	4890	0	0	0
2019/05/31 18:32:00	BASE	5.05	238	8.85	223	-4.0	52	-12.3	3	0	1021.0	NA	0.0000		9999	4920	0	0	0
2019/05/31 18:33:00	BASE	5.41	236	8.85	223	-4.0	53	-12.3	3	0	1020.9	NA	0.0000		9999	4820	0	0	0
2019/05/31 18:34:00	BASE	5.85	230	8.85	223	-4.1	53	-12.3	3	0	1020.9	NA	0.0000		9999	4820	0	0	0
2019/05/31 18:35:00	BASE	5.55	224	8.85	223	-4.1	52	-12.4	2	0	1020.9	NA	0.0000		9999	4890	0	0	0
2019/05/31 18:36:00	BASE	5.69	224	8.28	237	-4.0	52	-12.5	2	0	1020.9	NA	0.0000		9999	4720	0	0	0
2019/05/31 18:37:00	BASE	7.32	222	8.95	222	-4.0	52	-12.5	2	0	1020.9	NA	0.0000		9999	4860	0	0	0
2019/05/31 18:38:00	BASE	8.35	221	8.95	222	-4.0	52	-12.5	2	0	1021.0	NA	0.0000		9999	4990	0	0	0
2019/05/31 18:39:00	BASE	7.78	225	8.95	222	-4.0	52	-12.5	2	0	1021.0	NA	0.0000		9999	4720	0	0	0
2019/05/31 18:40:00	BASE	7.68	225	8.95	222	-4.0	52	-12.5	2	0	1021.0	NA	0.0000		9999	4860	0	0	0
2019/05/31 18:41:00	BASE	6.88	224	8.95	222	-4.0	52	-12.5	2	0	1020.9	NA	0.0000		9999	4920	0	0	0
2019/05/31 18:42:00	BASE	5.59	228	8.95	222	-4.0	51	-12.5	2	0	1020.9	NA	0.0000		9999	4950	0	0	0
2019/05/31 18:43:00	BASE	5.31	239	8.95	222	-4.0	51	-12.5	2	0	1020.9	NA	0.0000		9999	4950	0	0	0
2019/05/31 18:44:00	BASE	5.86	244	8.95	222	-4.0	51	-12.6	2	0	1020.9	NA	0.0000		9999	4950	0	0	0
2019/05/31 18:45:00	BASE	6.35	247	8.95	222	-4.0	51	-12.7	2	0	1021.0	NA	0.0000		9999	4990	0	0	0
2019/05/31 18:46:00	BASE	5.82	248	8.95	222	-4.1	51	-12.8	2	0	1020.9	NA	0.0000		9999	4950	0	0	0
2019/05/31 18:47:00	BASE	5.08	241	8.64	225	-4.1	51	-12.8	2	0	1020.9	NA	0.0000		9999	4990	0	0	0
2019/05/31 18:48:00	BASE	4.12	228	8.39	223	-4.1	50	-12.9	2	0	1020.9	NA	0.0000		9999	4950	0	0	0
2019/05/31 18:49:00	BASE	3.28	222	8.39	223	-4.1	51	-12.8	2	0	1020.9	NA	0.0000		9999	4920	0	0	0
2019/05/31 18:50:00	BASE	3.52	229	6.74	244	-4.1	51	-12.7	2	0	1020.9	NA	0.0000		9999	4890	0	0	0
2019/05/31 18:51:00	BASE	3.59	226	6.74	244	-4.1	52	-12.6	1	0	1020.9	NA	0.0000		9999	4890	0	0	0
2019/05/31 18:52:00	BASE	3.60	226	6.74	244	-4.1	53	-12.4	1	0	1020.9	NA	0.0000		9999	4860	0	0	0
2019/05/31 18:53:00	BASE	4.30	229	6.74	244	-4.1	53	-12.2	1	0	1020.9	NA	0.0000		9999	4760	0	0	0
2019/05/31 18:54:00	BASE	5.28	218	7.67	216	-4.1	53	-12.2	1	0	1020.9	NA	0.0000		9999	4820	0	0	0
2019/05/31 18:55:00	BASE	6.51	215	7.72	215	-4.1	53	-12.2	1	0	1020.9	NA	0.0000		9999	4720	0	0	0
2019/05/31 18:56:00	BASE	7.16	218	7.92	220	-4.0	53	-12.3	1	0	1020.9	NA	0.0000		9999	4760	0	0	0
2019/05/31 18:57:00	BASE	6.21	220	7.92	220	-3.9	52	-12.5	1	0	1020.9	NA	0.0000		9999	4760	0	0	0
2019/05/31 18:58:00	BASE	5.77	223	7.92	220	-3.9	51	-12.6	1	0	1020.9	NA	0.0000		9999	4760	0	0	0
2019/05/31 18:59:00	BASE	6.68	223	7.92	220	-3.9	50	-12.8	1	0	1020.9	NA	0.0000		9999	4820	0	0	0
2019/05/31 19:00:00	BASE	6.76	219	7.92	220	-3.9	49	-13.0	1	0	1020.9	NA	0.0000		9999	4760	0	0	0
2019/05/31 19:01:00	BASE	6.28	223	7.92	220	-3.9	49	-13.0	1	0	1020.9	NA	0.0000		9999	4630	0	0	0
2019/05/31 19:02:00	BASE	5.42	227	7.92	220	-3.9	50	-12.8	1	0	1020.9	NA	0.0000		9999	4820	0	0	0
2019/05/31 19:03:00	BASE	5.59	220	7.92	220	-4.0	51	-12.6	1	0	1020.9	NA	0.0000		9999	4890	0	0	0
2019/05/31 19:04:00	BASE	5.84	219	7.92	220	-4.0	51	-12.6	1	0	1020.9	NA	0.0000		9999	4920	0	0	0
2019/05/31 19:05:00	BASE	5.69	226	7.92	220	-4.0	52	-12.4	1	0	1020.9	NA	0.0000		9999	4990	0	0	0
2019/05/31 19:06:00	BASE	6.66	225	7.72	221	-4.0	53	-12.3	1	0	1020.9	NA	0.0000		9999	4990	0	0	0
2019/05/31 19:07:00	BASE	6.76	225	7.72	221	-4.0	52	-12.5	1	0	1020.9	NA	0.0000		9999	5220	0	0	0
2019/05/31 19:08:00	BASE	6.42	227	7.72	221	-3.9	51	-12.6	1	0	1020.9	NA	0.0000		9999	5120	0	0	0
2019/05/31 19:09:00	BASE	6.29	225	7.72	221	-3.9	51	-12.6	1	0	1020.9	NA	0.0000		9999	5020	0	0	0
2019/05/31 19:10:00	BASE	6.93	222	8.49	224	-3.9	51	-12.5	1	0	1020.9	NA	0.0000		9999	4990	0	0	0
2019/05/31 19:11:00	BASE	7.29	220	8.49	224	-3.9	51	-12.5	1	0	1020.9	NA	0.0000		9999	4990	0	0	0
2019/05/31 19:12:00	BASE	6.30	219	8.49	224	-3.9	52	-12.4	1	0	1020.8	NA	0.0000		9999	5090	0	0	0
2019/05/31 19:13:00	BASE	6.22	215	8.49	224	-3.9	52	-12.4	1	0	1020.9	NA	0.0000		9999	5120	0	0	0
2019/05/31 19:14:00	BASE	6.17	211	8.49	224	-3.9	51	-12.5	1	0	1020.9	NA	0.0000		9999	5250	0	0	0
2019/05/31 19:15:00	BASE	6.04	211	8.49	224	-3.9	51	-12.6	1	0	1020.9	NA	0.0000		9999	5280	0	0	0
2019/05/31 19:16:00	BASE	6.61	214	8.49	224	-3.9	51	-12.6	0	0	1020.9	NA	0.0000		9999	5150	0	0	0
2019/05/31 19:17:00	BASE	6.69	217	8.49	224	-3.9	51	-12.6	0	0	1020.9	NA	0.0000		9999	5180	0	0	0
2019/05/31 19:18:00	BASE	6.76	221	8.49	224	-3.9	51	-12.5	0	0	1020.9	NA	0.0000		9999	5050	0	0	0
2019/05/31 19:19:00	BASE	6.10	231	8.49	224	-3.9	51	-12.5	0	0	1020.8	NA	0.0000		9999	5090	0	0	0
2019/05/31 19:20:00	BASE	4.71	234	7.56	225	-3.9	51	-12.5	0	0	1020.8	NA	0.0000		9999	5020	0	0	0
2019/05/31 19:21:00	BASE	4.65	240	7.56	225	-3.9	52	-12.5	0	0	1020.8	NA	0.0000		9999	4990	0	0	0
2019/05/31 19:22:00	BASE	4.82	244	7.56	225	-4.0	52	-12.5	0	0	1020.8	NA	0.0000		9999	4200	5250	0	0
2019/05/31 19:23:00	BASE	5.04	231	7.56	225	-4.0	51	-12.6	0	0	1020.8	NA	0.0000		9999	5250	0	0	0
2019/05/31 19:24:00	BASE	5.80	227	7.56	225	-4.0	51	-12.6	0	0	1020.8	NA	0.0000		9999	3180	4100	5120	0
2019/05/31 19:25:00	BASE	5.33	229	7.56	225	-4.0	52	-12.5	0	0	1020.8	NA	0.0000		9999	3080	5250	0	0
2019/05/31 19:26:00	BASE	4.17	229	7.56	225	-4.0	52	-12.5	0	0	1020.8	NA	0.0000		9999	5220	0	0	0
2019/05/31 19:27:00	BASE	3.59	229	7.56	225	-4.0	51	-12.6	0	0	1020.8	NA	0.0000		9999	2920	5090	0	0
2019/05/31 19:28:00	BASE	3.59	228	6.84	232	-4.0	51	-12.7	0	0	1020.8	NA	0.0000		9999	2990	4890	0	0
2019/05/31 19:29:00	BASE	4.13	232	6.84	232	-4.0	51	-12.7	0	0	1020.8	NA	0.0000		9999	3020	4990	0	0
2019/05/31 19:30:00	BASE	5.20	229	6.84	232	-4.0	51	-12.7	0	0	1020.8	NA	0.0000		9999	3020	4890	0	0
2019/05/31 19:31:00	BASE	5.89	223	7.25	226	-4.0	51	-12.7	0	0	1020.8	NA	0.0000		9999	2890	5090	0	0
2019/05/31 19:32:00	BASE	6.25	228	7.82	234	-4.0	51	-12.6	0	0	1020.8	NA	0.0000		9999	2760	4990	0	0
2019/05/31 19:33:00	BASE	6.50	230	7.82	234	-4.0	52	-12.5	0	0	1020.8	NA	0.0000		9999	4920	0	0	0
2019/05/31 19:34:00	BASE	5.71	227	7.82	234	-4.0	52	-12.5	0	0	1020.8	NA	0.0000		9999	4890	0	0	0
2019/05/31 19:35:00	BASE	4.63	227	7.82	234	-4.0	51	-12.6	0	0	1020.8	NA	0.0000		9999	4790	0	0	0
2019/05/31 19:36:00	BASE	4.22	235	7.82	234	-4.0	51	-12.7	0	0	1020.8	NA	0.0000		9999	4490	0	0	0
2019/05/31 19:37:00	BASE	4.24	238	7.82	234	-4.0	51	-12.7	0	0	1020.8	NA	0.0000		9999	4790	0	0	0
2019/05/31 19:38:00	BASE	4.27	231	7.82	234	-4.0	51	-12.7	0	0	1020.8	NA	0.0000		9999	4790	0	0	0
2019/05/31 19:39:00	BASE	5.54	226	7.82	234	-4.0	52	-12.5	0	0	1020.8	NA	0.0000		9999	3350	0	0	0
2019/05/31 19:40:00	BASE	6.75	229	7.82	234	-4.0	52	-12.4	0	0	1020.8	NA	0.0000		9999	3080	4170	0	0
2019/05/31 19:41:00	BASE	6.43	234	7.82	234	-4.0	52	-12.3	0	0	1020.8	NA	0.0000		9999	2360	4630	0	0
2019/05/31 19:42:00	BASE	5.27	233	7.46	233	-4.0	52	-12.3	0	0	1020.8	NA	0.0000		9999	2430	3150	4720	0
2019/05/31 19:43:00	BASE	4.77	237	7.46	233	-4.0	53	-12.2	0	0	1020.7	NA	0.0000		9999	1800	4860	0	0
2019/05/31 19:44:00	BASE	4.88	247	7.46	233	-4.0	53	-12.2	0	0	1020.7	NA	0.0000		9999	1870	3020	0	0
2019/05/31 19:45:00	BASE	4.27	252	7.46	233	-4.0	53	-12.2	0	0	1020.7	NA	0.0000		9999	2720	4860	0	0
2019/05/31 19:46:00	BASE	4.47	247	7.46	233	-4.0	53	-12.2	0	0	1020.7	NA	0.0000		9999	1350	4760	0	0
2019/05/31 19:47:00	BASE	4.46	236	7.46	233	-4.0	53	-12.1	0	0	1020.7	NA	0.0000		9999	2260	0	0	0
2019/05/31 19:48:00	BASE	4.34	238	7.46	233	-4.1	53	-12.2	0	0	1020.7	NA	0.0000		9999	5020	0	0	0
2019/05/31 19:49:00	BASE	5.15	247	7.46	233	-4.1	53	-12.2	0	0	1020.7	NA	0.0000		9999	2950	4760	0	0
2019/05/31 19:50:00	BASE	5.27	248	6.94	234	-4.1	53	-12.2	0	0	1020.7	NA	0.0000		9999	4720	0	0	0
2019/05/31 19:51:00	BASE	5.08	249	6.02	259	-4.1	53	-12.3	0	0	1020.6	NA	0.0000		9999	4630	0	0	0
2019/05/31 19:52:00	BASE	5.31	251	6.02	246	-4.2	53	-12.3	0	0	1020.6	NA	0.0000		9999	3640	4760	0	0
2019/05/31 19:53:00	BASE	5.21	250	6.02	246	-4.2	53	-12.3	0	0	1020.6	NA	0.0000		9999	4860	0	0	0
2019/05/31 19:54:00	BASE	4.46	245	6.02	246	-4.2	53	-12.3	0	0	1020.4	NA	0.0000		9999	4820	0	0	0
2019/05/31 19:55:00	BASE	4.07	245	6.02	246	-4.2	53	-12.4	0	0	1020.4	NA	0.0000		9999	4890	0	0	0
2019/05/31 19:56:00	BASE	4.19	249	6.02	246	-4.1	52	-12.5	0	0	1020.4	NA	0.0000		9999	4950	0	0	0
2019/05/31 19:57:00	BASE	4.62	249	6.02	246	-4.1	51	-12.7	0	0	1020.4	NA	0.0000		9999	4950	0	0	0
2019/05/31 19:58:00	BASE	5.36	246	6.17	242	-4.1	51	-12.8	0	0	1020.4	NA	0.0000		9999	4950	0	0	0
2019/05/31 19:59:00	BASE	5.66	247	6.17	242	-4.1	50	-13.0	0	0	1020.4	NA	0.0000		9999	4920	0	0	0
2019/05/31 20:00:00	BASE	5.56	251	6.17	242	-4.1	50	-13.0	0	0	1020.4	NA	0.0000		9999	4920	0	0	0
2019/05/31 20:01:00	BASE	5.90	249	6.84	245	-4.1	50	-12.9	0	0	1020.4	NA	0.0000		9999	4890	0	0	0
2019/05/31 20:02:00	BASE	5.89	249	6.84	245	-4.1	51	-12.9	0	0	1020.4	NA	0.0000		9999	4950	0	0	0
2019/05/31 20:03:00	BASE	5.56	254	6.84	245	-4.1	51	-12.8	0	0	1020.4	NA	0.0000		9999	4230	4990	0	0
2019/05/31 20:04:00	BASE	5.48	256	6.84	245	-4.1	51	-12.7	0	0	1020.3	NA	0.0000		9999	4890	0	0	0
2019/05/31 20:05:00	BASE	5.40	248	6.84	245	-4.1	51	-12.7	0	0	1020.3	NA	0.0000		9999	4760	0	0	0
2019/05/31 20:06:00	BASE	5.06	244	6.84	245	-4.1	51	-12.7	0	0	1020.3	NA	0.0000		9999	4820	0	0	0
2019/05/31 20:07:00	BASE	4.43	254	6.84	245	-4.1	51	-12.7	0	0	1020.3	NA	0.0000		9999	4890	0	0	0
2019/05/31 20:08:00	BASE	4.04	271	6.84	245	-4.0	51	-12.6	0	0	1020.3	NA	0.0000		9999	4790	0	0	0
2019/05/31 20:09:00	BASE	4.53	269	6.84	245	-4.0	52	-12.5	0	0	1020.3	NA	0.0000		9999	4760	0	0	0
2019/05/31 20:10:00	BASE	5.16	256	6.84	266	-4.1	52	-12.4	0	0	1020.3	NA	0.0000		9999	4760	0	0	0
2019/05/31 20:11:00	BASE	5.72	255	7.41	264	-4.1	53	-12.3	0	0	1020.3	NA	0.0000		9999	4720	0	0	0
2019/05/31 20:12:00	BASE	6.04	250	7.41	264	-4.1	53	-12.2	0	0	1020.3	NA	0.0000		9999	4820	0	0	0
2019/05/31 20:13:00	BASE	5.55	246	7.41	264	-4.1	53	-12.2	0	0	1020.3	NA	0.0000		9999	4760	0	0	0
2019/05/31 20:14:00	BASE	5.16	245	7.41	264	-4.1	53	-12.4	0	0	1020.3	NA	0.0000		9999	4860	0	0	0
2019/05/31 20:15:00	BASE	5.68	247	7.56	240	-4.1	52	-12.5	0	0	1020.3	NA	0.0000		9999	4860	0	0	0
2019/05/31 20:16:00	BASE	6.50	246	7.56	240	-4.1	52	-12.5	0	0	1020.3	NA	0.0000		9999	4820	0	0	0
2019/05/31 20:17:00	BASE	6.48	245	7.56	240	-4.1	52	-12.6	0	0	1020.3	NA	0.0000		9999	4920	0	0	0
2019/05/31 20:18:00	BASE	6.14	248	7.56	240	-4.1	52	-12.6	0	0	1020.3	NA	0.0000		9999	4720	0	0	0
2019/05/31 20:19:00	BASE	5.67	254	7.56	240	-4.1	52	-12.5	0	0	1020.3	NA	0.0000		9999	4790	0	0	0
2019/05/31 20:20:00	BASE	5.38	258	7.56	240	-4.1	52	-12.4	0	0	1020.3	NA	0.0000		9999	4790	0	0	0
2019/05/31 20:21:00	BASE	5.41	257	7.56	240	-4.1	53	-12.4	0	0	1020.3	NA	0.0000		9999	4760	0	0	0
2019/05/31 20:22:00	BASE	5.69	256	7.56	240	-4.1	53	-12.2	0	0	1020.2	NA	0.0000		9999	4820	0	0	0
2019/05/31 20:23:00	BASE	6.17	254	7.56	240	-4.0	54	-12.1	0	0	1020.3	NA	0.0000		9999	4760	0	0	0
2019/05/31 20:24:00	BASE	6.48	250	7.56	240	-4.0	54	-12.0	0	0	1020.2	NA	0.0000		9999	4890	0	0	0
2019/05/31 20:25:00	BASE	6.99	251	8.54	253	-4.0	53	-12.1	0	0	1020.2	NA	0.0000		9999	4890	0	0	0
2019/05/31 20:26:00	BASE	7.36	251	8.54	253	-4.0	53	-12.1	0	0	1020.2	NA	0.0000		9999	4720	0	0	0
2019/05/31 20:27:00	BASE	6.81	248	8.54	253	-4.0	53	-12.2	0	0	1020.2	NA	0.0000		9999	4820	0	0	0
2019/05/31 20:28:00	BASE	6.09	244	8.54	253	-4.0	53	-12.3	0	0	1020.2	NA	0.0000		9999	5020	0	0	0
2019/05/31 20:29:00	BASE	5.79	240	8.54	253	-4.0	52	-12.3	0	0	1020.2	NA	0.0000		9999	4990	0	0	0
2019/05/31 20:30:00	BASE	5.30	238	8.54	253	-4.0	52	-12.3	0	0	1020.2	NA	0.0000		9999	4950	0	0	0
2019/05/31 20:31:00	BASE	4.82	244	8.54	253	-4.0	53	-12.3	0	0	1020.2	NA	0.0000		9999	4950	0	0	0
2019/05/31 20:32:00	BASE	4.59	245	8.54	253	-4.0	53	-12.2	0	0	1020.2	NA	0.0000		9999	4790	0	0	0
2019/05/31 20:33:00	BASE	4.59	242	8.54	253	-4.0	53	-12.1	0	0	1020.1	NA	0.0000		9999	4860	0	0	0
2019/05/31 20:34:00	BASE	5.01	246	8.54	253	-4.0	53	-12.1	0	0	1020.2	NA	0.0000		9999	4920	0	0	0
2019/05/31 20:35:00	BASE	6.07	248	7.61	249	-4.0	53	-12.1	0	0	1020.1	NA	0.0000		9999	4890	0	0	0
2019/05/31 20:36:00	BASE	6.20	249	7.51	247	-4.0	53	-12.2	0	0	1020.1	NA	0.0000		9999	5020	0	0	0
2019/05/31 20:37:00	BASE	5.37	253	7.51	247	-4.0	52	-12.3	0	0	1020.0	NA	0.0000		9999	5020	0	0	0
2019/05/31 20:38:00	BASE	4.57	256	7.51	247	-4.0	53	-12.2	0	0	1020.0	NA	0.0000		9999	5090	0	0	0
2019/05/31 20:39:00	BASE	3.59	255	7.51	247	-4.0	53	-12.1	0	0	1020.0	NA	0.0000		9999	5090	0	0	0
2019/05/31 20:40:00	BASE	3.00	257	7.51	247	-4.0	54	-12.0	0	0	1019.9	NA	0.0000		9999	5090	0	0	0
2019/05/31 20:41:00	BASE	3.59	257	7.51	247	-4.0	54	-11.9	0	0	1019.8	NA	0.0000		9999	5120	0	0	0
2019/05/31 20:42:00	BASE	4.47	251	7.51	247	-4.0	55	-11.8	0	0	1019.8	NA	0.0000		9999	5320	0	0	0
2019/05/31 20:43:00	BASE	4.53	249	7.51	247	-4.0	54	-11.9	0	0	1019.9	NA	0.0000		9999	5280	0	0	0
2019/05/31 20:44:00	BASE	4.72	246	7.51	247	-4.0	54	-12.0	0	0	1020.0	NA	0.0000		9999	5020	0	0	0
2019/05/31 20:45:00	BASE	4.90	246	7.31	251	-4.0	53	-12.1	0	0	1020.0	NA	0.0000		9999	5020	0	0	0
2019/05/31 20:46:00	BASE	4.96	251	5.81	251	-4.0	52	-12.3	0	0	1020.0	NA	0.0000		9999	5050	0	0	0
2019/05/31 20:47:00	BASE	5.02	257	5.81	251	-4.0	52	-12.3	0	0	1020.0	NA	0.0000		9999	4950	0	0	0
2019/05/31 20:48:00	BASE	5.26	262	7.41	259	-4.0	53	-12.3	0	0	1020.0	NA	0.0000		9999	4790	0	0	0
2019/05/31 20:49:00	BASE	6.23	258	7.51	251	-4.0	53	-12.2	0	0	1020.0	NA	0.0000		9999	4860	0	0	0
2019/05/31 20:50:00	BASE	6.82	251	7.51	250	-4.0	53	-12.2	0	0	1020.0	NA	0.0000		9999	4950	0	0	0
2019/05/31 20:51:00	BASE	6.98	252	8.90	252	-4.0	53	-12.1	0	0	1020.0	NA	0.0000		9999	5090	0	0	0
2019/05/31 20:52:00	BASE	7.56	253	8.90	252	-4.0	54	-12.0	0	0	1020.0	NA	0.0000		9999	5090	0	0	0
2019/05/31 20:53:00	BASE	7.62	254	8.90	252	-4.0	54	-11.9	0	0	1020.0	NA	0.0000		9999	3870	4360	5250	0
2019/05/31 20:54:00	BASE	7.02	254	8.90	252	-4.0	55	-11.8	0	0	1020.0	NA	0.0000		9999	4000	5150	0	0
2019/05/31 20:55:00	BASE	7.56	251	9.98	246	-4.0	55	-11.7	0	0	1020.0	NA	0.0000		9999	3940	5180	0	0
2019/05/31 20:56:00	BASE	8.61	247	10.08	246	-3.9	55	-11.6	0	0	1020.0	NA	0.0000		9999	3870	0	0	0
2019/05/31 20:57:00	BASE	7.58	245	10.08	246	-3.9	55	-11.6	0	0	1020.1	NA	0.0000		9999	3840	0	0	0
2019/05/31 20:58:00	BASE	6.14	243	10.08	246	-3.9	55	-11.6	0	0	1020.1	NA	0.0000		9999	3610	0	0	0
2019/05/31 20:59:00	BASE	5.78	244	10.08	246	-3.9	55	-11.6	0	0	1020.1	NA	0.0000		9999	3220	5090	0	0
2019/05/31 21:00:00	BASE	6.09	249	10.08	246	-3.9	55	-11.5	0	0	1020.1	NA	0.0000		9999	3050	5120	0	0
2019/05/31 21:01:00	BASE	6.83	249	10.08	246	-3.9	56	-11.4	0	0	1020.1	NA	0.0000		9999	2950	3770	0	0
2019/05/31 21:02:00	BASE	7.44	247	10.08	246	-3.9	56	-11.4	0	0	1020.0	NA	0.0000		9999	2920	3740	0	0
2019/05/31 21:03:00	BASE	7.79	244	10.08	246	-3.9	57	-11.3	0	0	1020.0	NA	0.0000		9999	2950	0	0	0
2019/05/31 21:04:00	BASE	7.62	243	10.08	246	-3.9	56	-11.3	0	0	1020.0	NA	0.0000		9999	3080	0	0	0
2019/05/31 21:05:00	BASE	7.69	244	10.08	246	-3.9	56	-11.3	0	0	1020.0	NA	0.0000		9999	3610	4990	0	0
2019/05/31 21:06:00	BASE	7.97	244	9.31	246	-3.8	56	-11.3	0	0	1020.0	NA	0.0000		9999	3580	0	0	0
2019/05/31 21:07:00	BASE	7.70	242	9.31	246	-3.8	56	-11.3	0	0	1020.0	NA	0.0000		9999	3540	0	0	0
2019/05/31 21:08:00	BASE	8.27	239	10.08	238	-3.8	56	-11.3	0	0	1020.0	NA	0.0000		9999	3610	5120	0	0
2019/05/31 21:09:00	BASE	9.08	236	10.08	238	-3.8	56	-11.3	0	0	1020.0	NA	0.0000		9999	3540	0	0	0
2019/05/31 21:10:00	BASE	8.88	231	10.19	218	-3.7	56	-11.3	0	0	1020.0	NA	0.0000		9999	3610	0	0	0
2019/05/31 21:11:00	BASE	9.79	225	11.99	223	-3.7	55	-11.4	0	0	1020.0	NA	0.0000		9999	3610	0	0	0
2019/05/31 21:12:00	BASE	9.38	232	11.99	223	-3.7	55	-11.4	0	0	1020.0	NA	0.0000		9999	3640	0	0	0
2019/05/31 21:13:00	BASE	7.95	235	11.99	223	-3.7	55	-11.5	0	0	1020.0	NA	0.0000		9999	3610	0	0	0
2019/05/31 21:14:00	BASE	7.67	234	11.99	223	-3.7	55	-11.5	0	0	1020.0	NA	0.0000		9999	3640	0	0	0
2019/05/31 21:15:00	BASE	7.27	238	11.99	223	-3.7	55	-11.6	0	0	1020.0	NA	0.0000		9999	3640	0	0	0